     2              OBSERVATION DATA    GPS                 RINEX VERSION / TYPE
teqc 1997Sep10 19970911 20:52:29UTC                         PGM / RUN BY / DATE
                                                            COMMENT
BIT 2 OF LLI FLAGS DATA COLLECTED UNDER A-S CONDITION       COMMENT
BIT 2 OF LLI FLAGS DATA COLLECTED UNDER A-S CONDITION       COMMENT
Original Marker Name: unknown                               COMMENT
Campaign Name: Southern California GPS Survey March - A     COMMENT
4-Character Station Name: CHKO                              COMMENT
6-Character Antenna Code: TI4100                            COMMENT
Vertical Measurement Point: PAE                             COMMENT
Vertical Offset to Rinex Ref. Point: 0.0000                 COMMENT
Radial Measurement Point: RRP                               COMMENT
Radial Offset to Rinex Ref. Point: 0.0000                   COMMENT
Antenna Height from Field Measurement: 1.5461 m             COMMENT
Original XYZ: 0.0000 0.0000 0.0000                          COMMENT
New XYZ position is based on association with SCEC monument COMMENT
E1D1D4H9+0011. Position of that monument is believed to be  COMMENT
valid to within 1 m horizontally; vertical accuracy         COMMENT
should be no worse than 3-times this value.                 COMMENT
                                                            COMMENT
Revised Rinex header created by UCSD GPS archive for        COMMENT
GSAC on 26-May-1999 (1999:146) 21:22:13 GMT                 COMMENT
For assistance contact dagnew@ucsd.edu or hjohnson@ucsd.edu COMMENT
                                                            COMMENT
DESERT CENTER (CHKO)                                        MARKER NAME
unknown NATIONAL GEODETIC SURVEY                            OBSERVER / AGENCY
101 TI 4100 GSI TI4100                                      REC # / TYPE / VERS
116 TI 4100                                                 ANT # / TYPE
 -2266248.0000 -4817979.0000  3500639.0000                  APPROX POSITION XYZ
        1.5461        0.0000        0.0000                  ANTENNA: DELTA H/E/N
     1     1     0                                          WAVELENGTH FACT L1/2
     6    L1    L2    P1    P2    D1    D2                  # / TYPES OF OBSERV
     0                                                      INTERVAL
  1988     3    24     3    29   56.000000                  TIME OF FIRST OBS
  1988     3    24     8    24    2.000000                  TIME OF LAST OBS
     0                                                      # OF SATELLITES
                                                            END OF HEADER
 88  3 24  3 29 56.2600000  0  3G 6G 9G11
   4761961.714 9  -7751344.536 8  18505017.655    18505018.001        1661.609
      1300.036
    126839.892 6                                                        -0.500 1
      3062.599
    137126.895 8    -55155.439 8  19504415.061    19504417.677        2838.368
      2214.214
 88  3 24  3 44 32.0800000  0  3G 6G 9G11
   3405935.362 8  -8807987.844 9  18246973.756    18246975.076        1404.125
      1101.325
  -2570199.618 9  -2098136.796 8  20476516.286    20476517.642        3067.878
      2398.291
  -2160305.621 8  -1845361.481 7  19067225.272    19067229.833        2410.688
      1882.416
 88  3 24  3 45  2.0800000  0  3G 6G 9G11
   3363711.927 8  -8840889.215 7  18238938.160    18238939.681        1407.267
      1096.553
  -2662255.953 9  -2169868.998 7  20458998.206    20459000.550        3069.250
      2399.534
  -2232319.682 8  -1901476.287 9  19053522.257    19053525.938        2392.092
      1850.272
 88  3 24  3 45 32.0800000  0  3G 6G 9G11
   3321793.680 8  -8873552.754 8  18230962.976    18230963.659        1378.216
      1087.344
  -2754270.721 9  -2241568.741 8  20441487.965    20441489.757        3077.942
      2401.795
  -2303870.737 7  -1957230.329 8  19039905.966    19039910.595        2391.159
      1857.002
 88  3 24  3 46  2.0800000  0  3G 6G 9G11
   3280184.171 8  -8905975.737 8  18223043.904    18223045.488        1375.202
      1072.909
  -2846241.092 8  -2313233.866 8  20423986.849    20423986.573        3065.103
      2396.644
  -2374955.939 9  -2012621.363 8  19026379.243    19026383.500        2371.350
      1852.192
 88  3 24  3 46 32.0800000  0  3G 6G 9G11
   3238882.437 9  -8938158.881 8  18215183.697    18215185.461        1371.238
      1074.954
  -2938168.044 7  -2384865.192 8  20406490.423    20406495.689        3084.385
      2390.691
  -2445576.695 8  -2067650.484 8  19012941.161    19012944.097        2365.082
      1842.064
 88  3 24  3 47  2.0800000  0  3G 6G 9G11
   3197890.224 8  -8970100.859 8  18207382.648    18207385.177        1366.765
      1057.207
  -3030050.511 7  -2456461.864 8  20389008.308    20389011.670        3055.781
      2381.445
  -2515732.179 8  -2122317.061 7  18999590.222    18999593.528        2334.325
      1807.273
 88  3 24  3 47 32.0800000  0  3G 6G 9G11
   3157211.120 9  -9001798.845 8  18199642.637    18199643.399        1360.106
      1057.698
  -3121885.356 7  -2528021.407 8  20371531.545    20371537.029        3044.123
      2387.013
  -2585419.516 8  -2176618.860 8  18986329.431    18986331.699        2317.850
      1800.537
 88  3 24  3 48  2.0800000  0  3G 6G 9G11
   3116849.830 9  -9033249.184 8  18191962.282    18191964.260        1343.942
      1041.517
  -3213668.344 6  -2599540.530 8  20354063.090    20354068.574        3050.933
      2391.393
  -2654634.574 9  -2230552.634 8  18973158.558    18973162.770        2283.816
      1787.793
 88  3 24  3 48 32.0800000  0  3G 6G 9G11
   3076806.844 9  -9064451.504 9  18184342.630    18184343.728        1330.410
      1038.771
  -3305399.015 9  -2671018.895 9  20336610.680    20336611.915        3049.482
      2379.823
  -2723377.398 7  -2284118.435 8  18960075.829    18960080.622        2296.878
      1776.428
 88  3 24  3 49  2.0800000  0  3G 6G 9G11
   3037083.078 9  -9095405.083 8  18176783.091    18176784.719        1326.749
      1035.515
  -3397077.129 8  -2742456.305 8  20319166.331    20319167.779        3067.328
      2379.165
  -2791647.820 8  -2337316.132 7  18947086.094    18947088.404        2273.385
      1775.775
 88  3 24  3 49 32.0800000  0  3G 6G 9G11
   2997681.000 8  -9126107.981 8  18169284.489    18169287.062        1320.928
      1016.569
  -3488700.327 8  -2813850.910 9  20301731.013    20301731.892        3054.226
      2385.963
  -2859444.332 8  -2390144.547 8  18934184.198    18934188.214        2254.191
      1759.197
 88  3 24  3 50  2.0800000  0  3G 6G 9G11
   2958604.289 8  -9156557.342 8  18161849.820    18161850.968        1287.787
      1014.991
  -3580265.528 8  -2885200.367 9  20284305.022    20284307.930        3053.867
      2383.452
  -2926764.200 9  -2442601.571 7  18921373.358    18921377.065        2235.005
      1754.189
 88  3 24  3 50 32.0800000  0  3G 6G 9G11
   2919855.592 9  -9186751.116 9  18154475.242    18154477.376        1290.426
       995.659
  -3671770.222 8  -2956502.649 8  20266892.325    20266895.280        3039.761
      2386.398
  -2993605.263 8  -2494685.477 7  18908654.413    18908657.916        2213.147
      1738.437
 88  3 24  3 51  2.0800000  0  3G 6G 9G11
   2881435.534 9  -9216688.821 8  18147164.766    18147166.688        1282.914
       995.106
  -3763214.185 8  -3027757.615 8  20249490.285    20249494.789        3051.084
      2362.673
  -3059967.859 8  -2546396.564 8  18896026.094    18896029.910        2216.265
      1729.793
 88  3 24  3 51 32.0800000  0  3G 6G 9G11
   2843346.785 9  -9246368.345 8  18139916.236    18139918.300        1265.562
       996.411
  -3854594.960 8  -3098963.367 8  20232099.548    20232104.588        3053.525
      2372.783
  -3125849.959 8  -2597733.234 7  18883489.271    18883491.664        2184.025
      1710.450
 88  3 24  3 52  2.0800000  0  3G 6G 9G11
   2805592.808 9  -9275787.013 9  18132731.667    18132733.474        1259.988
       976.602
  -3945909.615 8  -3170117.597 8  20214725.099    20214727.453        3037.305
      2372.311
  -3191249.162 8  -2648693.642 8  18871043.491    18871045.763        2181.752
      1691.902
 88  3 24  3 52 32.0800000  0  3G 6G 9G11
   2768176.063 9  -9304942.897 8  18125611.238    18125612.836        1242.261
       970.059
  -4037155.707 8  -3241218.384 9  20197361.443    20197364.258        3034.968
      2374.393
  -3256163.490 8  -2699276.195 7  18858691.350    18858693.818        2160.149
      1676.348
 88  3 24  3 53  2.0800000  0  3G 6G 9G11
   2731098.236 8  -9333834.715 8  18118555.434    18118557.941        1227.469
       961.161
  -4128331.894 9  -3312264.720 8  20180011.699    20180013.073        3036.021
      2365.227
  -3320592.654 8  -2749480.725 7  18846431.060    18846432.270        2135.214
      1668.606
 88  3 24  3 53 32.0800000  0  3G 6G 9G11
   2694361.913 9  -9362460.401 9  18111566.035    18111568.171        1220.029
       945.520
  -4219435.876 8  -3383254.790 8  20162675.032    20162676.906        3035.534
      2377.238
  -3384534.747 8  -2799305.695 8  18834263.224    18834265.484        2142.997
      1657.869
 88  3 24  3 54  2.0800000  0  3G 6G 9G11
   2657969.170 8  -9390818.371 8  18104641.433    18104640.813        1207.876
       944.303
  -4310465.877 9  -3454187.199 8  20145352.918    20145354.019        3033.940
      2361.561
  -3447988.776 8  -2848750.351 7  18822187.076    18822190.391        2126.649
      1647.976
 88  3 24  3 54 32.0800000  0  3G 6G 9G11
   2621922.814 9  -9418906.432 9  18097780.976    18097782.925        1207.007
       924.928
  -4401419.018 9  -3525059.736 7  20128043.581    20128045.524        3041.659
      2367.961
  -3510952.497 8  -2897812.963 8  18810205.525    18810209.126        2096.060
      1625.489
 88  3 24  3 55  2.0800000  0  3G 6G 9G11
   2586225.422 9  -9446722.568 8  18090987.844    18090988.899        1196.393
       925.034
  -4492293.308 8  -3595870.810 8  20110751.423    20110754.123        3013.055
      2356.957
  -3573424.564 8  -2946492.474 8  18798318.269    18798320.399        2069.489
      1626.955
 88  3 24  3 55 32.0800000  0  3G 6G 9G11
   2550877.430 9  -9474266.464 7  18084261.418    18084263.697        1171.250
       899.619
  -4583088.190 8  -3666620.051 8  20093475.116    20093476.150        3012.130
      2349.624
  -3635405.561 8  -2994789.314 7  18786522.713    18786526.243        2056.858
      1606.232
 88  3 24  3 56  2.0800000  0  3G 6G 9G11
   2515881.276 8  -9501536.175 8  18077600.822    18077604.024        1145.827
       894.959
  -4673801.669 9  -3737305.855 8  20076212.724    20076214.685        3020.973
      2365.811
  -3696894.074 7  -3042702.406 8  18774822.936    18774824.942        2028.022
      1589.822
 88  3 24  3 56 32.0800000  0  3G 6G 9G11
   2481241.356 9  -9528528.322 8  18071009.731    18071011.895        1145.078
       886.322
  -4764429.480 8  -3807924.888 8  20058965.199    20058968.044        3023.701
      2352.924
  -3757886.584 8  -3090229.011 7  18763215.573    18763220.252        2040.917
      1577.568
 88  3 24  3 57  2.0800000  0  3G 6G 9G11
   2446959.372 9  -9555241.553 8  18064486.162    18064487.991        1138.746
       888.385
  -4854970.015 7  -3878475.904 8  20041733.485    20041739.791        3016.835
      2349.606
  -3818382.535 7  -3137368.680 8  18751704.084    18751707.088        2009.506
      1565.936
 88  3 24  3 57 32.0800000  0  3G 6G 9G11
   2413037.392 9  -9581674.244 8  18058031.042    18058032.111        1119.185
       874.478
  -4945421.114 8  -3948957.208 8  20024522.622    20024527.403        2998.414
      2359.952
  -3878380.690 8  -3184120.467 8  18740286.290    18740289.289        1973.366
      1542.361
 88  3 24  3 58  2.0800000  0  3G 6G 9G11
   2379477.535 8  -9607824.783 9  18051644.732    18051646.396        1100.573
       870.011
  -5035780.950 8  -4019367.415 9  20007329.049    20007331.951        3011.667
      2355.888
  -3937880.211 8  -3230483.702 8  18728963.891    18728968.162        1996.029
      1548.966
 88  3 24  3 58 32.0800000  0  3G 6G 9G11
   2346281.186 9  -9633692.061 8  18045328.077    18045329.254        1103.324
       865.120
  -5126048.316 8  -4089705.587 7  19990151.511    19990153.583        3014.466
      2357.516
  -3996880.583 8  -3276457.991 7  18717737.081    18717740.805        1961.835
      1536.420
 88  3 24  3 59  2.0800000  0  3G 6G 9G11
   2313451.483 9  -9659273.636 8  18039079.684    18039081.977        1094.225
       848.331
  -5216220.137 9  -4159969.310 8  19972991.857    19972995.038        3004.706
      2346.188
  -4055380.078 7  -3322041.994 8  18706604.314    18706608.504        1957.067
      1516.797
 88  3 24  3 59 32.0800000  0  3G 6G 9G11
   2280991.374 8  -9684567.220 8  18032903.430    18032904.443        1070.159
       831.324
  -5306293.270 8  -4230156.116 8  19955850.902    19955855.584        3006.364
      2334.158
  -4113376.694 8  -3367234.125 8  18695568.093    18695571.233        1946.429
      1509.589
 88  3 24  4  0  2.0800000  0  3G 6G 9G11
   2248904.201 9  -9709570.215 8  18026797.622    18026798.784        1079.824
       830.286
  -5396264.891 8  -4300263.820 8  19938730.087    19938734.175        2988.861
      2335.737
  -4170868.145 9  -3412032.642 7  18684627.533    18684632.079        1924.005
      1489.338
 88  3 24  4  0 32.0800000  0  3G 6G 9G11
   2217190.322 9  -9734282.334 8  18020762.242    18020762.754        1048.333
       819.387
  -5486134.373 8  -4370291.960 8  19921629.299    19921631.872        2998.517
      2332.369
  -4227855.259 8  -3456438.158 8  18673783.747    18673786.294        1897.634
      1477.893
 88  3 24  4  1  2.0800000  0  3G 6G 9G11
   2185850.683 9  -9758702.814 8  18014799.178    18014801.565        1024.777
       807.904
  -5575900.793 9  -4440239.776 9  19904546.680    19904550.125        2994.012
      2331.642
  -4284338.081 8  -3500450.713 7  18663035.141    18663038.479        1878.025
      1460.028
 88  3 24  4  1 32.0800000  0  3G 6G 9G11
   2154888.154 9  -9782829.462 8  18008906.788    18008908.237        1023.820
       804.921
  -5665561.372 9  -4510105.129 8  19887485.698    19887488.231        2990.862
      2341.727
  -4340315.169 8  -3544069.200 8  18652382.816    18652385.428        1862.985
      1457.362
 88  3 24  4  2  2.0800000  0  3G 6G 9G11
   2124307.047 7  -9806658.869 8  18003087.477    18003089.591        1003.373
       784.198
  -5755111.893 9  -4579884.712 9  19870444.738    19870447.847        2981.030
      2325.751
  -4395783.300 8  -3587291.084 8  18641827.466    18641830.725        1841.414
      1449.340
 88  3 24  4  2 32.0800000  0  3G 6G 9G11
   2094109.447 8  -9830189.473 9  17997341.791    17997343.024        1001.834
       768.117
  -5844550.029 7  -4649576.710 9  19853425.020    19853428.521        2999.746
      2322.122
  -4450741.675 9  -3630115.761 8  18631369.340    18631372.842        1812.061
      1414.649
 88  3 24  4  3  2.0800000  0  3G 6G 9G11
   2064296.874 9  -9853420.042 8  17991667.561    17991669.553         985.240
       763.718
  -5933874.284 8  -4719180.004 8  19836427.857    19836429.205        2966.261
      2323.912
  -4505190.043 7  -3672543.045 7  18621008.803    18621011.952        1803.999
      1394.050
 88  3 24  4  3 32.0800000  0  3G 6G 9G11
   2034872.196 9  -9876348.345 7  17986068.468    17986070.145         989.099
       772.417
  -6023081.772 8  -4788692.290 8  19819450.344    19819453.914        2965.807
      2316.107
  -4559126.623 8  -3714571.527 8  18610744.328    18610747.737        1800.833
      1397.946
 88  3 24  4  4  2.0800000  0  3G 6G 9G11
   2005836.918 8  -9898973.249 7  17980543.409    17980544.452         971.133
       755.273
  -6112170.850 8  -4858112.320 9  19802499.028    19802500.780        2971.915
      2332.151
  -4612551.538 8  -3756201.300 7  18600577.242    18600581.402        1775.897
      1375.974
 88  3 24  4  4 32.0800000  0  3G 6G 9G11
   1977191.601 9  -9921294.253 8  17975091.891    17975093.483         951.835
       731.605
  -6201141.079 8  -4927439.745 8  19785568.206    19785570.019        2996.962
      2320.345
  -4665465.524 9  -3797432.944 8  18590508.325    18590512.936        1756.990
      1378.733
 88  3 24  4  5  2.0800000  0  3G 6G 9G11
   1948939.517 8  -9943308.865 8  17969715.854    17969717.864         942.433
       725.832
  -6289988.745 8  -4996671.665 8  19768659.904    19768661.669        2963.223
      2318.263
  -4717866.182 8  -3838264.591 8  18580536.259    18580540.366        1753.154
      1358.302
 88  3 24  4  5 32.0800000  0  3G 6G 9G11
   1921085.690 9  -9965013.145 8  17964415.198    17964417.208         927.091
       712.864
  -6378708.997 8  -5065804.277 8  19751777.717    19751779.938        2953.558
      2305.544
  -4769749.802 9  -3878693.376 8  18570664.128    18570668.279        1727.620
      1340.717
 88  3 24  4  6  2.0800000  0  3G 6G 9G11
   1893631.572 8  -9986405.957 8  17959190.968    17959193.469         907.793
       709.148
  -6467300.246 8  -5134836.374 8  19734919.452    19734921.143        2964.762
      2292.514
  -4821116.468 8  -3918719.322 7  18560889.975    18560892.269        1705.324
      1332.490
 88  3 24  4  6 32.0800000  0  3G 6G 9G11
   1866577.408 8 -10007487.133 8  17954041.663    17954044.742         906.924
       704.792
  -6555761.793 8  -5203767.434 8  19718085.643    19718087.029        2946.684
      2287.853
  -4871967.295 8  -3958343.312 8  18551213.315    18551216.498        1700.763
      1291.175
 88  3 24  4  7  2.0800000  0  3G 6G 9G11
   1839925.281 9 -10028255.024 8  17948971.004    17948973.011         871.980
       689.121
  -6644091.574 9  -5272595.805 7  19701277.373    19701280.296        2937.099
      2298.522
  -4922301.623 8  -3997564.842 8  18541634.558    18541636.391        1684.041
      1304.391
 88  3 24  4  7 32.0800000  0  3G 6G 9G11
   1813677.236 9 -10048708.030 8  17943976.893    17943978.006         867.052
       677.856
  -6732287.362 8  -5341319.750 8  19684494.525    19684496.481        2928.239
      2286.934
  -4972118.561 9  -4036383.208 8  18532154.604    18532157.635        1675.181
      1285.936
 88  3 24  4  8  2.0800000  0  3G 6G 9G11
   1787835.992 8 -10068844.063 8  17939059.288    17939061.154         879.245
       662.613
  -6820346.132 8  -5409936.943 8  19667736.670    19667738.454        2926.980
      2287.518
  -5021416.746 9  -4074797.358 8  18522774.178    18522776.195        1640.142
      1268.836
 88  3 24  4  8 32.0800000  0  3G 6G 9G11
   1762405.201 8 -10088660.265 8  17934218.766    17934220.970         842.578
       656.555
  -6908263.979 8  -5478444.311 7  19651006.723    19651007.481        2937.075
      2282.050
  -5070194.302 8  -4112805.814 8  18513492.160    18513494.366        1630.405
      1266.357
 88  3 24  4  9  2.0800000  0  3G 6G 9G11
   1737385.750 8 -10108155.927 9  17929458.598    17929460.646         825.322
       640.896
  -6996039.850 8  -5546841.059 8  19634302.991    19634305.845        2923.319
      2271.026
  -5118451.686 8  -4150408.959 8  18504309.022    18504311.439        1603.173
      1236.388
 88  3 24  4  9 32.0800000  0  3G 6G 9G11
   1712779.790 9 -10127329.409 8  17924775.957    17924777.393         817.603
       645.556
  -7083671.189 9  -5615125.178 8  19617628.032    19617629.497        2915.799
      2259.320
  -5166188.163 8  -4187606.197 7  18495225.679    18495227.252        1591.977
      1228.322
 88  3 24  4 10  2.0800000  0  3G 6G 9G11
   1688588.893 8 -10146179.462 8  17920171.734    17920174.726         784.414
       624.771
  -7171156.287 9  -5683295.355 7  19600979.983    19600982.511        2904.675
      2268.646
  -5213403.591 9  -4224397.409 8  18486240.436    18486242.083        1566.666
      1211.241
 88  3 24  4 10 32.0800000  0  3G 6G 9G11
   1664816.210 7 -10164703.620 8  17915648.265    17915649.890         791.319
       623.684
  -7258492.147 8  -5751349.246 8  19584360.549    19584362.197        2891.988
      2278.054
  -5260096.043 8  -4260781.116 8  18477353.902    18477357.741        1539.816
      1202.249
 88  3 24  4 11  2.0800000  0  3G 6G 9G11
   1641465.067 9 -10182899.305 8  17911204.456    17911208.026         777.093
       580.865
  -7345674.223 8  -5819283.286 8  19567769.218    19567772.794        2903.495
      2253.584
  -5306263.816 9  -4296755.972 7  18468569.413    18468571.219        1538.142
      1200.261
 88  3 24  4 11 32.0800000  0  3G 6G 9G11
   1618537.391 8 -10200765.031 9  17906842.198    17906844.070         739.813
       594.094
  -7432700.902 8  -5887096.271 8  19551209.615    19551211.808        2904.843
      2252.696
  -5351906.553 8  -4332321.727 7  18459883.987    18459886.252        1509.586
      1175.499
 88  3 24  4 12  2.0800000  0  3G 6G 9G11
   1596033.862 8 -10218300.237 9  17902560.497    17902561.756         746.671
       580.796
  -7519570.716 9  -5954786.991 8  19534679.431    19534679.956        2899.978
      2239.019
  -5397024.834 8  -4367478.800 8  18451298.020    18451301.370        1495.000
      1158.566
 88  3 24  4 12 32.0800000  0  3G 6G 9G11
   1573956.361 9 -10235503.489 8  17898358.292    17898360.775         740.738
       570.146
  -7606281.637 9  -6022353.912 8  19518177.813    19518179.961        2881.438
      2268.379
  -5441618.478 8  -4402227.062 8  18442811.633    18442814.516        1481.348
      1167.837
 88  3 24  4 13  2.0800000  0  3G 6G 9G11
   1552308.483 9 -10252371.964 7  17894239.606    17894240.985         724.550
       557.507
  -7692829.611 9  -6089793.869 8  19501708.440    19501711.617        2885.537
      2245.674
  -5485685.322 8  -4436564.857 7  18434425.513    18434429.269        1457.712
      1142.212
 88  3 24  4 13 32.0800000  0  3G 6G 9G11
   1531091.563 9 -10268904.632 8  17890201.979    17890203.679         695.683
       545.757
  -7779213.193 8  -6157105.715 8  19485270.565    19485272.884        2880.114
      2247.675
  -5529225.826 8  -4470492.487 6  18426141.003    18426142.998        1438.885
      1128.808
 88  3 24  4 14  2.0800000  0  3G 6G 9G11
   1510308.532 9 -10285099.197 8  17886246.145    17886248.471         700.763
       537.312
  -7865428.409 8  -6224286.366 9  19468863.434    19468865.797        2880.066
      2241.355
  -5572238.684 9  -4504008.976 7  18417956.344    18417958.117        1434.722
      1106.526
 88  3 24  4 14 32.0800000  0  3G 6G 9G11
   1489959.764 9 -10300955.384 9  17882375.328    17882376.341         681.090
       534.143
  -7951475.071 9  -6291335.679 8  19452490.447    19452491.716        2874.094
      2244.351
  -5614724.843 8  -4537115.057 8  18409870.510    18409873.855        1433.414
      1093.148
 88  3 24  4 15  2.0800000  0  4G 6G 9G11G13
   1470047.280 1 -10316471.613 1  17878587.163    17878587.059         668.474
       470.166
  -8037350.292 8  -6358251.408 8  19436148.679    19436150.078        2851.072
      2229.642
  -5656683.829 8  -4569810.351 7  18401886.085    18401888.986        1396.916
      1087.189
 -16190436.582 3                                  20564232.000 1      3714.686

 88  3 24  4 15 32.0800000  0  4G 6G 9G11G13
   1450574.057 8 -10331645.544 8  17874879.590    17874882.723         653.857
       493.990
  -8123050.723 9  -6425030.953 8  19419839.103    19419843.684        2856.670
      2212.927
  -5698114.226 8  -4602093.754 8  18394002.807    18394005.879        1354.971
      1077.365
 -16411449.817 4                                  20792232.000 1        -5.279

 88  3 24  4 16  2.0800000  0  4G 6G 9G11G13
   1431542.100 8 -10346475.646 8  17871259.003    17871260.126         619.568
       485.203
  -8208573.668 9  -6491672.158 8  19403566.237    19403568.665        2861.271
      2217.066
  -5739015.732 8  -4633965.038 7  18386218.682    18386221.582        1363.033
      1058.251
 -16550126.278 8                                  21020232.000 1      3624.265

 88  3 24  4 16 32.0800000  0  4G 6G 9G11G13
   1412954.480 8 -10360959.503 9  17867721.101    17867723.203         607.718
       483.445
  -8293915.758 8  -6558172.456 9  19387324.789    19387327.825        2839.995
      2221.428
  -5779387.000 8  -4665423.156 8  18378536.362    18378540.683        1346.327
      1032.793
 -16660852.901 8  21132662.396 8  21373026.076    21373028.116        3684.575
      2886.129
 88  3 24  4 17  2.0800000  0  4G 6G 9G11G13
   1394811.996 9 -10375096.506 8  17864269.646    17864270.700         590.820
       461.243
  -8379075.463 8  -6624530.645 8  19371119.873    19371122.643        2841.447
      2202.538
  -5819228.957 8  -4696468.810 7  18370955.131    18370957.294        1337.156
      1034.210
 -16771357.915 9  21046554.631 8  21351996.532    21352000.688        3686.417
      2867.015
 88  3 24  4 17 32.0800000  0  4G 6G 9G11G13
   1377116.699 9 -10388885.049 8  17860901.403    17860904.255         580.637
       473.907
  -8464050.405 9  -6690744.859 8  19354949.929    19354952.580        2820.450
      2213.567
  -5858540.986 8  -4727101.552 8  18363474.560    18363476.710        1311.447
      1014.301
 -16881639.725 9  20960620.811 9  21331011.566    21331013.952        3674.113
      2852.599
 88  3 24  4 18  2.0800000  0  4G 6G 9G11G13
   1359872.875 8 -10402321.794 8  17857620.132    17857622.575         564.026
       439.899
  -8548835.358 9  -6756811.033 9  19338816.218    19338817.593        2822.795
      2209.510
  -5897320.219 7  -4757319.126 7  18356093.048    18356096.499        1279.222
      1012.952
 -16991694.424 9  20874863.982 9  21310068.183    21310071.149        3657.486
      2855.607
 88  3 24  4 18 32.0800000  0  4G 6G 9G11G13
   1343079.637 9 -10415407.437 9  17854423.991    17854426.770         547.926
       423.463
  -8633430.631 8  -6822729.402 8  19322718.047    19322719.841        2832.013
      2184.294
  -5935569.575 8  -4787123.786 8  18348815.308    18348818.813        1260.180
       984.872
 -17101522.035 9  20789284.102 9  21289167.220    21289172.686        3661.346
      2847.566
 88  3 24  4 19  2.0800000  0  4G 6G 9G11G13
   1326738.127 8 -10428141.086 8  17851315.423    17851317.180         542.041
       422.836
  -8717834.837 9  -6888498.884 9  19306656.367    19306658.015        2813.776
      2185.705
  -5973289.531 8  -4816515.935 7  18341637.748    18341640.356        1262.500
       981.150
 -17211120.716 9  20703882.583 9  21268311.603    21268315.555        3659.217
      2853.954
 88  3 24  4 19 32.0800000  0  4G 6G 9G11G13
   1310851.913 9 -10440519.964 8  17848292.296    17848292.898         520.335
       411.893
  -8802043.553 9  -6954116.044 8  19290631.509    19290633.595        2804.151
      2183.045
  -6010478.193 8  -4845494.105 7  18334561.378    18334564.121        1240.292
       955.363
 -17320487.254 9  20618661.972 8  21247501.296    21247504.064        3642.128
      2847.423
 88  3 24  4 20  2.0800000  0  4G 6G 9G11G13
   1295424.094 9 -10452541.631 9  17845356.942    17845358.318         491.946
       399.211
  -8886052.634 9  -7019577.658 8  19274645.454    19274646.408        2798.457
      2184.083
  -6047134.252 8  -4874057.252 7  18327584.939    18327588.982        1209.112
       941.836
 -17429617.636 9  20533625.390 8  21226733.199    21226738.108        3642.909
      2830.292
 88  3 24  4 20 32.0800000  0  4G 6G 9G11G13
   1280456.068 8 -10464205.033 9  17842507.503    17842509.597         478.653
       395.656
  -8969860.595 9  -7084882.540 8  19258697.605    19258699.302        2777.724
      2198.530
  -6083258.171 8  -4902205.741 6  18320710.838    18320714.835        1188.083
       929.731
 -17538510.263 9  20448774.047 8  21206011.209    21206015.403        3632.439
      2830.049
 88  3 24  4 21  2.0800000  0  4G 6G 9G11G13
   1265949.038 8 -10475509.214 9  17839747.544    17839748.809         474.323
       373.635
  -9053465.355 8  -7150029.078 8  19242787.510    19242789.733        2793.425
      2167.001
  -6118850.250 8  -4929939.790 9  18313937.946    18313941.432        1166.210
       930.912
 -17647163.833 8  20364108.998 8  21185337.401    21185340.142        3605.597
      2827.806
 88  3 24  4 21 32.0800000  0  4G 6G 9G11G13
   1251905.831 9 -10486451.973 8  17837074.699    17837076.360         457.927
       369.105
  -9136863.035 8  -7215014.268 8  19226918.392    19226919.996        2770.164
      2168.219
  -6153909.306 8  -4957258.529 7  18307266.490    18307268.304        1155.747
       920.081
 -17755575.233 8  20279632.645 8  21164706.897    21164708.437        3595.510
      2820.163
 88  3 24  4 22  2.0800000  0  4G 6G 9G11G13
   1238328.211 8 -10497031.943 9  17834491.249    17834493.532         447.561
       339.155
  -9220051.367 8  -7279836.331 8  19211086.899    19211090.085        2779.286
      2154.394
  -6188435.360 7  -4984161.937 8  18300696.077    18300699.500        1154.232
       894.661
 -17863742.391 7  20195346.610 7  21144121.034    21144124.872        3590.924
      2801.391
 88  3 24  4 22 32.0800000  0  4G 6G 9G11G13
   1225216.703 8 -10507248.718 8  17831995.890    17831997.868         425.017
       329.231
  -9303028.956 8  -7344494.172 8  19195297.409    19195299.336        2768.114
      2160.079
  -6222429.600 8  -5010650.945 7  18294227.907    18294230.774        1115.892
       873.664
 -17971664.759 6  20111251.321 8  21123584.366    21123588.733        3587.137
      2802.510
 88  3 24  4 23  2.0800000  0  4G 6G 9G11G13
   1212574.310 9 -10517099.930 9  17829590.264    17829593.421         427.330
       326.360
  -9385792.075 8  -7408984.898 8  19179547.952    19179549.492        2763.848
      2158.836
  -6255890.815 8  -5036724.605 7  18287860.314    18287863.745        1132.255
       857.670
 -18079337.873 7  20027350.247 8  21103095.190    21103098.881        3577.998
      2773.690
 88  3 24  4 23 32.0800000  0  4G 6G 9G11G13
   1200402.125 8 -10526584.746 8  17827274.714    17827276.119         407.617
       308.962
  -9468338.661 8  -7473306.886 8  19163840.547    19163841.815        2766.902
      2143.333
  -6288819.986 9  -5062383.670 8  18281595.214    18281597.152        1086.442
       845.864
 -18186760.461 7  19943644.384 7  21082652.799    21082657.275        3590.414
      2779.513
 88  3 24  4 24  2.0800000  0  4G 6G 9G11G13
   1188702.803 8 -10535701.111 8  17825048.415    17825050.675         379.412
       298.927
  -9550665.711 8  -7537457.822 8  19148174.152    19148175.791        2745.483
      2144.688
  -6321215.723 8  -5087627.088 7  18275429.484    18275431.757        1069.991
       845.559
 -18293930.119 7  19860135.611 7  21062259.252    21062263.484        3599.306
      2785.981
 88  3 24  4 24 32.0800000  0  4G 6G 9G11G13
   1177478.894 9 -10544447.028 9  17822912.221    17822914.146         360.608
       288.494
  -9632769.046 8  -7601434.436 8  19132550.000    19132552.310        2744.670
      2132.067
  -6353077.812 9  -5112454.673 7  18269366.924    18269368.762        1064.919
       826.514
 -18400843.835 8  19776826.289 7  21041914.597    21041916.951        3548.995
      2782.172
 88  3 24  4 25  2.0800000  0  4G 6G 9G11G13
   1166731.497 9 -10552821.613 9  17820866.886    17820868.956         358.192
       274.009
  -9714647.263 7  -7665235.623 8  19116968.673    19116970.359        2718.578
      2120.945
  -6384406.743 7  -5136866.801 7  18263404.312    18263406.842        1031.212
       814.801
 -18507500.207 9  19693717.450 8  21021618.954    21021622.548        3559.011
      2769.428
 88  3 24  4 25 32.0800000  0  4G 6G 9G11G13
   1156461.909 8 -10560823.907 7  17818912.619    17818913.938         327.834
       267.957
  -9796298.011 9  -7728859.547 8  19101431.923    19101432.843        2701.289
      2114.029
  -6415203.026 8  -5160863.894 7  18257544.624    18257547.067        1015.463
       783.390
 -18613897.468 8  19610810.520 8  21001373.034    21001376.199        3544.498
      2762.630
 88  3 24  4 26  2.0800000  0  4G 6G 9G11G13
   1146672.030 8 -10568452.384 8  17817048.887    17817052.002         326.662
       248.993
  -9877718.285 8  -7792303.900 9  19085937.635    19085939.802        2716.201
      2107.697
  -6445466.501 8  -5184445.807 7  18251785.401    18251789.682         991.747
       795.911
 -18720033.672 8  19528107.006 7  20981174.543    20981178.933        3549.362
      2747.002
 88  3 24  4 26 32.0800000  0  4G 6G 9G11G13
   1137364.638 8 -10575704.902 8  17815278.688    17815280.170         315.155
       231.811
  -9958904.652 8  -7855565.979 9  19070488.240    19070491.006        2691.585
      2104.161
  -6475196.228 8  -5207611.797 8  18246128.272    18246130.560         994.586
       777.083
 -18825905.570 9  19445609.458 7  20961027.610    20961031.435        3527.409
      2750.960
 88  3 24  4 27  2.0800000  0  4G 6G 9G11G13
   1128541.540 8 -10582580.040 8  17813599.534    17813602.110         279.493
       225.107
 -10039854.403 9  -7918643.675 9  19055084.032    19055085.429        2689.097
      2098.072
  -6504392.607 8  -5230362.214 7  18240571.813    18240575.520         976.332
       747.034
 -18931510.306 9  19363320.085 8  20940932.217    20940937.002        3511.484
      2743.392
 88  3 24  4 27 32.0800000  0  4G 6G 9G11G13
   1120203.599 9 -10589077.143 8  17812013.944    17812015.197         263.154
       218.234
 -10120565.437 9  -7981535.366 8  19039725.002    19039727.256        2677.502
      2108.610
  -6533056.332 8  -5252697.554 7  18235117.485    18235120.995         952.537
       730.698
 -19036846.689 9  19281239.811 9  20920887.270    20920890.735        3518.015
      2741.957
 88  3 24  4 28  2.0800000  0  4G 6G 9G11G13
   1112352.996 9 -10595194.492 8  17810519.769    17810520.558         249.494
       205.440
 -10201034.433 8  -8044238.462 8  19024412.327    19024415.041        2681.505
      2093.971
  -6561186.812 8  -5274617.402 7  18229765.157    18229768.048         932.848
       713.746
 -19141912.627 9  19199370.284 9  20900893.284    20900896.981        3492.824
      2733.257
 88  3 24  4 28 32.0800000  0  4G 6G 9G11G13
   1104990.556 9 -10600931.472 9  17809117.953    17809119.759         225.874
       195.927
 -10281259.512 9  -8106751.498 9  19009146.587    19009147.167        2677.988
      2093.989
  -6588785.243 8  -5296122.659 7  18224512.558    18224516.207         907.849
       709.999
 -19246706.548 9  19117712.715 8  20880952.219    20880955.827        3492.944
      2725.496
 88  3 24  4 29  2.0800000  0  4G 6G 9G11G13
   1098119.051 9 -10606285.898 8  17807809.950    17807811.811         214.335
       179.119
 -10361237.363 7  -8169071.892 8  18993926.798    18993928.866        2667.159
      2068.246
  -6615850.734 8  -5317212.622 7  18219362.800    18219365.369         882.442
       687.804
 -19351225.310 8  19036269.558 8  20861063.238    20861066.500        3487.999
      2709.875
 88  3 24  4 29 32.0800000  0  4G 6G 9G11G13
   1091740.433 8 -10611256.259 8  17806596.361    17806599.233         209.319
       157.905
 -10440964.746 9  -8231197.102 8  18978754.886    18978757.697        2649.209
      2069.625
  -6642383.343 8  -5337887.378 7  18214313.527    18214315.047         883.176
       692.688
 -19455466.826 8  18955042.450 8  20841226.317    20841229.781        3489.036
      2714.833
 88  3 24  4 30  2.0800000  0  4G 6G 9G11G13
   1085855.525 9 -10615841.901 8  17805476.639    17805478.988         212.054
       155.935
 -10520439.475 8  -8293125.440 8  18963631.679    18963632.991        2637.869
      2057.664
  -6668384.113 8  -5358147.692 8  18209366.178    18209368.613         843.894
       664.154
 -19559429.257 8  18874032.815 9  20821443.034    20821447.341        3468.582
      2695.279
 88  3 24  4 30 32.0800000  0  4G 6G 9G11G13
   1080466.169 9 -10620041.406 8  17804450.520    17804452.733         170.882
       128.103
 -10599658.818 9  -8354854.774 8  18948557.080    18948558.279        2638.132
      2055.060
  -6693853.029 9  -5377993.590 8  18204519.091    18204522.148         853.639
       658.282
 -19663110.451 7  18793242.311 8  20801710.971    20801718.882        3452.912
      2673.512
 88  3 24  4 31  2.0800000  0  4G 6G 9G11G13
   1075574.286 8 -10623853.271 8  17803520.278    17803522.976         159.958
       114.160
 -10678619.491 8  -8416382.550 9  18933530.287    18933533.011        2625.246
      2055.029
  -6718789.735 9  -5397424.785 7  18199773.883    18199775.588         813.424
       648.943
 -19766508.102 8  18712672.755 8  20782037.007    20782041.170        3461.485
      2684.168
 88  3 24  4 31 32.0800000  0  4G 6G 9G11G13
   1071182.048 9 -10627275.798 8  17802684.626    17802686.636         135.684
       111.276
 -10757318.750 8  -8477706.633 9  18918554.814    18918556.241        2616.570
      2041.744
  -6743194.702 8  -5416441.627 7  18195129.796    18195132.540         820.721
       623.646
 -19869619.807 8  18632326.032 8  20762415.899    20762420.036        3446.445
      2683.354
 88  3 24  4 32  2.0800000  0  4G 6G 9G11G13
   1067290.800 9 -10630307.948 9  17801944.310    17801946.244         103.810
        96.749
 -10835753.454 8  -8538824.557 8  18903629.223    18903631.549        2593.540
      2039.532
  -6767068.285 7  -5435044.398 8  18190586.674    18190589.169         798.225
       609.709
 -19972443.933 9  18552203.394 8  20742849.447    20742852.333        3414.452
      2685.585
 88  3 24  4 32 32.0800000  0  4G 6G 9G11G13
   1063901.366 9 -10632949.068 9  17801299.267    17801300.475          98.300
        80.145
 -10913921.720 9  -8599734.885 8  18888754.580    18888756.657        2592.431
      2030.366
  -6790411.281 8  -5453233.733 7  18186144.317    18186148.533         786.638
       596.554
 -20074978.891 8  18472306.061 7  20723336.010    20723340.402        3439.412
      2665.365
 88  3 24  4 33  2.0800000  0  4G 6G 9G11G13
   1061016.175 9 -10635197.277 9  17800750.310    17800751.956         100.461
        61.920
 -10991820.067 8  -8660434.874 8  18873930.935    18873932.592        2600.509
      2025.569
  -6813223.109 8  -5471009.176 7  18181803.871    18181806.316         738.832
       586.842
 -20177222.089 8  18392636.068 8  20703881.205    20703884.710        3409.891
      2643.512
 88  3 24  4 33 32.0800000  0  4G 6G 9G11G13
   1058637.199 8 -10637051.033 8  17800297.229    17800298.892          72.758
        53.718
 -11069444.891 8  -8720921.739 8  18859158.891    18859161.333        2579.832
      2014.931
  -6835503.851 8  -5488370.771 8  18177563.923    18177567.455         720.985
       564.553
 -20279170.834 9  18313195.510 8  20684480.359    20684484.544        3382.802
      2648.563
 88  3 24  4 34  2.0800000  0  4G 6G 9G11G13
   1056765.840 9 -10638509.251 9  17799941.106    17799943.518          49.369
        48.076
 -11146794.239 8  -8781193.957 9  18844440.217    18844441.786        2588.548
      2006.363
  -6857254.116 8  -5505319.022 8  18173424.592    18173427.489         721.974
       573.762
 -20380823.179 9  18233985.933 8  20665137.674    20665140.239        3377.913
      2634.210
 88  3 24  4 34 32.0800000  0  4G 6G 9G11G13
   1055403.712 9 -10639570.660 8  17799681.347    17799683.991          40.837
        31.728
 -11223864.407 8  -8841248.622 8  18829773.583    18829776.303        2550.518
      2000.167
  -6878474.342 8  -5521854.255 7  18169385.658    18169390.991         712.246
       536.821
 -20482177.269 9  18155008.738 7  20645850.146    20645854.281        3378.121
      2621.154
 88  3 24  4 35  2.0800000  0  4G 6G 9G11G13
   1054549.712 8 -10640236.104 9  17799519.490    17799520.891          17.496
        20.462
 -11300655.653 9  -8901085.944 8  18815161.263    18815163.528        2563.150
      1990.263
  -6899167.304 8  -5537978.621 8  18165448.288    18165451.854         681.146
       536.219
 -20583233.359 9  18076263.754 8  20626620.130    20626622.506        3375.051
      2621.527
 88  3 24  4 35 32.0800000  0  4G 6G 9G11G13
   1054205.311 9 -10640504.490 9  17799453.753    17799456.670           7.504
         4.387
 -11377165.104 8  -8960703.676 8  18800600.931    18800603.744        2553.070
      1978.637
  -6919333.599 8  -5553692.595 7  18161611.343    18161613.479         672.493
       520.063
 -20683989.749 9  17997752.308 7  20607445.964    20607449.174        3351.407
      2618.830
 88  3 24  4 36  2.0800000  0  4G 6G 9G11G13
   1054375.266 8 -10640372.050 8  17799486.268    17799488.170         -24.003
       -14.043
 -11453386.521 8  -9020096.972 9  18786096.700    18786099.262        2542.169
      1980.109
  -6938970.517 8  -5568994.082 9  18157874.822    18157877.478         638.012
       506.150
 -20784440.990 9  17919478.635 8  20588330.542    20588333.963        3356.399
      2609.143
 88  3 24  4 36 32.0800000  0  4G 6G 9G11G13
   1055062.886 9 -10639836.253 8  17799617.224    17799619.343         -38.516
       -19.567
 -11529315.295 8  -9079262.236 8  18771648.288    18771651.511        2505.798
      1976.331
  -6958076.303 8  -5583881.683 8  18154238.450    18154242.670         624.344
       480.760
 -20884583.293 8  17841445.721 7  20569272.740    20569278.081        3339.860
      2605.645
 88  3 24  4 37  2.0800000  0  4G 6G 9G11G13
   1056267.398 8 -10638897.675 8  17799845.558    17799847.432         -34.003
       -41.092
 -11604950.640 8  -9138198.867 9  18757255.635    18757257.195        2503.254
      1960.983
  -6976653.572 8  -5598357.463 8  18150703.094    18150706.631         600.836
       473.354
 -20984416.851 9  17763653.360 8  20550276.771    20550279.405        3327.452
      2591.285
 88  3 24  4 37 32.0800000  0  4G 6G 9G11G13
   1057986.822 9 -10637557.873 8  17800173.716    17800174.460         -55.430
       -58.223
 -11680293.393 8  -9196907.488 8  18742919.243    18742920.397        2504.307
      1955.714
  -6994707.119 8  -5612425.146 8  18147268.298    18147270.898         621.067
       457.216
 -21083943.322 8  17686100.288 8  20531337.250    20531339.883        3319.940
      2582.349
 88  3 24  4 38  2.0800000  0  4G 6G 9G11G13
   1060223.170 8 -10635815.274 8  17800598.615    17800600.704         -68.587
       -68.426
 -11755339.694 8  -9255385.102 8  18728637.691    18728639.486        2489.841
      1960.076
  -7012236.156 8  -5626084.134 8  18143932.536    18143935.553         581.131
       465.313
 -21183159.827 9  17608788.775 7  20512456.396    20512461.234        3306.814
      2573.290
 88  3 24  4 38 32.0800000  0  4G 6G 9G11G13
   1062981.060 8 -10633666.293 8  17801123.378    17801127.006         -92.941
       -82.376
 -11830083.895 8  -9313627.331 8  18714413.405    18714416.233        2487.202
      1941.665
  -7029238.435 8  -5639332.646 8  18140697.431    18140699.861         551.467
       448.610
 -21282061.348 9  17531722.697 8  20493636.790    20493640.339        3299.900
      2565.379
 88  3 24  4 39  2.0800000  0  4G 6G 9G11G13
   1066261.570 8 -10631110.049 8  17801747.998    17801751.730        -111.952
       -86.701
 -11904523.286 8  -9371632.029 8  18700249.131    18700251.004        2473.047
      1941.447
  -7045714.532 8  -5652171.153 8  18137561.771    18137564.901         556.315
       415.199
 -21380646.213 8  17454903.363 8  20474877.017    20474880.086        3270.826
      2561.030
 88  3 24  4 39 32.0800000  0  4G 6G 9G11G13
   1070063.927 9 -10628147.195 8  17802471.792    17802473.698        -136.920
      -116.999
 -11978657.072 8  -9429398.597 8  18686141.576    18686142.924        2445.639
      1914.610
  -7061667.329 8  -5664601.887 7  18134526.410    18134528.736         528.516
       420.710
 -21478914.824 8  17378330.468 8  20456176.955    20456179.905        3277.620
      2554.145
 88  3 24  4 40  2.0800000  0  4G 6G 9G11G13
   1074391.886 9 -10624774.757 8  17803295.367    17803298.080        -144.966
      -125.885
 -12052479.899 8  -9486922.861 7  18672093.388    18672094.740        2452.378
      1917.847
  -7077095.046 8  -5676623.475 7  18131589.640    18131592.243         522.950
       403.324
 -21576862.617 8  17302007.555 8  20437538.049    20437541.486        3259.861
      2540.419
 88  3 24  4 40 32.0800000  0  4G 6G 9G11G13
   1079246.323 8 -10620992.085 8  17804219.361    17804221.777        -192.150
      -125.742
 -12125989.599 7  -9544203.123 9  18658104.659    18658106.826        2445.065
      1898.280
  -7091998.757 7  -5688236.754 7  18128754.239    18128756.351         494.976
       393.500
 -21674488.022 8  17225935.853 9  20418960.886    20418963.906        3257.692
      2530.203
 88  3 24  4 41  2.0800000  0  4G 6G 9G11G13
   1084627.544 9 -10616798.953 9  17805243.129    17805245.022        -184.080
      -145.583
 -12199184.171 8  -9601237.844 7  18644176.383    18644178.264        2440.265
      1908.788
  -7106380.340 8  -5699443.157 7  18126017.766    18126020.571         450.719
       381.160
 -21771790.152 9  17150116.052 9  20400444.065    20400448.318        3236.935
      2523.356
 88  3 24  4 41 32.0800000  0  4G 6G 9G11G13
   1090537.526 8 -10612193.766 9  17806367.780    17806368.741        -212.708
      -149.081
 -12272059.721 8  -9658023.980 9  18630309.491    18630311.243        2428.662
      1883.404
  -7120239.729 7  -5710242.678 8  18123381.050    18123381.452         433.526
       370.037
 -21868766.817 8  17074549.832 9  20381990.690    20381993.171        3220.866
      2516.850
 88  3 24  4 42  2.0800000  0  4G 6G 9G11G13
   1096976.023 9 -10607176.766 8  17807593.161    17807595.326        -215.746
      -170.891
 -12344615.180 8  -9714560.693 7  18616502.819    18616504.409        2415.058
      1879.763
  -7133579.040 8  -5720636.934 8  18120841.573    18120844.471         416.261
       331.996
 -21965417.856 9  16999237.362 8  20363598.121    20363601.358        3222.222
      2512.221
 88  3 24  4 42 32.0800000  0  4G 6G 9G11G13
   1103944.597 8 -10601746.710 8  17808919.778    17808920.212        -247.588
      -187.737
 -12416847.258 9  -9770845.416 7  18602757.389    18602758.513        2407.969
      1880.167
  -7146398.562 6  -5730626.152 7  18118402.305    18118403.638         422.521
       343.100
 -22061741.187 8  16924180.244 9  20345268.484    20345272.903        3220.093
      2492.641
 88  3 24  4 43  2.0800000  0  4G 6G 9G11G13
   1111446.332 8 -10595901.218 8  17810346.627    17810347.345        -252.030
      -206.795
 -12488751.186 9  -9826874.437 9  18589074.269    18589076.218        2390.074
      1856.200
  -7158697.185 8  -5740209.466 8  18116061.854    18116063.116         386.948
       307.514
 -22157732.264 8  16849382.020 8  20327001.884    20327005.017        3203.435
      2488.515
 88  3 24  4 43 32.0800000  0  4G 6G 9G11G13
   1119480.620 8 -10589640.743 8  17811875.839    17811877.721        -264.908
      -216.799
 -12560326.073 8  -9882647.081 8  18575452.497    18575455.896        2367.244
      1848.874
  -7170477.406 7  -5749388.861 7  18113820.664    18113822.405         378.638
       316.114
 -22253391.323 9  16774842.518 8  20308798.995    20308802.807        3170.086
      2485.023
 88  3 24  4 44  2.0800000  0  4G 6G 9G11G13
   1128048.416 9 -10582964.554 9  17813505.797    17813507.615        -299.628
      -222.137
 -12631569.157 8  -9938161.142 8  18561896.256    18561898.603        2375.090
      1846.762
  -7181740.334 7  -5758165.157 7  18111676.766    18111680.142         367.498
       297.522
 -22348717.090 9  16700562.709 8  20290658.714    20290661.670        3171.928
      2491.249
 88  3 24  4 44 32.0800000  0  4G 6G 9G11G13
   1137153.306 8 -10575869.830 9  17815238.443    17815240.231        -318.615
      -240.442
 -12702474.977 8  -9993412.422 8  18548403.470    18548405.432        2353.049
      1845.432
  -7192484.623 7  -5766537.324 7  18109632.494    18109634.635         338.495
       265.745
 -22443704.874 9  16626546.261 8  20272582.735    20272587.172        3156.737
      2457.856
 88  3 24  4 45  2.0800000  0  4G 6G 9G11G13
   1146795.673 8 -10568356.308 8  17817074.066    17817075.724        -332.634
      -260.469
 -12773041.415 8 -10048399.253 8  18534975.060    18534976.266        2346.550
      1838.708
  -7202711.773 8  -5774506.519 7  18107686.074    18107688.872         330.848
       263.688
 -22538353.698 7  16552793.936 8  20254571.947    20254575.529        3141.410
      2450.648
 88  3 24  4 45 32.0800000  0  4G 6G 9G11G13
   1156975.748 9 -10560423.782 8  17819011.439    17819012.572        -360.146
      -281.702
 -12843266.785 8 -10103120.303 8  18521611.718    18521613.492        2324.692
      1827.375
  -7212423.396 8  -5782073.998 7  18105838.414    18105840.558         310.003
       245.836
 -22632663.470 8  16479305.841 8  20236625.449    20236628.657        3140.644
      2451.288
 88  3 24  4 46  2.0800000  0  4G 6G 9G11G13
   1167694.429 8 -10552071.584 8  17821050.374    17821051.681        -369.548
      -284.305
 -12913147.996 9 -10157573.188 8  18508313.659    18508315.835        2329.333
      1812.126
  -7221620.612 8  -5789240.657 7  18104087.995    18104090.175         313.312
       225.150
 -22726631.675 8  16406083.878 7  20218744.630    20218746.945        3140.979
      2431.988
 88  3 24  4 46 32.0800000  0  4G 6G 9G11G13
   1178952.823 8 -10543298.825 8  17823192.571    17823193.904        -390.951
      -292.122
 -12982682.428 8 -10211755.859 8  18495082.424    18495084.134        2297.093
      1808.777
  -7230304.162 8  -5796007.053 9  18102436.110    18102437.225         280.211
       220.757
 -22820256.859 7  16333129.224 7  20200929.176    20200931.227        3106.219
      2429.260
 88  3 24  4 47  2.0800000  0  4G 6G 9G11G13
   1190752.175 8 -10534104.541 8  17825437.984    17825441.502        -393.208
      -305.637
 -13051866.863 8 -10265665.802 9  18481916.943    18481919.130        2295.714
      1789.794
  -7238474.986 7  -5802373.900 7  18100880.155    18100883.036         259.645
       192.304
 -22913537.189 9  16260443.273 8  20183176.472    20183179.024        3097.718
      2427.067
 88  3 24  4 47 32.0800000  0  4G 6G 9G11G13
   1203093.589 8 -10524487.857 8  17827787.017    17827788.267        -436.141
      -339.428
 -13120698.128 8 -10319300.539 8  18468818.131    18468820.611        2290.602
      1795.728
  -7246133.661 8  -5808341.702 8  18099422.687    18099425.446         237.588
       189.378
 -23006470.718 7  16188027.546 8  20165492.062    20165494.943        3090.701
      2413.993
 88  3 24  4 48  2.0800000  0  4G 6G 9G11G13
   1215979.234 8 -10514447.113 9  17830238.947    17830240.092        -448.542
      -345.493
 -13189172.758 8 -10372657.378 8  18455788.323    18455790.422        2287.659
      1786.997
  -7253280.405 8  -5813910.582 7  18098062.911    18098066.839         226.264
       187.196
 -23099054.698 9  16115884.218 8  20147875.164    20147877.183        3092.033
      2405.070
 88  3 24  4 48 32.0800000  0  4G 6G 9G11G13
   1229410.043 8 -10503981.540 8  17832794.602    17832796.363        -472.393
      -354.670
 -13257287.397 8 -10425733.722 9  18442826.289    18442828.008        2256.958
      1771.326
  -7259916.217 8  -5819081.326 7  18096800.195    18096803.285         222.604
       169.599
 -23191287.392 8  16044014.605 8  20130322.454    20130326.019        3070.701
      2390.337
 88  3 24  4 49  2.0800000  0  4G 6G 9G11G13
   1243384.966 8 -10493092.016 8  17835454.425    17835456.046        -463.637
      -364.681
 -13325041.314 8 -10478528.956 8  18429932.510    18429934.238        2247.915
      1769.008
  -7266044.136 7  -5823856.318 7  18095634.023    18095636.515         188.617
       170.488
 -23283169.449 8  15972418.229 8  20112838.619    20112841.338        3057.879
      2380.439
 88  3 24  4 49 32.0800000  0  4G 6G 9G11G13
   1257905.245 8 -10481777.528 9  17838216.713    17838219.110        -496.252
      -377.730
 -13392431.356 9 -10531040.671 7  18417110.338    18417111.226        2255.642
      1753.051
  -7271664.713 7  -5828235.974 7  18094564.133    18094566.602         196.512
       124.723
 -23374698.682 8  15901096.760 8  20095421.340    20095423.502        3048.429
      2368.881
 88  3 24  4 50  2.0800000  0  4G 6G 9G11G13
   1272972.700 8 -10470036.656 8  17841084.752    17841086.585        -534.266
      -404.505
 -13459453.723 8 -10583265.884 8  18404354.909    18404357.078        2225.077
      1736.479
  -7276777.911 8  -5832220.274 7  18093591.385    18093594.336         170.675
       131.620
 -23465872.812 8  15830051.998 7  20078070.546    20078074.355        3019.697
      2354.726
 88  3 24  4 50 32.0800000  0  4G 6G 9G11G13
   1288588.226 8 -10457868.731 8  17844055.483    17844057.438        -531.379
      -398.446
 -13526105.412 7 -10635202.254 8  18391673.196    18391673.788        2214.479
      1714.712
  -7281385.183 7  -5835810.338 7  18092714.399    18092717.293         148.618
       114.004
 -23556690.027 8  15759285.355 8  20060788.887    20060792.151        3020.192
      2350.233
 88  3 24  4 51  2.0800000  0  4G 6G 9G11G13
   1304752.184 9 -10445273.452 8  17847132.177    17847134.278        -547.057
      -424.917
 -13592384.140 8 -10686848.006 8  18379058.846    18379061.125        2207.836
      1729.234
  -7285487.782 7  -5839007.156 7  18091933.832    18091936.178         114.512
        91.504
 -23647148.468 8  15688798.287 8  20043574.254    20043578.921        3013.996
      2347.940
 88  3 24  4 51 32.0800000  0  4G 6G 9G11G13
   1321466.581 8 -10432249.258 9  17850312.138    17850315.136        -568.412
      -436.363
 -13658285.923 8 -10738200.030 8  18366518.929    18366520.016        2176.274
      1708.300
  -7289085.928 8  -5841810.899 7  18091249.860    18091252.162         101.266
        88.801
 -23737246.271 9  15618592.215 8  20026431.459    20026434.048        2995.734
      2322.563
 88  3 24  4 52  2.0800000  0  4G 6G 9G11G13
   1338732.090 8 -10418795.631 8  17853598.010    17853600.149        -570.693
      -460.286
 -13723808.032 8 -10789256.216 8  18354050.591    18354053.084        2178.897
      1692.859
  -7292180.663 8  -5844222.367 7  18090659.204    18090663.782         100.078
        81.258
 -23826981.977 8  15548668.312 9  20009353.380    20009357.651        2981.859
      2338.446
 88  3 24  4 52 32.0800000  0  4G 6G 9G11G13
   1356549.007 8 -10404912.329 9  17856988.608    17856990.625        -593.858
      -475.622
 -13788948.220 8 -10840014.793 8  18341654.492    18341656.739        2175.277
      1690.876
  -7294773.732 8  -5846242.921 7  18090166.053    18090169.672          78.531
        54.973
 -23916353.765 8  15479027.979 8  19992347.059    19992349.863        2983.310
      2314.585
 88  3 24  4 53  2.0800000  0  4G 6G 9G11G13
   1374917.529 9 -10390599.212 9  17860483.861    17860485.525        -610.573
      -478.983
 -13853704.042 8 -10890473.869 8  18329332.247    18329333.085        2140.309
      1689.795
  -7296866.574 8  -5847873.695 7  18089768.952    18089771.680          63.643
        40.694
 -24005361.329 8  15409671.458 8  19975409.789    19975412.514        2959.332
      2314.734
 88  3 24  4 53 32.0800000  0  4G 6G 9G11G13
   1393838.400 8 -10375855.682 9  17864083.962    17864086.512        -653.993
      -489.944
 -13918072.711 8 -10940631.262 8  18317082.700    18317084.721        2132.694
      1672.303
  -7298460.896 8  -5849116.013 7  18089464.516    18089466.317          45.637
        39.470
 -24094002.569 8  15340600.383 8  19958541.599    19958545.736        2957.218
      2299.026
 88  3 24  4 54  2.0800000  0  4G 6G 9G11G13
   1413313.929 9 -10360679.966 8  17867791.186    17867791.613        -662.031
      -517.726
 -13982049.617 8 -10990483.386 7  18304909.118    18304909.978        2122.335
      1664.101
  -7299556.254 8  -5849969.529 7  18089256.382    18089258.971          31.682
        18.641
 -24182274.453 9  15271817.102 8  19941742.992    19941747.528        2948.399
      2285.977
 88  3 24  4 54 32.0800000  0  4G 6G 9G11G13
   1433344.479 8 -10345071.755 8  17871602.482    17871604.126        -683.713
      -530.508
 -14045632.408 8 -11040028.408 8  18292809.450    18292810.679        2099.082
      1651.599
  -7300153.982 7  -5850435.274 7  18089142.761    18089144.854          20.430
        12.583
 -24270176.311 8  15203322.171 6  19925017.240    19925018.725        2936.397
      2274.338
 88  3 24  4 55  2.0800000  0  4G 6G 9G11G13
   1453930.262 9 -10329030.885 8  17875519.057    17875522.157        -692.517
      -545.744
 -14108818.686 8 -11089264.475 7  18280785.157    18280786.712        2093.340
      1634.213
  -7300255.781 7  -5850514.593 8  18089122.855    18089125.993          13.174
        -2.871
 -24357707.231 8  15135116.288 7  19908358.799    19908362.438        2899.077
      2267.081
 88  3 24  4 55 32.0800000  0  4G 6G 9G11G13
   1475070.637 9 -10312557.889 8  17879541.929    17879544.108        -712.708
      -553.083
 -14171606.831 9 -11138190.284 7  18268837.535    18268838.863        2085.701
      1624.370
  -7299864.299 7  -5850209.532 8  18089198.350    18089200.059          -9.234
         0.230
 -24444865.967 7  15067200.413 8  19891774.891    19891777.127        2909.572
      2267.571
 88  3 24  4 56  2.0800000  0  4G 6G 9G11G13
   1496766.869 9 -10295651.742 8  17883670.785    17883672.458        -740.515
      -568.673
 -14233993.662 8 -11186803.396 8  18256964.805    18256966.563        2078.141
      1617.547
  -7298980.056 8  -5849520.502 7  18089366.625    18089368.515         -57.463
       -23.066
 -24531651.498 9  14999575.336 8  19875259.978    19875263.190        2879.724
      2254.342
 88  3 24  4 56 32.0800000  0  4G 6G 9G11G13
   1519021.756 8 -10278310.298 8  17887906.764    17887907.290        -749.885
      -585.345
 -14295973.802 8 -11235099.604 7  18245169.746    18245172.769        2058.149
      1613.372
  -7297602.456 8  -5848447.041 7  18089628.893    18089630.254         -45.103
       -58.571
 -24618059.804 8  14932244.203 7  19858816.643    19858820.252        2869.349
      2235.738
 88  3 24  4 57  2.0800000  0  4G 6G 9G11G13
   1541834.829 9 -10260533.880 7  17892247.843    17892249.061        -767.229
      -607.037
 -14357545.489 8 -11283077.529 8  18233453.392    18233455.214        2032.727
      1605.642
  -7295733.783 8  -5846990.931 7  18089984.482    18089986.409         -59.856
       -52.960
 -24704090.588 8  14865207.253 9  19842445.232    19842448.610        2863.695
      2226.716
 88  3 24  4 57 32.0800000  0  4G 6G 9G11G13
   1565206.220 9 -10242322.423 8  17896695.704    17896696.165        -782.986
      -612.629
 -14418706.565 8 -11330735.493 8  18221815.170    18221817.497        2035.335
      1574.548
  -7293375.601 7  -5845153.374 7  18090433.818    18090435.739         -84.608
       -68.084
 -24789743.012 7  14798465.124 8  19826146.432    19826149.002        2829.581
      2225.392
 88  3 24  4 58  2.0800000  0  4G 6G 9G11G13
   1589136.638 8 -10223675.362 7  17901247.836    17901250.651        -796.774
      -619.098
 -14479453.997 8 -11378071.143 7  18210255.978    18210257.063        2012.600
      1568.664
  -7290529.044 8  -5842935.261 7  18090974.482    18090978.006         -88.747
       -79.835
 -24875015.386 8  14732019.138 8  19809919.069    19809922.342        2858.009
      2211.094
 88  3 24  4 58 32.0800000  0  4G 6G 9G11G13
   1613627.117 8 -10204591.876 8  17905907.742    17905911.003        -833.799
      -642.630
 -14539784.356 8 -11425081.817 8  18198775.654    18198777.043        2008.868
      1564.407
  -7287195.042 8  -5840337.332 8  18091610.158    18091612.591        -105.652
       -90.230
 -24959905.311 8  14665871.159 9  19793765.289    19793768.020        2829.158
      2190.253
 88  3 24  4 59  2.0800000  0  4G 6G 9G11G13
   1638677.533 8 -10185072.088 8  17910675.772    17910677.613        -841.701
      -640.442
 -14599695.557 8 -11471765.867 8  18187374.848    18187376.882        1991.580
      1544.523
  -7283375.767 8  -5837361.278 7  18092335.665    18092338.305        -127.024
      -108.567
 -25044412.235 8  14600021.628 9  19777683.685    19777687.001        2832.300
      2188.538
 88  3 24  4 59 32.0800000  0  4G 6G 9G11G13
   1664287.355 8 -10165116.402 8  17915549.726    17915550.598        -858.192
      -663.955
 -14659185.457 7 -11518121.627 9  18176053.706    18176056.063        1960.081
      1544.380
  -7279073.192 7  -5834008.601 7  18093154.023    18093156.820        -154.886
      -102.571
 -25128535.885 8  14534470.747 8  19761676.533    19761679.782        2792.197
      2170.525
 88  3 24  5  0  2.0800000  0  4G 6G 9G11G13
   1690457.388 8 -10144724.183 8  17920529.121    17920530.660        -872.450
      -692.682
 -14718251.109 9 -11564146.805 8  18164813.453    18164815.329        1960.408
      1539.639
  -7274288.891 7  -5830280.565 7  18094065.414    18094066.695        -174.256
      -126.730
 -25212274.833 9  14469219.639 9  19745740.794    19745744.776        2787.189
      2177.434
 88  3 24  5  0 32.0800000  0  4G 6G 9G11G13
   1717188.093 8 -10123895.079 8  17925615.098    17925617.547        -898.814
      -705.849
 -14776889.772 8 -11609839.253 8  18153655.517    18153656.542        1944.060
      1520.289
  -7269024.017 8  -5826178.053 8  18095065.862    18095068.736        -182.836
      -139.238
 -25295627.745 8  14404269.335 8  19729879.486    19729882.454        2762.166
      2165.019
 88  3 24  5  1  2.0800000  0  4G 6G 9G11G13
   1744481.278 8 -10102627.677 8  17930809.586    17930811.444        -925.536
      -721.340
 -14835097.157 8 -11655195.660 8  18142579.187    18142580.599        1927.984
      1503.984
  -7263278.698 7  -5821701.182 7  18096159.359    18096162.691        -204.933
      -157.544
 -25378591.410 8  14339622.341 8  19714091.869    19714095.519        2761.408
      2148.577
 88  3 24  5  1 32.0800000  0  4G 6G 9G11G13
   1772337.622 9 -10080921.448 8  17936110.380    17936112.226        -924.475
      -734.395
 -14892870.081 9 -11700213.509 7  18131585.222    18131587.163        1916.302
      1496.627
  -7257054.066 8  -5816850.807 7  18097344.386    18097346.697        -221.320
      -161.136
 -25461164.291 9  14275279.862 7  19698378.995    19698382.788        2747.397
      2135.833
 88  3 24  5  2  2.0800000  0  4G 6G 9G11G13
   1800755.966 8 -10058777.305 8  17941518.424    17941519.349        -974.737
      -744.865
 -14950207.400 9 -11744891.936 8  18120675.177    18120675.975        1909.109
      1485.697
  -7250353.074 8  -5811629.242 8  18098618.760    18098621.855        -239.406
      -181.436
 -25543346.424 9  14211241.851 8  19682740.245    19682743.496        2747.628
      2139.779
 88  3 24  5  2 32.0800000  0  4G 6G 9G11G13
   1829737.756 8 -10036194.104 8  17947032.342    17947035.677        -966.827
      -768.521
 -15007105.097 7 -11789227.793 8  18109846.873    18109848.786        1885.744
      1471.579
  -7243176.257 7  -5806036.927 8  18099984.674    18099987.575        -241.073
      -188.570
 -25625135.745 9  14147509.934 8  19667175.486    19667178.639        2720.109
      2124.909
 88  3 24  5  3  2.0800000  0  4G 6G 9G11G13
   1859283.101 8 -10013171.768 8  17952655.795    17952657.816        -981.803
      -768.173
 -15063560.908 8 -11833219.334 8  18099103.612    18099105.084        1886.765
      1454.858
  -7235525.178 8  -5800075.025 8  18101439.955    18101444.084        -262.229
      -195.914
 -25706531.361 8  14084084.795 8  19651687.302    19651691.140        2713.961
      2114.756
 88  3 24  5  3 32.0800000  0  4G 6G 9G11G13
   1889391.846 8  -9989710.423 7  17958385.675    17958387.068       -1015.271
      -761.785
 -15119572.252 8 -11876864.530 8  18088444.839    18088447.796        1865.361
      1457.070
  -7227401.424 7  -5793744.821 8  18102985.549    18102989.886        -277.205
      -201.488
 -25787532.468 8  14020967.078 8  19636273.574    19636276.040        2699.360
      2105.143
 88  3 24  5  4  2.0800000  0  4G 6G 9G11G13
   1920064.712 8  -9965809.515 7  17964221.242    17964223.216       -1041.818
      -806.624
 -15175135.767 8 -11920160.779 8  18077871.348    18077873.430        1841.630
      1439.007
  -7218806.394 8  -5787047.395 8  18104622.392    18104625.526        -281.439
      -231.463
 -25868137.219 9  13958158.208 8  19620935.083    19620937.558        2686.425
      2081.854
 88  3 24  5  4 32.0800000  0  4G 6G 9G11G13
   1951302.163 8  -9941468.650 7  17970165.279    17970167.682       -1045.295
      -829.683
 -15230248.744 8 -11963105.947 8  18067384.347    18067385.464        1831.407
      1425.796
  -7209741.403 7  -5779983.746 8  18106347.176    18106350.418        -314.692
      -235.092
 -25948343.890 8  13895659.516 7  19605672.055    19605674.376        2674.527
      2084.625
 88  3 24  5  5  2.0800000  0  4G 6G 9G11G13
   1983103.063 8  -9916688.748 8  17976218.531    17976218.207       -1086.219
      -815.019
 -15284909.522 8 -12005698.766 8  18056982.021    18056984.174        1820.043
      1424.305
  -7200209.250 7  -5772556.102 8  18108161.864    18108164.078        -322.435
      -259.239
 -26028152.747 7  13833470.825 8  19590484.016    19590487.631        2652.773
      2087.204
 88  3 24  5  5 32.0800000  0  4G 6G 9G11G13
   2015467.923 8  -9891469.385 8  17982377.161    17982377.749       -1077.112
      -847.026
 -15339115.217 8 -12047936.957 8  18046667.232    18046669.752        1798.409
      1381.964
  -7190211.336 8  -5764765.503 8  18110063.631    18110067.499        -357.602
      -274.071
 -26107562.340 9  13771593.261 8  19575373.844    19575377.008        2642.088
      2058.658
 88  3 24  5  6  2.0800000  0  4G 6G 9G11G13
   2048397.785 9  -9865809.754 7  17988642.901    17988644.397       -1103.292
      -870.744
 -15392862.209 7 -12089817.730 8  18036439.633    18036441.336        1802.938
      1387.675
  -7179748.434 8  -5756612.581 7  18112054.177    18112057.148        -340.585
      -272.829
 -26186571.180 8  13710027.947 8  19560338.685    19560342.110        2625.724
      2055.855
 88  3 24  5  6 32.0800000  0  4G 6G 9G11G13
   2081892.723 7  -9839709.834 8  17995016.019    17995018.983       -1125.493
      -865.773
 -15446147.895 8 -12131339.045 8  18026300.272    18026302.535        1779.326
      1384.860
  -7168822.309 8  -5748098.719 7  18114134.970    18114137.142        -374.372
      -270.759
 -26265177.503 9  13648776.295 7  19545380.417    19545383.078        2620.677
      2034.728
 88  3 24  5  7  2.0800000  0  4G 6G 9G11G13
   2115953.399 8  -9813169.061 7  18001498.608    18001499.591       -1137.255
      -891.342
 -15498969.000 8 -12172498.335 8  18016248.514    18016250.094        1772.061
      1371.699
  -7157433.593 8  -5739224.386 7  18116301.646    18116304.431        -386.828
      -299.989
 -26343379.907 8  13587839.396 8  19530498.771    19530502.233        2605.860
      2020.580
 88  3 24  5  7 32.0800000  0  4G 6G 9G11G13
   2150579.672 8  -9786187.571 6  18008087.209    18008088.741       -1157.805
      -887.912
 -15551322.740 8 -12213293.447 8  18006284.673    18006287.836        1721.951
      1351.212
  -7145584.537 8  -5729991.352 8  18118555.304    18118558.666        -391.964
      -302.332
 -26421177.137 8  13527218.201 7  19515694.657    19515698.492        2586.275
      2008.015
 88  3 24  5  8  2.0800000  0  4G 6G 9G11G13
   2185770.668 8  -9758766.037 9  18014783.972    18014786.050       -1194.359
      -933.192
 -15603207.695 8 -12253723.285 8  17996412.923    17996414.739        1714.806
      1338.095
  -7133277.554 8  -5720401.483 8  18120898.995    18120901.947        -406.262
      -321.483
 -26498568.889 8  13466912.961 8  19500966.517    19500971.012        2569.617
      1999.813
 88  3 24  5  8 32.0800000  0  4G 6G 9G11G13
   2221526.801 8  -9730904.129 8  18021589.238    18021589.599       -1210.683
      -927.271
 -15654620.792 8 -12293785.421 8  17986628.578    17986630.902        1708.721
      1338.375
  -7120513.932 8  -5710455.797 8  18123327.152    18123328.357        -430.536
      -319.991
 -26575554.238 8  13406924.407 8  19486317.713    19486320.609        2555.414
      1999.969
 88  3 24  5  9  2.0800000  0  4G 6G 9G11G13
   2257847.892 8  -9702601.993 7  18028500.495    18028501.213       -1228.051
      -959.328
 -15705559.424 8 -12333477.854 8  17976935.354    17976937.986        1694.152
      1301.682
  -7107295.179 9  -5700155.445 8  18125842.798    18125845.497        -436.652
      -358.517
 -26652132.374 8  13347253.138 7  19471746.425    19471747.589        2543.995
      1991.331
 88  3 24  5  9 32.0800000  0  4G 6G 9G11G13
   2294734.312 8  -9673859.342 7  18035519.055    18035521.080       -1245.937
      -963.404
 -15756020.628 9 -12372798.278 8  17967333.017    17967334.750        1680.380
      1304.814
  -7093623.111 8  -5689501.891 7  18128444.064    18128446.982        -472.839
      -365.955
 -26728301.636 9  13287900.491 8  19457250.461    19457253.869        2538.230
      1978.935
 88  3 24  5 10  2.0800000  0  4G 6G 9G11G13
   2332185.892 8  -9644676.293 8  18042645.145    18042647.043       -1247.660
      -982.890
 -15806001.664 8 -12411744.543 9  17957821.803    17957824.241        1658.092
      1283.476
  -7079499.455 7  -5678496.435 8  18131131.989    18131134.750        -460.846
      -374.169
 -26804061.247 8  13228867.048 7  19442833.597    19442836.308        2514.027
      1973.914
 88  3 24  5 10 32.0800000  0  4G 6G 9G11G13
   2370203.085 8  -9615052.527 8  18049881.369    18049883.347       -1285.426
      -982.679
 -15855499.516 7 -12450314.295 8  17948402.940    17948404.993        1650.947
      1292.604
  -7064925.346 9  -5667139.982 7  18133905.469    18133908.755        -502.703
      -390.014
 -26879409.200 8  13170154.391 8  19428496.186    19428498.017        2518.541
      1955.310
 88  3 24  5 11  2.0800000  0  4G 6G 9G11G13
   2408785.791 8  -9584988.084 7  18057222.871    18057223.162       -1300.378
     -1008.615
 -15904511.746 8 -12488505.627 9  17939076.419    17939078.794        1630.126
      1266.158
  -7049902.890 7  -5655434.159 8  18136764.163    18136767.260        -513.477
      -382.794
 -26954344.846 8  13111762.993 8  19414234.826    19414238.789        2498.222
      1935.904
 88  3 24  5 11 32.0800000  0  4G 6G 9G11G13
   2447933.501 8  -9554483.405 7  18064673.537    18064675.398       -1316.774
     -1015.413
 -15953035.883 8 -12526316.647 8  17929841.733    17929845.099        1619.727
      1255.961
  -7034433.957 7  -5643380.440 8  18139708.650    18139710.665        -514.354
      -396.520
 -27028867.641 8  13053693.333 7  19400055.054    19400057.308        2474.961
      1947.487
 88  3 24  5 12  2.0800000  0  4G 6G 9G11G13
   2487645.982 9  -9523538.625 8  18072228.805    18072230.669       -1326.829
     -1034.465
 -16001069.411 9 -12563745.348 8  17920701.544    17920703.830        1603.476
      1235.536
  -7018520.021 7  -5630979.961 8  18142736.638    18142738.780        -537.185
      -425.495
 -27102976.638 7  12995946.074 8  19385951.793    19385955.114        2464.363
      1918.096
 88  3 24  5 12 32.0800000  0  4G 6G 9G11G13
   2527923.635 9  -9492153.448 8  18079894.988    18079895.527       -1362.730
     -1047.911
 -16048609.497 8 -12600789.575 7  17911654.837    17911656.674        1577.208
      1221.338
  -7002162.837 8  -5618234.095 8  18145849.096    18145851.466        -538.413
      -421.817
 -27176670.186 8  12938522.546 8  19371928.705    19371931.082        2463.327
      1915.008
 88  3 24  5 13  2.0800000  0  4G 6G 9G11G13
   2568766.293 8  -9460328.013 7  18087665.368    18087667.410       -1361.390
     -1066.838
 -16095653.271 9 -12637447.047 8  17902703.041    17902705.460        1562.471
      1230.056
  -6985363.605 8  -5605143.778 7  18149045.545    18149047.654        -564.018
      -451.556
 -27249947.673 8  12881423.222 8  19357985.151    19357987.524        2450.273
      1892.949
 88  3 24  5 13 32.0800000  0  4G 6G 9G11G13
   2610172.521 8  -9428063.441 8  18095544.981    18095547.747       -1387.833
     -1085.343
 -16142199.571 9 -12673716.900 8  17893845.684    17893846.713        1545.685
      1206.562
  -6968125.790 8  -5591711.720 8  18152326.498    18152328.351        -586.992
      -448.952
 -27322809.540 8  12824647.756 8  19344119.013    19344122.638        2414.500
      1888.816
 88  3 24  5 14  2.0800000  0  4G 6G 9G11G13
   2652143.953 9  -9395358.439 8  18103532.742    18103535.066       -1418.805
     -1077.128
 -16188243.653 8 -12709595.402 8  17885083.825    17885086.216        1520.383
      1181.644
  -6950449.397 8  -5577937.904 9  18155689.439    18155692.195        -589.066
      -459.224
 -27395252.733 8  12768198.541 8  19330333.624    19330337.376        2410.138
      1879.204
 88  3 24  5 14 32.0800000  0  4G 6G 9G11G13
   2694682.736 9  -9362211.349 8  18111627.187    18111629.445       -1422.019
     -1107.880
 -16233780.726 8 -12745078.835 7  17876418.172    17876420.085        1507.839
      1178.270
  -6932333.887 9  -5563821.906 8  18159137.390    18159141.032        -624.217
      -487.521
 -27467274.027 7  12712078.081 7  19316628.156    19316631.645        2418.072
      1871.989
 88  3 24  5 15  2.0800000  0  4G 6G 9G11G13
   2737786.634 8  -9328623.906 8  18119829.204    18119831.432       -1442.473
     -1129.101
 -16278810.307 8 -12780166.817 8  17867849.852    17867851.811        1479.203
      1166.974
  -6913782.850 8  -5549366.555 8  18162667.147    18162669.496        -635.580
      -489.795
 -27538874.543 8  12656285.496 9  19303003.924    19303006.646        2389.739
      1866.565
 88  3 24  5 15 32.0800000  0  4G 6G 9G11G13
   2781453.208 8  -9294598.031 8  18128138.494    18128140.787       -1478.454
     -1134.190
 -16323331.803 8 -12814858.896 9  17859377.565    17859379.492        1463.263
      1159.032
  -6894800.005 9  -5534574.722 8  18166279.496    18166282.199        -639.719
      -497.668
 -27610055.447 8  12600819.882 9  19289457.599    19289461.309        2362.100
      1846.532
 88  3 24  5 16  2.0800000  0  4G 6G 9G11G13
   2825681.294 9  -9260134.592 8  18136555.260    18136556.980       -1476.572
     -1152.993
 -16367343.462 8 -12849153.712 8  17851002.406    17851003.850        1459.873
      1137.744
  -6875388.134 8  -5519448.576 8  18169973.300    18169976.509        -668.450
      -515.061
 -27680816.497 9  12545681.432 8  19275992.862    19275995.022        2356.438
      1825.473
 88  3 24  5 16 32.0800000  0  4G 6G 9G11G13
   2870472.613 8  -9225232.280 8  18145079.608    18145080.140       -1494.291
     -1168.198
 -16410840.878 7 -12883047.786 8  17842724.369    17842726.845        1430.831
      1112.597
  -6855547.119 8  -5503988.046 9  18173748.730    18173752.859        -676.186
      -516.769
 -27751154.779 8  12490872.404 8  19262607.538    19262611.073        2339.126
      1819.005
 88  3 24  5 17  2.0800000  0  4G 6G 9G11G13
   2915826.704 9  -9189891.446 8  18153709.436    18153712.038       -1513.900
     -1177.817
 -16453821.507 7 -12916539.167 8  17834546.565    17834547.409        1422.912
      1105.414
  -6835279.036 9  -5488194.727 9  18177605.496    18177608.038        -669.678
      -531.571
 -27821070.036 8  12436393.010 8  19249304.599    19249306.685        2345.282
      1809.951
 88  3 24  5 17 32.0800000  0  4G 6G 9G11G13
   2961743.455 7  -9154112.180 9  18162447.499    18162448.825       -1548.979
     -1191.617
 -16496282.777 8 -12949625.866 8  17826465.931    17826467.219        1398.726
      1102.443
  -6814585.111 8  -5472069.581 9  18181544.621    18181546.671        -689.702
      -540.220
 -27890560.770 8  12382244.416 8  19236080.554    19236082.919        2318.401
      1810.175
 88  3 24  5 18  2.0800000  0  4G 6G 9G11G13
   3008222.485 8  -9117894.773 7  18171291.218    18171293.816       -1542.807
     -1213.707
 -16538222.246 8 -12982305.969 7  17818484.287    17818486.670        1398.016
      1077.029
  -6793467.622 8  -5455614.389 7  18185561.318    18185565.486        -716.129
      -551.144
 -27959626.264 8  12328427.149 9  19222936.696    19222938.898        2305.881
      1778.516
 88  3 24  5 18 32.0800000  0  4G 6G 9G11G13
   3055262.278 9  -9081240.393 9  18180243.552    18180245.877       -1587.136
     -1229.782
 -16579638.393 8 -13014578.287 7  17810604.779    17810605.125        1383.104
      1072.257
  -6771929.662 8  -5438831.545 8  18189660.203    18189663.571        -735.020
      -555.854
 -28028267.007 9  12274940.879 8  19209874.404    19209877.994        2287.021
      1768.542
 88  3 24  5 19  2.0800000  0  4G 6G 9G11G13
   3102862.299 7  -9044149.487 8  18189300.104    18189303.734       -1583.021
     -1239.557
 -16620528.781 8 -13046440.938 8  17802822.650    17802824.005        1353.711
      1058.866
  -6749972.643 8  -5421722.183 9  18193839.198    18193841.810        -742.277
      -569.015
 -28096482.169 8  12221786.239 8  19196893.258    19196897.340        2264.000
      1764.305
 88  3 24  5 19 32.0800000  0  4G 6G 9G11G13
   3151022.214 8  -9006622.299 8  18198465.629    18198467.155       -1621.067
     -1248.529
 -16660890.774 7 -13077891.853 8  17795142.446    17795143.141        1326.239
      1039.610
  -6727598.609 8  -5404287.859 8  18198097.265    18198099.413        -770.084
      -583.524
 -28164271.183 8  12168963.634 8  19183994.424    19183997.126        2263.569
      1744.178
 88  3 24  5 20  2.0800000  0  4G 6G 9G11G13
   3199742.321 8  -8968658.602 8  18207736.761    18207738.148       -1632.518
     -1268.227
 -16700721.301 8 -13108928.620 7  17787562.219    17787563.336        1314.254
      1020.869
  -6704808.968 8  -5386529.684 9  18202433.696    18202436.180        -754.007
      -595.560
 -28231632.605 8  12116474.242 8  19171176.077    19171178.854        2244.941
      1742.625
 88  3 24  5 20 32.0800000  0  4G 6G 9G11G13
   3249021.830 8  -8930258.999 8  18217114.050    18217115.241       -1636.322
     -1277.486
 -16740017.898 7 -13139549.342 7  17780084.575    17780086.679        1318.592
      1024.684
  -6681605.310 8  -5368448.900 8  18206849.394    18206851.570        -792.109
      -602.855
 -28298565.041 8  12064319.124 7  19158440.222    19158441.945        2217.987
      1737.815
 88  3 24  5 21  2.0800000  0  4G 6G 9G11G13
   3298859.576 8  -8891424.415 8  18226598.137    18226599.797       -1671.904
     -1291.777
 -16778779.263 7 -13169752.999 8  17772709.161    17772710.567        1277.516
       988.831
  -6657990.329 8  -5350047.621 8  18211342.046    18211345.469        -799.740
      -616.035
 -28365069.007 8  12012497.873 8  19145783.402    19145786.249        2218.920
      1720.740
 88  3 24  5 21 32.0800000  0  4G 6G 9G11G13
   3349254.047 7  -8852156.034 8  18236187.221    18236190.280       -1673.642
     -1311.009
 -16817003.542 9 -13199538.138 8  17765433.860    17765436.651        1252.987
       987.930
  -6633966.978 9  -5331328.131 8  18215913.829    18215916.414        -795.649
      -628.394
 -28431145.095 8  11961010.026 6  19133210.731    19133213.292        2213.937
      1711.003
 88  3 24  5 22  2.0800000  0  4G 6G 9G11G13
   3400206.893 8  -8812452.530 9  18245883.723    18245886.164       -1718.761
     -1325.611
 -16854686.208 7 -13228901.246 8  17758263.054    17758265.342        1234.662
       978.404
  -6609534.812 8  -5312290.080 8  18220563.581    18220565.702        -818.887
      -631.420
 -28496789.870 8  11909858.271 8  19120716.921    19120720.929        2180.644
      1698.905
 88  3 24  5 22 32.0800000  0  4G 6G 9G11G13
   3451717.571 7  -8772314.359 7  18255686.044    18255688.142       -1728.625
     -1331.459
 -16891824.951 8 -13257840.531 8  17751196.012    17751199.011        1232.221
       963.646
  -6584696.013 9  -5292935.149 9  18225290.366    18225293.093        -823.759
      -652.795
 -28562002.979 8  11859042.876 8  19108308.280    19108310.659        2172.908
      1692.144
 88  3 24  5 23  2.0800000  0  4G 6G 9G11G13
   3503783.499 8  -8731743.511 8  18265593.024    18265595.490       -1734.303
     -1350.025
 -16928419.230 8 -13286355.551 8  17744232.053    17744234.403        1219.359
       960.005
  -6559454.275 9  -5273266.259 7  18230093.914    18230096.149        -852.722
      -647.949
 -28626785.315 9  11808563.157 7  19095981.011    19095983.885        2168.491
      1674.783
 88  3 24  5 23 32.0800000  0  4G 6G 9G11G13
   3556407.149 7  -8690738.098 8  18275607.297    18275608.718       -1764.023
     -1377.260
 -16964465.164 7 -13314443.298 8  17737372.699    17737375.581        1188.713
       917.695
  -6533809.946 9  -5253283.670 8  18234974.027    18234976.541        -857.459
      -677.613
 -28691135.050 8  11758420.515 8  19083735.328    19083738.547        2143.946
      1659.602
 88  3 24  5 24  2.0800000  0  4G 6G 9G11G13
   3609585.336 8  -8649300.567 7  18285727.515    18285729.729       -1767.915
     -1384.760
 -16999959.268 8 -13342101.051 8  17730619.417    17730621.407        1193.761
       913.725
  -6507763.812 8  -5232987.975 8  18239930.130    18239932.390        -866.765
      -681.317
 -28755050.439 9  11708616.341 7  19071572.227    19071574.778        2110.445
      1649.934
 88  3 24  5 24 32.0800000  0  4G 6G 9G11G13
   3663318.117 8  -8607430.891 8  18295952.875    18295954.512       -1799.772
     -1403.563
 -17034901.263 8 -13369328.571 8  17723970.158    17723972.154        1155.492
       907.113
  -6481319.759 9  -5212382.221 8  18244962.137    18244965.404        -881.366
      -690.687
 -28818532.923 8  11659149.492 8  19059492.315    19059495.292        2125.150
      1651.512
 88  3 24  5 25  2.0800000  0  4G 6G 9G11G13
   3717602.149 8  -8565131.653 8  18306282.612    18306284.697       -1820.944
     -1420.148
 -17069290.933 8 -13396125.706 8  17717426.282    17717427.404        1150.014
       887.291
  -6454481.901 8  -5191469.597 9  18250069.831    18250071.754        -891.892
      -708.446
 -28881583.918 9  11610018.861 8  19047494.681    19047496.589        2090.789
      1635.897
 88  3 24  5 25 32.0800000  0  4G 6G 9G11G13
   3772438.331 8  -8522402.175 8  18316717.538    18316719.398       -1851.669
     -1415.040
 -17103124.186 7 -13422489.281 7  17710987.821    17710989.306        1127.215
       878.393
  -6427250.649 8  -5170250.446 8  18255251.457    18255253.446        -906.884
      -712.690
 -28944201.002 7  11561226.355 8  19035578.178    19035580.941        2083.420
      1619.443
 88  3 24  5 26  2.0800000  0  4G 6G 9G11G13
   3827827.073 8  -8479242.139 7  18327258.018    18327259.329       -1845.832
     -1450.086
 -17136397.667 8 -13448416.672 8  17704656.048    17704658.077        1095.246
       854.687
  -6399626.859 9  -5148725.407 8  18260507.634    18260510.891        -923.741
      -720.246
 -29006382.586 8  11512773.188 8  19023745.277    19023748.826        2073.253
      1606.816
 88  3 24  5 26 32.0800000  0  4G 6G 9G11G13
   3883767.232 8  -8435652.407 8  18337903.123    18337903.468       -1877.754
     -1445.053
 -17169109.571 7 -13473906.462 8  17698431.176    17698432.389        1096.761
       839.700
  -6371612.696 9  -5126896.185 8  18265838.186    18265841.138        -937.920
      -724.875
 -29068128.479 9  11464659.541 8  19011995.647    19011998.997        2041.794
      1592.506
 88  3 24  5 27  2.0800000  0  4G 6G 9G11G13
   3940258.262 8  -8391633.437 8  18348652.860    18348655.206       -1891.629
     -1470.598
 -17201257.204 8 -13498956.568 8  17692314.832    17692315.428        1051.116
       821.997
  -6343209.857 8  -5104764.089 9  18271243.098    18271245.543        -952.840
      -749.799
 -29129438.045 8  11416885.869 8  19000328.820    19000331.473        2033.620
      1592.431
 88  3 24  5 27 32.0800000  0  4G 6G 9G11G13
   3997298.491 8  -8347186.519 7  18359506.558    18359507.890       -1915.416
     -1479.800
 -17232839.175 8 -13523565.899 7  17686304.292    17686306.441        1043.253
       806.680
  -6314421.062 8  -5082331.264 8  18276721.182    18276724.334        -950.424
      -743.181
 -29190311.305 8  11369452.173 8  18988745.133    18988748.283        2037.233
      1581.632
 88  3 24  5 28  2.0800000  0  4G 6G 9G11G13
   4054886.201 9  -8302312.985 8  18370465.163    18370468.096       -1928.582
     -1496.957
 -17263854.512 9 -13547733.692 8  17680401.757    17680404.279        1018.868
       800.683
  -6285249.184 9  -5059599.936 8  18282272.813    18282275.304        -967.178
      -769.478
 -29250748.795 9  11322358.043 9  18977244.336    18977247.544        1991.899
      1555.559
 88  3 24  5 28 32.0800000  0  4G 6G 9G11G13
   4113020.753 8  -8257013.355 8  18381528.294    18381529.851       -1945.910
     -1517.543
 -17294300.541 9 -13571457.873 8  17674609.103    17674609.582        1007.305
       789.579
  -6255696.176 8  -5036571.607 8  18287896.663    18287899.899        -980.830
      -787.199
 -29310749.667 7  11275604.143 8  18965826.248    18965828.772        1982.664
      1555.434
 88  3 24  5 29  2.0800000  0  4G 6G 9G11G13
   4171701.510 8  -8211288.102 8  18392694.057    18392697.389       -1962.409
     -1526.683
 -17324174.834 8 -13594736.549 7  17668923.875    17668925.244         988.924
       773.927
  -6225763.854 8  -5013247.705 9  18293593.270    18293596.238        -994.905
      -786.559
 -29370313.391 7  11229190.876 8  18954492.066    18954495.193        1966.444
      1549.749
 88  3 24  5 29 32.0800000  0  4G 6G 9G11G13
   4230927.934 8  -8165137.650 7  18403964.841    18403966.270       -1982.760
     -1540.733
 -17353474.907 8 -13617567.766 8  17663347.191    17663348.979         946.875
       752.825
  -6195453.737 9  -4989629.440 8  18299360.609    18299363.084       -1018.397
      -789.704
 -29429438.848 8  11183119.105 8  18943240.729    18943243.777        1970.743
      1527.715
 88  3 24  5 30  2.0800000  0  4G 6G 9G11G13
   4290700.080 8  -8118561.985 7  18415338.741    18415341.154       -1985.519
     -1554.117
 -17382197.703 8 -13639949.168 8  17657882.091    17657883.829         943.781
       741.435
  -6164766.927 9  -4965717.629 8  18305200.517    18305203.474       -1023.309
      -797.912
 -29488124.985 9  11137389.674 8  18932073.027    18932076.536        1948.813
      1518.114
 88  3 24  5 30 32.0800000  0  4G 6G 9G11G13
   4351015.238 8  -8071563.166 8  18426815.720    18426817.680       -2017.688
     -1564.600
 -17410342.847 7 -13661880.451 8  17652525.414    17652528.450         923.494
       714.778
  -6133706.975 9  -4941515.060 8  18311110.337    18311113.358       -1037.855
      -803.765
 -29546373.282 8  11092001.414 8  18920988.923    18920991.737        1949.937
      1499.989
 88  3 24  5 31  2.0800000  0  4G 6G 9G11G13
   4411872.268 8  -8024142.125 8  18438396.883    18438399.668       -2030.622
     -1588.610
 -17437908.339 8 -13683360.061 8  17647280.501    17647282.707         923.375
       712.323
  -6102276.494 9  -4917023.770 8  18317090.447    18317094.716       -1049.760
      -831.143
 -29604183.474 8  11046954.528 8  18909987.868    18909990.558        1921.509
      1487.884
 88  3 24  5 31 32.0800000  0  4G 6G 9G11G13
   4473269.980 9  -7976299.765 8  18450080.904    18450082.314       -2055.486
     -1593.550
 -17464892.282 8 -13704386.516 7  17642145.173    17642146.461         877.785
       681.273
  -6070477.377 8  -4892245.225 8  18323142.853    18323144.738       -1063.093
      -815.180
 -29661555.147 8  11002249.345 8  18899070.244    18899073.152        1896.956
      1477.371
 88  3 24  5 32  2.0800000  0  4G 6G 9G11G13
   4535208.006 8  -7928036.389 8  18461867.918    18461869.978       -2081.020
     -1616.162
 -17491292.092 9 -13724957.798 7  17637122.429    17637123.418         878.112
       663.527
  -6038311.110 8  -4867180.617 8  18329262.791    18329266.175       -1071.961
      -827.539
 -29718487.572 8  10957886.439 8  18888236.492    18888239.228        1897.769
      1481.994
 88  3 24  5 32 32.0800000  0  4G 6G 9G11G13
   4597685.653 8  -7879352.521 7  18473756.150    18473758.864       -2096.020
     -1640.079
 -17517105.281 8 -13745071.967 9  17632210.541    17632211.270         848.400
       674.848
  -6005779.089 9  -4841830.981 8  18335453.516    18335457.025       -1087.176
      -851.506
 -29774980.173 9  10913866.246 7  18877485.796    18877488.947        1878.870
      1462.470
 88  3 24  5 33  2.0800000  0  4G 6G 9G11G13
   4660700.151 8  -7830250.332 7  18485748.463    18485749.871       -2114.672
     -1638.357
 -17542331.639 8 -13764728.879 9  17627409.314    17627410.690         813.990
       647.228
  -5972885.305 8  -4816199.455 8  18341713.307    18341716.047       -1108.061
      -855.054
 -29831033.758 8  10870188.156 7  18866819.638    18866821.808        1861.534
      1431.463
 88  3 24  5 33 32.0800000  0  4G 6G 9G11G13
   4724252.260 8  -7780729.234 7  18497842.050    18497843.903       -2117.415
     -1668.817
 -17566967.103 8 -13783925.350 7  17622721.310    17622722.888         799.820
       630.202
  -5939630.027 9  -4790286.261 8  18348041.727    18348044.825       -1118.587
      -861.697
 -29886646.513 8  10826853.566 8  18856235.863    18856239.756        1854.955
      1443.481
 88  3 24  5 34  2.0800000  0  4G 6G 9G11G13
   4788341.543 9  -7730789.529 8  18510038.036    18510039.130       -2136.769
     -1682.879
 -17591009.214 8 -13802659.451 7  17618146.663    17618148.666         793.496
       615.593
  -5906014.665 9  -4764092.455 8  18354438.369    18354441.148       -1124.703
      -872.384
 -29941817.102 9  10783863.512 7  18845738.510    18845741.203        1826.112
      1421.440
 88  3 24  5 34 32.0800000  0  4G 6G 9G11G13
   4852963.875 8  -7680434.488 8  18522335.008    18522336.555       -2172.151
     -1699.284
 -17614458.934 8 -13820931.965 8  17613683.763    17613685.189         780.498
       611.064
  -5872044.014 9  -4737621.815 8  18360903.431    18360905.284       -1145.437
      -883.799
 -29996548.708 8  10741215.522 7  18835322.854    18835325.729        1820.059
      1406.273
 88  3 24  5 35  2.0800000  0  4G 6G 9G11G13
   4918117.110 9  -7629665.754 7  18534734.122    18534734.874       -2190.005
     -1696.978
 -17637315.273 8 -13838742.089 7  17609334.833    17609336.996         774.039
       578.578
  -5837721.291 9  -4710876.840 8  18367433.899    18367437.836       -1157.119
      -885.812
 -30050841.970 8  10698909.104 8  18824991.939    18824993.539        1810.131
      1393.174
 88  3 24  5 35 32.0800000  0  4G 6G 9G11G13
   4983803.536 9  -7578481.544 7  18547233.195    18547235.001       -2187.462
     -1711.599
 -17659573.000 8 -13856085.789 8  17605098.249    17605101.609         732.564
       569.189
  -5803045.276 8  -4683856.557 9  18374032.711    18374035.451       -1154.631
      -899.420
 -30104692.994 9  10656947.302 8  18814743.662    18814746.154        1780.578
      1391.596
 88  3 24  5 36  2.0800000  0  4G 6G 9G11G13
   5050022.467 8  -7526882.387 8  18559833.882    18559835.563       -2199.973
     -1731.664
 -17681229.757 8 -13872961.190 8  17600978.351    17600980.509         705.723
       550.634
  -5768017.303 9  -4656562.040 9  18380698.648    18380701.686       -1172.198
      -914.806
 -30158101.326 8  10615330.426 8  18804580.624    18804583.612        1783.026
      1374.067
 88  3 24  5 36 32.0800000  0  4G 6G 9G11G13
   5116769.904 8  -7474871.414 8  18572535.339    18572537.748       -2223.825
     -1730.489
 -17702286.387 8 -13889368.962 8  17596970.873    17596972.639         695.045
       554.207
  -5732642.185 9  -4628997.002 8  18387430.604    18387432.415       -1182.007
      -913.035
 -30211069.362 8  10574056.650 7  18794501.988    18794503.118        1769.358
      1368.362
 88  3 24  5 37  2.0800000  0  4G 6G 9G11G13
   5184044.391 9  -7422449.754 8  18585338.702    18585339.067       -2261.711
     -1752.735
 -17722741.208 8 -13905307.781 7  17593078.924    17593080.215         676.991
       514.974
  -5696922.044 8  -4601163.121 9  18394228.169    18394229.378       -1188.267
      -918.751
 -30263596.919 9  10533126.106 8  18784505.326    18784508.362        1743.968
      1353.934
 88  3 24  5 37 32.0800000  0  4G 6G 9G11G13
   5251846.110 9  -7369617.265 9  18598239.219    18598242.131       -2277.213
     -1766.293
 -17742590.780 8 -13920774.989 7  17589301.110    17589303.455         661.098
       504.851
  -5660857.763 8  -4573061.092 8  18401089.244    18401092.941       -1214.048
      -932.776
 -30315682.764 9  10492539.753 8  18774594.230    18774596.352        1728.458
      1349.845
 88  3 24  5 38  2.0800000  0  4G 6G 9G11G13
   5320173.759 8  -7316374.953 8  18611242.088    18611244.580       -2283.561
     -1788.669
 -17761833.706 7 -13935769.474 7  17585639.766    17585641.685         632.374
       497.308
  -5624451.429 8  -4544692.522 8  18408018.430    18408020.395       -1217.357
      -935.311
 -30367326.530 9  10452297.890 8  18764766.583    18764768.766        1698.283
      1340.922
 88  3 24  5 38 32.0800000  0  4G 6G 9G11G13
   5389025.189 8  -7262724.496 8  18624344.433    18624346.958       -2297.181
     -1779.311
 -17780468.936 7 -13950290.441 8  17582093.454    17582094.238         612.574
       485.595
  -5587705.846 8  -4516059.589 8  18415010.631    18415014.368       -1239.207
      -951.063
 -30418529.278 8  10412399.661 8  18755022.682    18755024.906        1718.530
      1304.584
 88  3 24  5 39  2.0800000  0  4G 6G 9G11G13
   5458399.182 8  -7208666.866 8  18637545.407    18637547.477       -2335.529
     -1805.806
 -17798494.332 7 -13964336.200 8  17578662.849    17578665.349         579.935
       460.746
  -5550623.070 8  -4487163.913 7  18422067.172    18422069.935       -1242.907
      -967.368
 -30469290.489 8  10372845.480 7  18745363.035    18745364.401        1678.793
      1326.283
 88  3 24  5 39 32.0800000  0  4G 6G 9G11G13
   5528294.368 8  -7154203.100 8  18650846.083    18650847.646       -2329.756
     -1819.272
 -17815908.536 8 -13977905.714 7  17575349.787    17575350.872         576.793
       440.172
  -5513205.293 8  -4458007.201 8  18429187.226    18429190.112       -1248.593
      -983.251
 -30519609.973 9  10333635.508 8  18735787.670    18735789.992        1668.722
      1305.454
 88  3 24  5 40  2.0800000  0  4G 6G 9G11G13
   5598708.374 9  -7099335.065 8  18664246.088    18664247.542       -2361.542
     -1827.474
 -17832710.610 7 -13990998.262 7  17572151.809    17572153.806         556.634
       432.175
  -5475455.448 9  -4428591.739 8  18436371.242    18436374.181       -1278.234
      -983.599
 -30569488.546 8  10294769.103 8  18726294.549    18726298.813        1666.959
      1291.566
 88  3 24  5 40 32.0800000  0  4G 6G 9G11G13
   5669641.287 8  -7044062.686 8  18677743.793    18677745.794       -2368.814
     -1846.215
 -17848897.505 8 -14003611.427 7  17569071.813    17569073.666         534.457
       414.540
  -5437374.478 8  -4398918.261 8  18443618.271    18443619.967       -1274.661
      -999.611
 -30618925.468 8  10256246.843 7  18716889.020    18716891.792        1661.768
      1271.278
 88  3 24  5 41  2.0800000  0  4G 6G 9G11G13
   5741091.328 9  -6988387.345 8  18691339.937    18691341.981       -2385.648
     -1853.336
 -17864467.925 7 -14015744.224 7  17566107.587    17566111.440         530.335
       398.602
  -5398964.245 8  -4368988.186 8  18450927.513    18450929.849       -1289.270
     -1007.571
 -30667920.455 9  10218068.958 7  18707565.126    18707567.291        1627.151
      1271.986
 88  3 24  5 41 32.0800000  0  4G 6G 9G11G13
   5813057.646 8  -6932309.709 9  18705034.348    18705036.297       -2411.748
     -1862.029
 -17879419.736 7 -14027394.997 8  17563263.285    17563265.687         501.188
       383.167
  -5360226.557 8  -4338802.989 8  18458298.050    18458301.548       -1298.456
     -1016.867
 -30716472.937 9  10180235.869 8  18698326.316    18698328.262        1613.141
      1250.866
 88  3 24  5 42  2.0800000  0  4G 6G 9G11G13
   5885537.139 8  -6875832.221 8  18718827.375    18718828.694       -2441.230
     -1884.175
 -17893752.828 8 -14038563.639 7  17560535.486    17560538.254         462.417
       373.411
  -5321165.225 9  -4308365.588 8  18465731.875    18465734.853       -1314.182
     -1023.448
 -30764584.857 9  10142746.081 8  18689169.870    18689173.407        1605.214
      1248.076
 88  3 24  5 42 32.0800000  0  4G 6G 9G11G13
   5958526.411 8  -6818957.476 8  18732716.111    18732719.178       -2452.473
     -1887.710
 -17907467.673 8 -14049250.545 9  17557925.973    17557928.290         450.160
       340.789
  -5281784.415 8  -4277679.241 8  18473225.552    18473228.248       -1325.761
     -1022.081
 -30812257.626 8  10105598.487 8  18680099.695    18680101.567        1587.439
      1223.917
 88  3 24  5 43  2.0800000  0  4G 6G 9G11G13
   6032025.987 9  -6761685.096 8  18746702.606    18746706.047       -2439.962
     -1916.095
 -17920560.609 7 -14059452.837 7  17555433.951    17555436.331         413.598
       346.822
  -5242083.912 8  -4246743.782 8  18480780.342    18480783.563       -1326.064
     -1031.780
 -30859489.225 8  10068794.666 7  18671111.592    18671113.329        1565.031
      1229.018
 88  3 24  5 43 32.0800000  0  4G 6G 9G11G13
   6106036.598 8  -6704014.514 9  18760786.868    18760789.196       -2460.910
     -1924.614
 -17933027.782 7 -14069167.519 7  17553061.943    17553064.177         419.021
       321.079
  -5202063.723 8  -4215559.206 8  18488396.908    18488399.007       -1348.918
     -1044.860
 -30906278.117 8  10032335.809 8  18662206.831    18662209.279        1559.218
      1207.960
 88  3 24  5 44  2.0800000  0  4G 6G 9G11G13
   6180555.272 9  -6645948.034 8  18774966.434    18774968.874       -2494.275
     -1954.204
 -17944869.114 6 -14078394.541 6  17550808.043    17550810.403         396.836
       292.433
  -5161727.315 8  -4184128.240 8  18496072.482    18496074.704       -1340.673
     -1046.426
 -30952625.427 9   9996221.035 8  18653387.679    18653391.114        1530.311
      1186.901
 88  3 24  5 44 32.0800000  0  4G 6G 9G11G13
   6255578.239 8  -6587488.593 8  18789243.397    18789246.448       -2507.983
     -1957.410
 -17956085.319 6 -14087134.435 6  17548674.998    17548675.902         378.272
       288.226
  -5121079.073 8  -4152454.297 8  18503806.241    18503808.962       -1366.454
     -1063.980
 -30998533.273 9   9960448.705 8  18644651.381    18644654.893        1521.547
      1197.309
 88  3 24  5 45  2.0800000  0  4G 6G 9G11G13
   6331104.607 8  -6528636.904 8  18803616.109    18803619.019       -2526.755
     -1968.359
 -17966674.415 8 -14095385.689 6  17546659.418    17546660.317         352.514
       275.022
  -5080120.561 8  -4120538.567 9  18511601.364    18511604.699       -1367.132
     -1078.539
 -31044000.630 7   9925019.618 8  18636000.322    18636002.028        1499.235
      1171.603
 88  3 24  5 45 32.0800000  0  4G 6G 9G11G13
   6407133.370 8  -6469393.736 8  18818084.694    18818086.405       -2543.644
     -1993.326
 -17976634.335 6 -14103146.668 7  17544764.549    17544765.805         317.260
       247.122
  -5038853.131 8  -4088382.129 8  18519453.584    18519456.164       -1382.666
     -1079.123
 -31089027.558 9   9889933.724 8  18627430.236    18627434.044        1496.308
      1161.916
 88  3 24  5 46  2.0800000  0  4G 6G 9G11G13
   6483663.092 9  -6409760.213 8  18832647.470    18832648.911       -2571.363
     -1986.926
 -17985963.492 7 -14110416.152 7  17542987.488    17542991.557         319.461
       232.675
  -4997278.950 8  -4055986.666 8  18527365.753    18527368.220       -1380.058
     -1082.186
 -31133614.656 8   9855190.538 8  18618946.046    18618949.885        1471.907
      1148.767
 88  3 24  5 46 32.0800000  0  4G 6G 9G11G13
   6560692.800 9  -6349737.078 7  18847305.049    18847307.473       -2577.735
     -1999.509
 -17994659.743 7 -14117192.467 7  17541333.729    17541336.485         295.298
       217.675
  -4955399.202 9  -4023353.099 8  18535334.414    18535337.405       -1407.769
     -1095.906
 -31177760.964 8   9820790.843 7  18610545.518    18610547.949        1477.991
      1138.142
 88  3 24  5 47  2.0800000  0  4G 6G 9G11G13
   6638219.922 9  -6289326.357 9  18862057.834    18862060.363       -2580.884
     -2015.745
 -18002722.739 7 -14123475.331 7  17539798.839    17539802.156         254.374
       205.943
  -4913216.809 9  -3990483.710 9  18543361.350    18543364.947       -1411.684
     -1088.493
 -31221467.387 8   9786733.907 7  18602228.132    18602231.521        1461.548
      1124.042
 88  3 24  5 47 32.0800000  0  4G 6G 9G11G13
   6716241.892 8  -6228530.032 8  18876905.278    18876908.062       -2606.171
     -2016.404
 -18010152.135 7 -14129264.479 6  17538385.376    17538388.482         239.741
       188.570
  -4870735.021 9  -3957381.018 9  18551446.277    18551448.405       -1423.718
     -1103.021
 -31264734.749 8   9753019.099 8  18593995.127    18593998.090        1438.287
      1115.989
 88  3 24  5 48  2.0800000  0  4G 6G 9G11G13
   6794755.682 9  -6167350.479 7  18891845.165    18891848.945       -2615.358
     -2046.193
 -18016947.706 6 -14134559.739 7  17537093.962    17537094.599         199.223
       158.750
  -4827956.793 9  -3924047.338 8  18559586.072    18559588.045       -1436.453
     -1099.517
 -31307564.748 8   9719645.099 8  18585844.660    18585847.022        1431.844
      1110.341
 88  3 24  5 48 32.0800000  0  4G 6G 9G11G13
   6873760.733 9  -6105788.124 9  18906880.398    18906881.747       -2642.686
     -2060.050
 -18023107.471 7 -14139359.558 6  17535921.119    17535922.517         193.107
       159.638
  -4784883.770 9  -3890483.942 8  18567782.752    18567786.096       -1442.896
     -1118.779
 -31349956.411 9   9686612.651 8  18577776.271    18577780.491        1413.678
      1090.892
 88  3 24  5 49  2.0800000  0  4G 6G 9G11G13
   6953257.339 8  -6043842.731 9  18922007.024    18922009.971       -2649.695
     -2077.970
 -18028627.552 8 -14143660.927 7  17534870.670    17534872.944         184.638
       145.887
  -4741515.532 9  -3856690.508 8  18576035.752    18576037.533       -1452.074
     -1124.223
 -31391908.192 8   9653922.964 9  18569794.116    18569796.841        1388.854
      1090.873
 88  3 24  5 49 32.0800000  0  4G 6G 9G11G13
   7033242.756 8  -5981516.452 8  18937227.520    18937230.910       -2677.398
     -2082.457
 -18033508.257 7 -14147464.075 7  17533942.530    17533942.486         155.325
       102.720
  -4697855.262 9  -3822669.521 8  18584343.623    18584346.086       -1450.998
     -1128.827
 -31433421.114 8   9621575.250 9  18561894.193    18561897.494        1401.692
      1068.889
 88  3 24  5 50  2.0800000  0  4G 6G 9G11G13
   7113713.548 8  -5918811.968 8  18952541.415    18952543.827       -2687.390
     -2085.787
 -18037749.723 8 -14150769.128 7  17533133.980    17533137.300         146.106
        96.227
  -4653906.980 8  -3788424.105 9  18592706.189    18592709.229       -1463.135
     -1147.257
 -31474496.757 8   9589568.283 8  18554078.046    18554080.519        1378.918
      1059.761
 88  3 24  5 50 32.0800000  0  4G 6G 9G11G13
   7194668.186 8  -5855730.461 7  18967945.910    18967948.793       -2711.935
     -2105.323
 -18041350.713 7 -14153575.094 7  17532449.165    17532451.055         109.081
        81.556
  -4609672.408 8  -3753955.620 8  18601124.306    18601127.095       -1475.415
     -1147.990
 -31515135.469 8   9557901.766 8  18546345.589    18546348.420        1327.116
      1058.711
 88  3 24  5 51  2.0800000  0  4G 6G 9G11G13
   7276105.735 8  -5792272.640 7  18983443.410    18983445.396       -2728.729
     -2126.226
 -18044309.052 7 -14155880.307 6  17531886.244    17531887.756         112.215
        74.012
  -4565152.983 8  -3719265.153 9  18609596.197    18609599.183       -1478.908
     -1160.468
 -31555336.824 7   9526576.060 7  18538695.350    18538698.520        1334.716
      1053.560
 88  3 24  5 51 32.0800000  0  4G 6G 9G11G13
   7358024.182 8  -5728440.098 8  18999032.266    18999035.096       -2749.885
     -2123.269
 -18046624.014 8 -14157684.181 7  17531445.350    17531447.899          60.757
        52.693
  -4520350.660 8  -3684354.256 8  18618121.305    18618124.790       -1488.318
     -1150.345
 -31595101.368 8   9495590.712 7  18531127.004    18531130.629        1319.652
      1032.141
 88  3 24  5 52  2.0800000  0  4G 6G 9G11G13
   7440422.116 7  -5664233.949 8  19014712.034    19014714.131       -2750.156
     -2154.524
 -18048294.083 7 -14158985.543 7  17531128.125    17531129.870          38.165
        30.851
  -4475267.116 8  -3649224.233 8  18626700.891    18626703.943       -1505.957
     -1175.822
 -31634428.676 8   9464946.087 7  18523643.121    18523646.371        1316.774
      1028.182
 88  3 24  5 52 32.0800000  0  4G 6G 9G11G13
   7523295.515 8  -5599657.295 9  19030481.904    19030484.848       -2756.360
     -2153.841
 -18049320.155 7 -14159785.072 6  17530932.074    17530934.518          21.244
        15.957
  -4429906.657 9  -3613878.426 9  18635332.230    18635335.193       -1513.445
     -1178.127
 -31673321.653 8   9434639.898 8  18516241.050    18516246.273        1302.085
      1009.622
 88  3 24  5 53  2.0800000  0  4G 6G 9G11G13
   7606643.508 7  -5534710.827 8  19046343.305    19046345.486       -2789.167
     -2169.313
 -18049700.376 7 -14160081.378 6  17530859.520    17530863.040          13.126
         1.560
  -4384270.528 9  -3578317.797 9  18644017.162    18644019.902       -1532.823
     -1185.161
 -31711779.170 8   9404673.010 8  18508923.338    18508927.449        1271.344
       994.529
 88  3 24  5 53 32.0800000  0  4G 6G 9G11G13
   7690465.326 8  -5469395.136 8  19062293.540    19062296.057       -2802.588
     -2177.820
 -18049432.514 8 -14159872.664 7  17530910.999    17530912.936          -2.201
       -16.572
  -4338359.648 9  -3542543.098 8  18652753.465    18652755.361       -1520.247
     -1205.729
 -31749800.248 8   9375046.215 8  18501688.886    18501689.902        1248.840
       965.709
 88  3 24  5 54  2.0800000  0  4G 6G 9G11G13
   7774757.086 9  -5403713.253 8  19078334.289    19078335.526       -2821.471
     -2189.669
 -18048517.441 8 -14159159.633 7  17531085.860    17531088.253         -29.386
       -26.906
  -4292178.042 9  -3506557.425 8  18661541.553    18661544.259       -1544.338
     -1203.455
 -31787387.673 8   9345757.347 7  18494536.680    18494539.390        1234.997
       970.929
 88  3 24  5 54 32.0800000  0  4G 6G 9G11G13
   7859517.235 8  -5337666.405 8  19094463.661    19094464.678       -2844.573
     -2199.058
 -18046954.256 8 -14157941.571 7  17531383.542    17531384.353         -64.353
       -63.057
  -4245727.647 9  -3470362.308 9  18670380.976    18670383.252       -1552.783
     -1208.836
 -31824541.502 9   9316806.326 8  18487465.717    18487469.668        1237.046
       964.709
 88  3 24  5 55  2.0800000  0  4G 6G 9G11G13
   7944744.023 9  -5271255.940 7  19110681.898    19110683.126       -2843.663
     -2215.289
 -18044741.584 8 -14156217.409 7  17531802.748    17531805.781         -80.501
       -81.624
  -4199010.093 8  -3433959.021 7  18679270.937    18679274.060       -1553.405
     -1214.863
 -31861262.172 9   9288192.830 7  18480478.639    18480480.214        1223.083
       949.671
 88  3 24  5 55 32.0800000  0  4G 6G 9G11G13
   8030435.572 8  -5204483.316 7  19126988.720    19126990.932       -2854.820
     -2237.074
 -18041878.427 7 -14153986.404 7  17532348.757    17532349.918        -107.518
       -80.183
  -4152027.577 8  -3397349.269 8  18688210.863    18688213.979       -1569.042
     -1216.802
 -31897549.997 8   9259916.614 8  18473573.608    18473576.186        1202.190
       935.293
 88  3 24  5 56  2.0800000  0  4G 6G 9G11G13
   8116589.627 8  -5137350.300 8  19143383.380    19143384.444       -2879.333
     -2238.348
 -18038364.145 7 -14151248.010 7  17533017.635    17533019.985        -127.335
      -113.544
  -4104782.202 8  -3360534.702 8  18697201.707    18697204.564       -1571.610
     -1236.301
 -31933405.487 8   9231977.288 8  18466750.242    18466752.723        1189.192
       931.689
 88  3 24  5 56 32.0800000  0  4G 6G 9G11G13
   8203203.393 8  -5069859.074 7  19159864.429    19159866.452       -2890.561
     -2248.203
 -18034198.930 8 -14148002.401 6  17533809.037    17533812.195        -146.792
      -108.163
  -4057276.962 8  -3323517.635 8  18706241.025    18706244.526       -1587.096
     -1230.503
 -31968830.004 8   9204373.770 8  18460009.025    18460011.932        1182.461
       917.341
 88  3 24  5 57  2.0800000  0  4G 6G 9G11G13
   8290275.464 8  -5002010.724 8  19176433.602    19176434.958       -2908.639
     -2292.545
 -18029380.942 7 -14144248.140 7  17534725.993    17534729.282        -163.833
      -127.426
  -4009513.325 8  -3286299.228 8  18715329.975    18715334.053       -1581.706
     -1259.776
 -32003822.830 8   9177106.655 7  18453350.785    18453353.790        1162.773
       899.048
 88  3 24  5 57 32.0800000  0  4G 6G 9G11G13
   8377804.347 8  -4933806.410 8  19193090.932    19193092.254       -2937.258
     -2287.698
 -18023909.435 8 -14139984.636 6  17535769.057    17535769.827        -204.558
      -149.982
  -3961493.007 8  -3248880.801 8  18724468.357    18724471.686       -1599.281
     -1255.041
 -32038384.439 8   9150175.543 8  18446773.624    18446775.329        1136.745
       887.565
 88  3 24  5 58  2.0800000  0  4G 6G 9G11G13
   8465786.917 8  -4865248.572 7  19209833.019    19209834.096       -2931.964
     -2288.015
 -18017784.369 7 -14135211.873 8  17536933.046    17536935.363        -219.446
      -163.280
  -3913218.885 9  -3211264.594 8  18733654.507    18733657.955       -1607.909
     -1267.556
 -32072515.966 8   9123579.555 7  18440278.709    18440280.658        1127.741
       876.504
 88  3 24  5 58 32.0800000  0  4G 6G 9G11G13
   8554221.314 8  -4796338.680 8  19226661.207    19226663.455       -2940.504
     -2301.461
 -18011004.977 7 -14129929.231 8  17538223.692    17538225.605        -236.017
      -174.353
  -3864693.022 8  -3173452.239 8  18742888.846    18742892.596       -1613.635
     -1259.658
 -32106218.064 8   9097318.194 8  18433865.203    18433867.609        1126.753
       873.733
 88  3 24  5 59  2.0800000  0  4G 6G 9G11G13
   8643105.379 8  -4727078.378 6  19243576.389    19243577.583       -2980.511
     -2318.214
 -18003570.361 7 -14124136.047 7  17539638.418    17539641.101        -252.030
      -200.662
  -3815917.537 9  -3135445.363 8  18752171.662    18752172.901       -1640.501
     -1270.532
 -32139491.896 8   9071390.552 7  18427533.831    18427536.672        1104.863
       876.280
 88  3 24  5 59 32.0800000  0  4G 6G 9G11G13
   8732436.818 8  -4657469.478 8  19260574.168    19260575.741       -2992.449
     -2324.931
 -17995480.604 6 -14117832.340 6  17541177.943    17541179.997        -268.002
      -213.481
  -3766894.641 7  -3097245.709 8  18761500.313    18761501.791       -1627.080
     -1271.297
 -32172337.641 7   9045796.481 7  18421283.176    18421285.451        1086.538
       841.029
 88  3 24  6  0  2.0800000  0  4G 6G 9G11G13
   8822214.274 7  -4587513.049 8  19277658.660    19277660.012       -2989.291
     -2341.025
 -17986734.050 7 -14111016.863 7  17542842.454    17542845.735        -299.908
      -238.454
  -3717625.721 8  -3058854.344 8  18770875.348    18770877.049       -1647.877
     -1281.512
 -32204754.999 9   9020536.222 8  18415113.635    18415117.456        1083.851
       838.594
 88  3 24  6  0 32.0800000  0  4G 6G 9G11G13
   8912434.903 8  -4517211.279 8  19294827.620    19294830.493       -3005.838
     -2343.721
 -17977330.667 7 -14103689.563 6  17544631.835    17544632.850        -308.663
      -242.698
  -3668113.715 8  -3020273.559 8  18780296.461    18780299.747       -1634.440
     -1280.412
 -32236745.747 8   8995608.386 6  18409026.981    18409028.651        1077.240
       817.920
 88  3 24  6  1  2.0800000  0  4G 6G 9G11G13
   9003095.941 9  -4446566.348 9  19312078.951    19312081.937       -3027.991
     -2346.679
 -17967270.814 7 -14095850.727 6  17546547.262    17546547.612        -353.998
      -260.991
  -3618361.104 8  -2981505.290 8  18789764.323    18789766.553       -1661.625
     -1291.336
 -32268310.918 8   8971012.147 7  18403020.038    18403023.380        1040.406
       824.992
 88  3 24  6  1 32.0800000  0  4G 6G 9G11G13
   9094195.718 8  -4375579.526 8  19329415.821    19329417.711       -3043.740
     -2379.643
 -17956553.310 7 -14087499.425 7  17548585.565    17548587.539        -353.479
      -285.946
  -3568369.473 9  -2942550.777 8  18799277.735    18799280.317       -1659.192
     -1298.128
 -32299450.259 8   8946747.746 8  18397093.231    18397098.240        1043.708
       804.847
 88  3 24  6  2  2.0800000  0  4G 6G 9G11G13
   9185732.331 7  -4304252.320 8  19346834.852    19346836.360       -3053.357
     -2377.251
 -17945177.324 7 -14078635.032 7  17550749.946    17550751.552        -383.088
      -293.030
  -3518140.467 8  -2903411.311 8  18808835.562    18808838.263       -1678.403
     -1303.441
 -32330164.259 8   8922814.787 9  18391249.628    18391252.174        1028.373
       789.207
 88  3 24  6  2 32.0800000  0  4G 6G 9G11G13
   9277701.865 8  -4232587.769 8  19364335.532    19364337.219       -3064.784
     -2382.489
 -17933144.068 7 -14069258.491 6  17553039.275    17553043.051        -397.825
      -309.384
  -3467677.949 8  -2864089.868 9  18818438.109    18818441.576       -1693.131
     -1308.225
 -32360455.479 9   8899211.252 8  18385485.942    18385487.589        1002.082
       780.955
 88  3 24  6  3  2.0800000  0  4G 6G 9G11G13
   9370101.775 9  -4160587.851 8  19381918.241    19381921.113       -3075.087
     -2420.350
 -17920453.570 6 -14059369.813 7  17555455.051    17555456.157        -416.692
      -338.403
  -3416984.396 8  -2824588.406 8  18828085.715    18828087.500       -1701.146
     -1320.181
 -32390324.928 9   8875936.376 7  18379801.735    18379804.385         986.795
       769.099
 88  3 24  6  3 32.0800000  0  4G 6G 9G11G13
   9462931.287 8  -4088253.183 8  19399583.826    19399584.908       -3095.302
     -2417.361
 -17907103.913 7 -14048967.481 6  17557994.873    17557998.866        -457.401
      -361.332
  -3366060.349 8  -2784907.328 8  18837776.276    18837778.406       -1682.509
     -1323.113
 -32419771.712 9   8852990.829 7  18374198.421    18374200.257         974.985
       761.847
 88  3 24  6  4  2.0800000  0  4G 6G 9G11G13
   9556188.599 8  -4015585.162 8  19417329.064    19417331.788       -3110.780
     -2420.679
 -17893094.413 7 -14038051.011 7  17560661.560    17560663.725        -473.749
      -384.360
  -3314907.451 9  -2745047.940 8  18847509.633    18847513.414       -1687.908
     -1332.993
 -32448796.331 9   8830374.261 8  18368675.602    18368678.354         959.618
       755.205
 88  3 24  6  4 32.0800000  0  4G 6G 9G11G13
   9649871.806 8  -3942585.282 9  19435157.131    19435158.770       -3110.095
     -2436.027
 -17878424.051 7 -14026619.556 7  17563452.631    17563454.905        -503.094
      -400.770
  -3263527.658 8  -2705011.738 8  18857286.266    18857289.799       -1727.118
     -1328.911
 -32477398.918 9   8808086.553 8  18363232.367    18363234.628         951.676
       732.966
 88  3 24  6  5  2.0800000  0  4G 6G 9G11G13
   9743975.994 9  -3869257.370 8  19453064.296    19453066.461       -3149.927
     -2455.507
 -17863095.412 6 -14014675.191 6  17566370.358    17566371.932        -503.884
      -402.007
  -3211925.247 8  -2664802.082 8  18867106.677    18867108.986       -1725.850
     -1335.317
 -32505582.553 9   8786125.298 8  18357869.385    18357871.116         926.955
       736.116
 88  3 24  6  5 32.0800000  0  4G 6G 9G11G13
   9838499.748 9  -3795602.509 9  19471051.674    19471054.123       -3166.226
     -2450.294
 -17847107.282 7 -14002216.911 7  17569412.855    17569414.237        -546.602
      -438.929
  -3160101.478 8  -2624419.917 9  18876968.686    18876971.306       -1726.767
     -1347.577
 -32533347.629 8   8764490.185 7  18352585.233    18352588.896         914.308
       728.504
 88  3 24  6  6  2.0800000  0  4G 6G 9G11G13
   9933442.062 9  -3721621.502 8  19489118.932    19489120.524       -3178.786
     -2480.139
 -17830458.060 7 -13989243.503 7  17572579.639    17572583.480        -576.418
      -444.124
  -3108057.142 8  -2583865.899 8  18886872.555    18886874.604       -1736.113
     -1353.337
 -32560693.355 8   8743181.834 8  18347382.411    18347383.840         894.348
       714.188
 88  3 24  6  6 32.0800000  0  4G 6G 9G11G13
  10028799.787 8  -3647316.798 7  19507263.768    19507266.841       -3192.055
     -2487.353
 -17813148.532 8 -13975755.574 6  17575875.642    17575877.086        -570.438
      -451.804
  -3055795.170 9  -2543142.291 8  18896817.339    18896819.970       -1740.467
     -1366.020
 -32587621.320 8   8722199.015 8  18342257.087    18342258.938         889.396
       701.107
 88  3 24  6  7  2.0800000  0  4G 6G 9G11G13
  10124568.394 9  -3572691.930 9  19525488.228    19525491.678       -3200.994
     -2481.661
 -17795180.384 7 -13961754.419 6  17579293.187    17579295.717        -613.316
      -470.390
  -3003319.405 9  -2502252.087 8  18906803.755    18906806.575       -1758.609
     -1373.955
 -32614134.563 8   8701539.373 8  18337212.361    18337214.578         858.192
       683.989
 88  3 24  6  7 32.0800000  0  4G 6G 9G11G13
  10220745.556 9  -3497748.716 8  19543790.407    19543792.991       -3214.734
     -2490.584
 -17776553.758 7 -13947240.191 7  17582839.187    17582840.374        -623.044
      -492.915
  -2950632.217 9  -2461197.133 9  18916828.831    18916832.483       -1756.193
     -1361.583
 -32640234.237 8   8681201.970 8  18332245.264    18332248.029         855.808
       661.221
 88  3 24  6  8  2.0800000  0  4G 6G 9G11G13
  10317331.850 8  -3422486.672 7  19562170.154    19562172.570       -3222.158
     -2511.077
 -17757265.562 8 -13932210.442 7  17586508.802    17586511.492        -644.519
      -520.156
  -2897732.524 8  -2419976.614 8  18926896.295    18926898.014       -1760.156
     -1370.866
 -32665917.742 9   8661188.856 8  18327357.037    18327360.298         860.369
       668.951
 88  3 24  6  8 32.0800000  0  4G 6G 9G11G13
  10414325.398 8  -3346907.305 8  19580626.329    19580630.168       -3234.774
     -2523.474
 -17737314.970 8 -13916664.529 7  17590305.226    17590307.266        -664.216
      -537.847
  -2844621.713 8  -2378591.561 8  18937001.938    18937005.133       -1780.132
     -1377.298
 -32691185.323 8   8641499.839 8  18322549.986    18322552.102         838.456
       639.436
 88  3 24  6  9  2.0800000  0  4G 6G 9G11G13
  10511721.708 8  -3271014.098 8  19599160.983    19599163.894       -3247.493
     -2521.442
 -17716704.296 7 -13900604.288 7  17594227.757    17594228.831        -705.101
      -537.325
  -2791304.201 8  -2337045.464 9  18947148.598    18947151.105       -1787.603
     -1387.886
 -32716040.339 7   8622132.321 8  18317820.031    18317822.522         827.579
       643.027
 88  3 24  6  9 32.0800000  0  4G 6G 9G11G13
  10609517.573 8  -3194809.558 8  19617771.341    19617773.569       -3261.735
     -2547.788
 -17695434.047 7 -13884030.080 7  17598274.818    17598276.955        -726.073
      -550.995
  -2737782.882 8  -2295340.540 8  18957333.655    18957335.745       -1792.883
     -1399.636
 -32740483.818 8   8603085.458 8  18313168.609    18313171.819         802.037
       635.434
 88  3 24  6 10  2.0800000  0  4G 6G 9G11G13
  10707711.838 8  -3118294.560 8  19636457.784    19636459.551       -3285.690
     -2550.901
 -17673503.222 8 -13866941.137 7  17602448.483    17602451.487        -740.291
      -585.413
  -2684058.341 8  -2253477.272 9  18967556.745    18967558.905       -1794.326
     -1407.341
 -32764516.205 8   8584358.937 8  18308595.771    18308597.799         785.490
       615.177
 88  3 24  6 10 32.0800000  0  4G 6G 9G11G13
  10806301.793 8  -3041471.253 9  19655218.810    19655220.547       -3301.256
     -2571.046
 -17650911.987 7 -13849337.606 7  17606747.949    17606749.565        -757.157
      -599.351
  -2630133.000 8  -2211457.529 8  18977818.626    18977820.784       -1796.886
     -1409.218
 -32788138.455 8   8565952.005 8  18304100.320    18304102.288         782.508
       618.035
 88  3 24  6 11  2.0800000  0  4G 6G 9G11G13
  10905284.512 8  -2964341.862 9  19674054.055    19674056.148       -3318.241
     -2561.080
 -17627660.900 7 -13831219.855 8  17611172.283    17611173.511        -786.822
      -613.400
  -2576008.868 8  -2169282.884 8  18988117.682    18988120.845       -1811.367
     -1409.025
 -32811351.480 8   8547863.955 7  18299683.923    18299685.224         779.334
       606.552
 88  3 24  6 11 32.0800000  0  4G 6G 9G11G13
  11004656.930 9  -2886908.845 9  19692964.978    19692966.018       -3311.758
     -2585.127
 -17603750.508 7 -13812588.408 7  17615722.364    17615723.675        -818.009
      -620.502
  -2521688.987 9  -2126955.710 8  18998454.151    18998457.358       -1808.409
     -1408.895
 -32834156.842 8   8530093.556 8  18295343.607    18295345.564         743.736
       580.312
 88  3 24  6 12  2.0800000  0  4G 6G 9G11G13
  11104416.989 8  -2809173.757 8  19711947.874    19711950.259       -3345.976
     -2590.868
 -17579180.854 7 -13793443.238 7  17620396.806    17620399.900        -823.695
      -641.325
  -2467174.845 9  -2084477.161 8  19008827.894    19008830.927       -1812.372
     -1423.118
 -32856555.059 8   8512640.426 7  18291080.780    18291084.104         738.760
       568.462
 88  3 24  6 12 32.0800000  0  4G 6G 9G11G13
  11204561.864 9  -2731138.806 8  19731004.574    19731006.820       -3342.053
     -2597.269
 -17553952.258 7 -13773784.615 7  17625197.867    17625199.545        -865.242
      -671.375
  -2412468.459 8  -2041848.816 8  19019239.005    19019241.623       -1808.943
     -1417.016
 -32878547.763 9   8495503.267 9  18286895.081    18286898.413         729.279
       566.660
 88  3 24  6 13  2.0800000  0  4G 6G 9G11G13
  11305088.755 8  -2652806.179 8  19750134.775    19750137.098       -3358.169
     -2615.624
 -17528065.060 8 -13753612.781 7  17630124.626    17630126.375        -864.253
      -686.692
  -2357572.278 8  -1999072.574 8  19029685.481    19029687.599       -1828.440
     -1428.263
 -32900135.792 8   8478681.449 8  18282788.345    18282790.454         707.597
       561.347
 88  3 24  6 13 32.0800000  0  4G 6G 9G11G13
  11405996.846 8  -2574176.530 9  19769336.678    19769338.535       -3355.912
     -2615.829
 -17501517.987 8 -13732926.769 8  17635176.470    17635178.209        -907.450
      -692.787
  -2302487.192 8  -1956149.138 8  19040167.929    19040169.604       -1847.499
     -1440.647
 -32921318.740 9   8462175.282 8  18278757.132    18278759.651         679.304
       557.060
 88  3 24  6 14  2.0800000  0  4G 6G 9G11G13
  11507282.176 8  -2495252.906 8  19788610.843    19788612.577       -3377.730
     -2641.579
 -17474312.636 8 -13711727.795 7  17640353.114    17640354.428        -900.975
      -701.393
  -2247215.563 8  -1913080.345 7  19050685.406    19050687.642       -1843.631
     -1430.867
 -32942099.032 9   8445982.848 7  18274801.621    18274804.512         684.216
       545.309
 88  3 24  6 14 32.0800000  0  4G 6G 9G11G13
  11608941.420 9  -2416037.932 8  19807955.697    19807957.727       -3387.148
     -2637.192
 -17446450.237 8 -13690016.857 7  17645656.373    17645657.265        -942.027
      -720.352
  -2191760.506 9  -1869868.632 8  19061237.405    19061240.356       -1857.339
     -1444.854
 -32962478.735 8   8430102.570 8  18270924.010    18270925.436         666.967
       511.351
 88  3 24  6 15  2.0800000  0  4G 6G 9G11G13
  11710972.051 9  -2336533.546 8  19827370.796    19827372.660       -3389.580
     -2665.639
 -17417931.016 8 -13667794.098 7  17651082.383    17651083.908        -967.592
      -747.916
  -2136124.278 8  -1826515.714 8  19071825.047    19071827.312       -1850.912
     -1435.247
 -32982458.463 8   8414533.968 8  18267121.473    18267125.010         642.358
       510.810
 88  3 24  6 15 32.0800000  0  4G 6G 9G11G13
  11813372.933 9  -2256740.675 9  19846857.630    19846859.862       -3419.053
     -2658.294
 -17388753.676 8 -13645058.533 8  17656635.356    17656636.738        -994.801
      -778.301
  -2080307.141 8  -1783021.851 9  19082446.361    19082448.366       -1857.499
     -1448.327
 -33002037.765 9   8399277.386 8  18263396.296    18263399.583         655.532
       513.283
 88  3 24  6 16  2.0800000  0  4G 6G 9G11G13
  11916141.283 9  -2176661.462 9  19866413.594    19866416.662       -3425.680
     -2667.422
 -17358919.235 9 -13621810.922 7  17662312.083    17662314.131       -1000.463
      -777.612
  -2024311.704 8  -1739389.061 8  19093101.793    19093104.484       -1866.151
     -1454.790
 -33021218.354 8   8384331.483 8  18259746.395    18259749.244         623.148
       493.679
 88  3 24  6 16 32.0800000  0  4G 6G 9G11G13
  12019273.514 9  -2096298.703 8  19886039.780    19886043.067       -3428.463
     -2687.921
 -17328428.756 7 -13598052.134 7  17668114.536    17668115.955       -1022.671
      -795.259
  -1968140.164 9  -1695619.030 8  19103790.757    19103793.766       -1882.403
     -1458.642
 -33040001.551 8   8369695.237 8  18256172.954    18256175.108         620.174
       486.589
 88  3 24  6 17  2.0800000  0  4G 6G 9G11G13
  12122767.138 9  -2015654.352 9  19905733.096    19905735.503       -3457.737
     -2688.580
 -17297282.649 8 -13573782.440 7  17674040.430    17674042.098       -1028.349
      -813.745
  -1911794.417 9  -1651713.267 8  19114513.666    19114516.015       -1872.674
     -1461.383
 -33058389.021 8   8355367.358 8  18252672.555    18252675.236         617.119
       482.227
 88  3 24  6 17 32.0800000  0  4G 6G 9G11G13
  12226620.233 9  -1934729.881 8  19925497.258    19925498.379       -3454.459
     -2702.101
 -17265480.665 8 -13549001.693 8  17680093.028    17680095.334       -1071.187
      -830.236
  -1855276.030 7  -1607672.982 8  19125269.110    19125270.776       -1898.208
     -1463.899
 -33076380.615 8   8341347.936 8  18249249.403    18249252.087         585.174
       462.032
 88  3 24  6 18  2.0800000  0  4G 6G 9G11G13
  12330829.441 9  -1853527.932 8  19945326.278    19945329.037       -3464.363
     -2701.853
 -17233024.320 8 -13523711.057 8  17686267.729    17686270.613       -1073.867
      -838.830
  -1798587.934 8  -1563500.446 8  19136055.050    19136059.218       -1901.429
     -1471.847
 -33093978.319 9   8327635.465 8  18245900.074    18245903.732         580.390
       438.544
 88  3 24  6 18 32.0800000  0  4G 6G 9G11G13
  12435392.510 8  -1772050.223 9  19965224.545    19965226.388       -3497.481
     -2713.392
 -17199913.416 7 -13497910.352 8  17692568.734    17692573.274       -1104.895
      -865.450
  -1741731.152 7  -1519196.476 9  19146876.319    19146878.654       -1900.768
     -1474.090
 -33111182.486 7   8314229.635 7  18242626.497    18242629.214         577.184
       427.490
 88  3 24  6 19  2.0800000  0  4G 6G 9G11G13
  12540305.862 9  -1690299.588 8  19985189.122    19985191.397       -3511.930
     -2728.237
 -17166149.847 8 -13471601.087 7  17698994.619    17698997.567       -1106.777
      -887.794
  -1684708.922 8  -1474763.576 8  19157725.973    19157729.565       -1893.439
     -1481.857
 -33127995.453 8   8301128.634 7  18239426.662    18239430.205         550.797
       428.670
 88  3 24  6 19 32.0800000  0  4G 6G 9G11G13
  12645566.695 9  -1608278.177 9  20005219.647    20005222.041       -3513.709
     -2735.370
 -17131734.209 8 -13444783.721 7  17705543.941    17705544.314       -1168.538
      -897.270
  -1627523.190 8  -1430203.275 8  19168608.273    19168611.335       -1898.319
     -1481.149
 -33144419.269 8   8288330.875 8  18236302.232    18236303.672         537.735
       430.708
 88  3 24  6 20  2.0800000  0  4G 6G 9G11G13
  12751172.243 8  -1525988.153 8  20025315.068    20025317.535       -3536.308
     -2737.719
 -17096667.227 7 -13417458.818 8  17712217.752    17712219.615       -1174.240
      -921.392
  -1570175.752 8  -1385516.986 8  19179521.494    19179524.770       -1914.212
     -1502.182
 -33160454.393 8   8275835.985 8  18233250.280    18233253.360         524.418
       429.876
 88  3 24  6 20 32.0800000  0  4G 6G 9G11G13
  12857120.513 9  -1443431.070 9  20045475.972    20045478.593       -3529.059
     -2742.826
 -17060948.794 7 -13389626.298 8  17719013.792    17719016.930       -1194.638
      -935.386
  -1512668.107 9  -1340705.827 8  19190464.101    19190467.839       -1923.877
     -1492.234
 -33176101.317 8   8263643.591 7  18230272.045    18230276.591         525.526
       400.795
 88  3 24  6 21  2.0800000  0  4G 6G 9G11G13
  12963409.809 8  -1360608.269 8  20065703.649    20065705.202       -3554.713
     -2770.043
 -17024578.748 8 -13361286.011 8  17725936.153    17725937.474       -1219.598
      -973.663
  -1455000.868 9  -1295770.328 9  19201439.042    19201441.748       -1924.667
     -1500.766
 -33191360.490 7   8251753.333 8  18227368.877    18227371.676         499.410
       398.571
 88  3 24  6 21 32.0800000  0  4G 6G 9G11G13
  13070037.116 9  -1277522.071 9  20085993.368    20085995.900       -3554.753
     -2774.846
 -16987558.211 8 -13332438.857 8  17732979.514    17732982.700       -1237.939
      -977.553
  -1397176.405 9  -1250712.304 8  19212443.182    19212445.856       -1922.849
     -1508.160
 -33206233.175 7   8240164.247 8  18224538.273    18224542.156         493.070
       378.581
 88  3 24  6 22  2.0800000  0  4G 6G 9G11G13
  13176999.442 8  -1194174.811 8  20106348.235    20106349.894       -3571.076
     -2773.386
 -16949887.871 8 -13303085.363 7  17740149.565    17740150.982       -1248.210
      -979.988
  -1339196.624 9  -1205533.266 9  19223475.300    19223478.090       -1930.456
     -1509.129
 -33220720.736 8   8228875.248 7  18221781.738    18221785.373         485.224
       368.403
 88  3 24  6 22 32.0800000  0  4G 6G 9G11G13
  13284291.077 8  -1110570.967 9  20126764.277    20126767.083       -3564.537
     -2788.846
 -16911571.636 8 -13273228.591 8  17747439.842    17747441.867       -1284.150
     -1003.744
  -1281066.552 8  -1160237.103 8  19234538.150    19234540.973       -1944.547
     -1511.093
 -33234827.100 9   8217883.273 7  18219097.442    18219100.437         463.557
       355.360
 88  3 24  6 23  2.0800000  0  4G 6G 9G11G13
  13391909.634 8  -1026712.375 7  20147243.837    20147245.962       -3597.168
     -2817.846
 -16872610.130 8 -13242868.982 8  17754852.976    17754856.046       -1299.525
     -1024.491
  -1222787.811 8  -1114825.118 9  19245628.304    19245629.525       -1954.634
     -1513.317
 -33248553.601 8   8207187.310 7  18216485.972    18216488.996         447.656
       344.728
 88  3 24  6 23 32.0800000  0  4G 6G 9G11G13
  13499855.491 8   -942598.745 7  20167785.860    20167787.673       -3604.489
     -2797.116
 -16833001.000 8 -13212004.748 8  17762389.992    17762393.310       -1337.339
     -1040.542
  -1164359.207 9  -1069296.339 9  19256745.083    19256749.048       -1945.137
     -1515.070
 -33261898.616 8   8196788.600 8  18213946.360    18213948.702         432.067
       346.493
 88  3 24  6 24  2.0800000  0  4G 6G 9G11G13
  13608126.323 9   -858231.888 8  20188388.387    20188391.179       -3615.860
     -2825.109
 -16792744.825 7 -13180636.316 8  17770051.510    17770053.465       -1354.317
     -1059.972
  -1105782.024 8  -1023651.780 8  19267893.379    19267896.035       -1948.351
     -1538.788
 -33274862.371 8   8186686.989 8  18211479.418    18211481.475         440.663
       335.619
 88  3 24  6 24 32.0800000  0  4G 6G 9G11G13
  13716717.662 8   -773615.280 8  20209052.883    20209055.873       -3634.074
     -2821.748
 -16751843.963 7 -13148765.533 7  17777834.852    17777836.860       -1362.060
     -1068.286
  -1047059.813 8   -977894.214 9  19279067.266    19279070.500       -1958.015
     -1526.944
 -33287448.324 9   8176879.758 8  18209084.620    18209086.405         415.584
       315.517
 88  3 24  6 25  2.0800000  0  4G 6G 9G11G13
  13825625.172 8   -688752.301 9  20229776.563    20229779.900       -3640.286
     -2831.255
 -16710301.215 9 -13116394.563 7  17785741.029    17785741.307       -1400.345
     -1084.740
   -988195.751 8   -932026.131 8  19290268.881    19290271.518       -1978.422
     -1536.147
 -33299659.269 8   8167364.744 8  18206760.551    18206764.676         392.936
       300.070
 88  3 24  6 25 32.0800000  0  4G 6G 9G11G13
  13934846.994 8   -603644.425 9  20250560.419    20250563.413       -3620.900
     -2831.485
 -16668116.455 7 -13083523.344 7  17793768.249    17793769.884       -1437.194
     -1087.872
   -929191.187 8   -886048.560 9  19301497.095    19301499.671       -1965.424
     -1530.151
 -33311495.327 9   8158141.856 8  18204508.648    18204511.552         392.251
       309.266
 88  3 24  6 26  2.0800000  0  4G 6G 9G11G13
  14044381.285 9   -518293.042 8  20271405.185    20271408.075       -3660.820
     -2844.602
 -16625289.845 7 -13050151.971 8  17801917.992    17801920.335       -1429.292
     -1122.781
   -870047.066 8   -839962.252 9  19312751.879    19312753.603       -1980.647
     -1527.951
 -33322956.928 9   8149210.741 8  18202327.984    18202329.597         375.281
       304.370
 88  3 24  6 26 32.0800000  0  4G 6G 9G11G13
  14154223.907 9   -432701.406 8  20292306.833    20292310.015       -3679.145
     -2850.213
 -16581823.854 9 -13016282.381 8  17810188.602    17810191.079       -1444.626
     -1122.856
   -810766.387 9   -793769.509 8  19324032.229    19324034.380       -1981.309
     -1535.159
 -33334046.641 9   8140569.408 8  18200217.520    18200219.705         352.451
       284.442
 88  3 24  6 27  2.0800000  0  4G 6G 9G11G13
  14264373.336 8   -346870.708 8  20313268.219    20313272.007       -3674.336
     -2865.741
 -16537718.226 7 -12981914.373 8  17818581.310    17818583.906       -1483.844
     -1151.302
   -751349.431 8   -747470.584 8  19335338.815    19335341.977       -1976.229
     -1540.919
 -33344764.485 9   8132217.862 8  18198177.497    18198178.987         364.037
       266.074
 88  3 24  6 27 32.0800000  0  4G 6G 9G11G13
  14374826.849 9   -260803.059 8  20334286.607    20334289.367       -3681.122
     -2874.776
 -16492973.927 8 -12947048.707 7  17827096.481    17827098.166       -1515.160
     -1171.149
   -691798.014 8   -701066.904 9  19346671.297    19346673.889       -1990.830
     -1547.829
 -33355111.450 9   8124155.321 7  18196208.908    18196209.616         346.183
       270.331
 88  3 24  6 28  2.0800000  0  4G 6G 9G11G13
  14485580.360 8   -174501.653 9  20355361.994    20355364.593       -3683.052
     -2887.216
 -16447593.376 7 -12911687.256 8  17835733.121    17835733.234       -1526.938
     -1181.271
   -632115.331 8   -654560.920 9  19358028.096    19358031.388       -1986.037
     -1551.619
 -33365089.976 8   8116379.862 7  18194309.714    18194311.873         329.787
       252.149
 88  3 24  6 28 32.0800000  0  4G 6G 9G11G13
  14596630.889 8    -87968.790 8  20376494.615    20376496.970       -3695.731
     -2897.307
 -16401577.787 8 -12875830.960 7  17844488.785    17844489.840       -1546.387
     -1204.847
   -572303.170 8   -607954.048 8  19369411.362    19369414.099       -1998.182
     -1552.216
 -33374702.108 8   8108889.894 7  18192480.901    18192483.097         331.550
       260.165
 88  3 24  6 29  2.0800000  0  4G 6G 9G11G13
  14707975.526 8     -1206.769 8  20397682.754    20397686.313       -3711.927
     -2897.003
 -16354928.545 8 -12839480.934 8  17853366.268    17853367.019       -1558.293
     -1216.758
   -512363.647 8   -561247.932 8  19380816.711    19380818.818       -2011.643
     -1563.183
 -33383949.381 8   8101684.236 7  18190720.738    18190722.654         318.424
       245.954
 88  3 24  6 29 32.0800000  0  4G 6G 9G11G13
  14819612.926 7     85783.396 8  20418926.628    20418929.700       -3717.015
     -2912.121
 -16307645.156 8 -12802636.746 6  17862363.299    17862364.084       -1584.537
     -1225.309
   -452296.587 8   -514442.444 8  19392247.109    19392250.044       -2006.850
     -1556.888
 -33392831.016 9   8094763.496 8  18189030.014    18189032.154         294.357
       229.071
 88  3 24  6 30  2.0800000  0  4G 6G 9G11G13
  14931540.359 9    172999.550 8  20440225.497    20440227.537       -3742.453
     -2916.315
 -16259729.113 8 -12765299.584 8  17871482.241    17871483.732       -1596.889
     -1248.728
   -392103.887 8   -467539.059 8  19403701.213    19403704.034       -2012.664
     -1569.844
 -33401348.527 8   8088126.482 7  18187409.266    18187412.581         289.493
       210.579
 88  3 24  6 30 32.0800000  0  4G 6G 9G11G13
  15043752.356 8    260437.453 8  20461579.244    20461582.105       -3753.187
     -2929.756
 -16211183.954 8 -12727472.205 7  17880719.982    17880722.380       -1640.022
     -1251.195
   -331790.130 7   -420541.324 9  19415178.287    19415181.242       -2038.006
     -1570.217
 -33409505.904 8   8081770.096 9  18185857.523    18185859.396         267.532
       205.254
 88  3 24  6 31  2.0800000  0  4G 6G 9G11G13
  15156247.576 8    348096.046 8  20482986.667    20482989.106       -3756.026
     -2926.133
 -16162009.693 8 -12689154.615 7  17890076.811    17890079.023       -1639.185
     -1288.807
   -271355.628 9   -373449.525 9  19426678.834    19426681.969       -2022.536
     -1574.772
 -33417303.034 9   8075694.429 8  18184374.215    18184376.058         255.849
       191.061
 88  3 24  6 31 32.0800000  0  4G 6G 9G11G13
  15269023.130 8    435973.091 8  20504446.396    20504449.349       -3766.049
     -2931.054
 -16112207.693 8 -12650347.880 7  17899554.419    17899554.572       -1660.117
     -1304.267
   -210801.585 8   -326264.555 8  19438202.502    19438204.852       -2025.646
     -1571.976
 -33424740.893 9   8069898.721 8  18182958.784    18182960.535         238.361
       186.532
 88  3 24  6 32  2.0800000  0  4G 6G 9G11G13
  15382077.277 9    524067.193 9  20525960.495    20525963.113       -3765.252
     -2941.158
 -16061778.121 8 -12611052.123 8  17909150.405    17909151.027       -1683.291
     -1313.669
   -150129.009 8   -278987.239 9  19449747.180    19449750.884       -2014.067
     -1577.972
 -33431820.513 9   8064382.147 8  18181611.298    18181612.502         238.465
       172.861
 88  3 24  6 32 32.0800000  0  4G 6G 9G11G13
  15495406.854 9    612375.928 8  20547525.585    20547529.243       -3771.320
     -2954.543
 -16010722.426 8 -12571268.479 7  17918865.561    17918867.355       -1720.715
     -1325.711
    -89339.872 8   -231619.094 9  19461315.787    19461317.722       -2027.313
     -1574.132
 -33438543.340 9   8059143.580 7  18180331.852    18180334.546         209.558
       177.770
 88  3 24  6 33  2.0800000  0  4G 6G 9G11G13
  15609005.880 8    700894.641 9  20569143.309    20569146.449       -3792.484
     -2952.243
 -15959045.420 8 -12531000.712 7  17928699.978    17928700.906       -1732.780
     -1348.764
    -28438.584 8   -184163.555 9  19472905.083    19472907.136       -2049.402
     -1578.786
 -33444913.619 9   8054179.746 7  18179119.947    18179121.558         214.885
       154.618
 88  3 24  6 33 32.0800000  0  4G 6G 9G11G13
  15722872.455 9    789621.827 9  20590811.502    20590813.698       -3794.853
     -2973.526
 -15906747.479 7 -12490249.069 8  17938651.628    17938654.226       -1741.193
     -1379.510
     32573.530 8   -136621.657 9  19484514.775    19484518.354       -2040.757
     -1587.522
 -33450931.498 8   8049490.499 9  18177973.713    18177976.028         208.003
       178.820
 88  3 24  6 34  2.0800000  0  4G 6G 9G11G13
  15837005.307 8    878556.497 8  20612530.773    20612532.755       -3798.011
     -2974.433
 -15853828.329 9 -12449013.384 7  17948721.327    17948723.398       -1769.829
     -1361.353
     93696.695 8    -88993.230 9  19496147.160    19496149.090       -2034.896
     -1595.234
 -33456597.174 9   8045075.690 8  18176896.780    18176898.056         168.474
       145.670
 88  3 24  6 34 32.0800000  0  4G 6G 9G11G13
  15951402.365 8    967697.047 8  20634299.179    20634301.128       -3788.976
     -2978.329
 -15800288.914 8 -12407294.389 8  17958910.269    17958912.771       -1797.715
     -1402.992
    154930.089 8    -41278.902 8  19507799.009    19507801.496       -2031.372
     -1591.922
 -33461911.285 9   8040934.840 8  18175885.466    18175887.175         166.624
       131.651
 88  3 24  6 35  2.0800000  0  4G 6G 9G11G13
  16066059.702 8   1057040.382 9  20656117.251    20656120.878       -3839.278
     -2975.676
 -15746131.384 8 -12365093.729 7  17969215.825    17969218.890       -1805.187
     -1414.444
    216270.933 8      6519.144 9  19519471.836    19519473.499       -2047.799
     -1589.946
 -33466875.925 8   8037066.294 7  18174939.725    18174942.546         168.044
       118.025
 88  3 24  6 35 32.0800000  0  4G 6G 9G11G13
  16180971.832 8   1146582.288 8  20677985.099    20677987.804       -3838.520
     -2980.628
 -15691360.282 8 -12322414.977 7  17979638.645    17979639.822       -1824.333
     -1419.210
    277715.131 8     54397.719 8  19531162.923    19531166.813       -2039.099
     -1604.244
 -33471495.354 9   8033466.735 8  18174061.134    18174062.647         151.935
       130.545
 88  3 24  6 36  2.0800000  0  4G 6G 9G11G13
  16296136.101 8   1236320.633 8  20699899.811    20699901.956       -3856.782
     -2994.137
 -15635976.643 8 -12279258.902 8  17990178.005    17990179.567       -1860.673
     -1447.159
    339261.335 8    102355.788 9  19542875.613    19542878.430       -2052.217
     -1606.431
 -33475771.154 9   8030134.954 7  18173247.194    18173249.715         147.470
       103.385
 88  3 24  6 36 32.0800000  0  4G 6G 9G11G13
  16411552.567 8   1326255.510 8  20721863.453    20721865.988       -3841.423
     -3002.016
 -15579978.947 9 -12235624.359 7  18000833.783    18000834.192       -1876.805
     -1456.163
    400910.860 8    150394.366 9  19554607.568    19554610.987       -2052.392
     -1603.858
 -33479701.142 9   8027072.638 7  18172500.261    18172500.721         132.023
       117.329
 88  3 24  6 37  2.0800000  0  4G 6G 9G11G13
  16527219.546 8   1416385.595 8  20743873.796    20743876.163       -3883.360
     -2993.484
 -15523367.788 8 -12191511.784 7  18011606.426    18011608.146       -1897.570
     -1482.795
    462662.856 8    198512.795 9  19566358.914    19566361.288       -2054.402
     -1609.501
 -33483285.752 8   8024279.450 8  18171817.250    18171819.688         116.641
        91.597
 88  3 24  6 37 32.0800000  0  4G 6G 9G11G13
  16643130.568 7   1506705.836 9  20765930.770    20765934.298       -3871.303
     -3016.239
 -15466148.419 8 -12146925.263 8  18022495.079    18022496.607       -1904.205
     -1482.764
    524512.304 8    246707.179 9  19578127.258    19578130.907       -2043.134
     -1599.515
 -33486530.119 9   8021751.386 8  18171200.541    18171202.104         114.687
       105.038
 88  3 24  6 38  2.0800000  0  4G 6G 9G11G13
  16759282.079 7   1597213.474 8  20788033.297    20788037.023       -3880.657
     -3007.813
 -15408323.231 7 -12101866.700 7  18033498.245    18033500.472       -1950.528
     -1510.397
    586457.071 9    294975.811 9  19589915.241    19589917.833       -2067.559
     -1611.178
 -33489436.507 9   8019486.664 8  18170646.887    18170649.060          99.656
        75.628
 88  3 24  6 38 32.0800000  0  4G 6G 9G11G13
  16875672.464 7   1687907.258 8  20810181.539    20810185.025       -3865.362
     -3014.232
 -15349892.372 8 -12056336.183 7  18044617.756    18044619.641       -1938.718
     -1529.610
    648497.095 9    343318.681 9  19601721.115    19601724.541       -2074.162
     -1605.101
 -33492004.219 9   8017485.850 8  18170159.407    18170159.671          88.531
        70.272
 88  3 24  6 39  2.0800000  0  4G 6G 9G11G13
  16992299.395 8   1778785.368 7  20832375.546    20832378.280       -3888.240
     -3022.055
 -15290856.964 8 -12010334.571 7  18055851.270    18055854.885       -1973.143
     -1557.069
    710631.237 8    391734.888 8  19613545.011    19613547.813       -2056.523
     -1616.914
 -33494234.994 8   8015747.602 8  18169734.006    18169734.969          78.260
        59.137
 88  3 24  6 39 32.0800000  0  4G 6G 9G11G13
  17109159.560 8   1869845.213 8  20854613.018    20854615.900       -3903.711
     -3038.665
 -15231219.187 8 -11963863.606 7  18067201.444    18067202.855       -1992.273
     -1563.624
    772857.557 8    440222.908 8  19625385.506    19625389.862       -2090.733
     -1615.174
 -33496130.026 8   8014270.950 8  18169372.779    18169375.665          64.481
        42.229
 88  3 24  6 40  2.0800000  0  4G 6G 9G11G13
  17226248.770 8   1961083.553 7  20876894.323    20876897.427       -3895.425
     -3027.878
 -15170982.073 8 -11916925.608 7  18078663.301    18078665.488       -2024.976
     -1576.804
    835173.248 8    488780.583 9  19637244.959    19637247.907       -2062.049
     -1609.438
 -33497692.596 9   8013053.376 8  18169075.563    18169078.642          35.741
        35.257
 88  3 24  6 40 32.0800000  0  4G 6G 9G11G13
  17343565.683 8   2052499.336 7  20899218.085    20899222.770       -3906.900
     -3059.655
 -15110145.921 8 -11869520.826 8  18090240.291    18090241.776       -2037.217
     -1587.696
    897578.352 8    537407.922 9  19649121.019    19649122.176       -2066.443
     -1622.171
 -33498922.832 9   8012094.762 7  18168841.427    18168844.542          32.049
        37.637
 88  3 24  6 41  2.0800000  0  4G 6G 9G11G13
  17461108.022 8   2144090.758 8  20921586.518    20921589.140       -3920.680
     -3049.756
 -15048711.870 8 -11821650.155 7  18101931.449    18101932.371       -2053.166
     -1585.143
    960071.903 8    586104.195 8  19661012.251    19661014.644       -2079.951
     -1617.523
 -33499820.656 9   8011395.169 7  18168671.392    18168673.510          27.480
        25.582
 88  3 24  6 41 32.0800000  0  4G 6G 9G11G13
  17578871.360 8   2235854.383 9  20943996.674    20944000.173       -3924.930
     -3058.468
 -14986683.085 9 -11773316.057 7  18113734.268    18113735.863       -2070.637
     -1607.152
   1022651.275 8    634867.311 9  19672920.625    19672924.059       -2076.977
     -1620.176
 -33500389.309 8   8010952.069 7  18168562.255    18168564.114           8.485
        29.317
 88  3 24  6 42  2.0800000  0  4G 6G 9G11G13
  17696852.089 8   2327787.401 8  20966448.056    20966451.359       -3939.045
     -3072.058
 -14924062.215 8 -11724520.589 7  18125649.862    18125653.754       -2071.068
     -1640.445
   1085313.815 8    683695.252 9  19684845.500    19684847.633       -2081.993
     -1624.687
 -33500631.413 9   8010763.435 7  18168516.386    18168519.514           3.365
         6.792
 88  3 24  6 42 32.0800000  0  4G 6G 9G11G13
  17815046.037 8   2419886.565 8  20988938.188    20988941.828       -3947.378
     -3072.163
 -14860852.321 7 -11675266.145 8  18137679.435    18137682.218       -2122.726
     -1655.520
   1148056.870 9    732585.923 8  19696784.563    19696786.738       -2099.281
     -1643.857
 -33500549.334 8   8010827.404 7  18168531.891    18168534.788           2.951
       -18.411
 88  3 24  6 43  2.0800000  0  4G 6G 9G11G13
  17933451.663 7   2512150.659 8  21011469.811    21011473.652       -3952.904
     -3078.874
 -14797053.795 8 -11625553.012 8  18149819.954    18149822.894       -2127.662
     -1659.459
   1210880.342 9    781539.275 8  19708739.135    19708741.656       -2100.525
     -1632.535
 -33500143.157 9   8011143.907 7  18168609.847    18168612.205         -21.459
         0.342
 88  3 24  6 43 32.0800000  0  4G 6G 9G11G13
  18052067.538 7   2604578.601 8  21034041.983    21034045.627       -3965.935
     -3078.719
 -14732667.164 8 -11575381.630 7  18162071.945    18162074.085       -2145.229
     -1684.544
   1273784.461 9    830555.454 9  19720709.934    19720712.770       -2100.398
     -1631.858
 -33499412.953 8   8011712.920 7  18168749.329    18168750.449         -21.555
       -22.096
 88  3 24  6 44  2.0800000  0  4G 6G 9G11G13
  18170890.086 7   2697167.533 8  21056652.916    21056657.402       -3983.374
     -3086.436
 -14667695.285 8 -11524754.211 8  18174435.478    18174437.932       -2170.389
     -1695.120
   1336766.931 8    879632.695 8  19732694.740    19732698.184       -2086.937
     -1646.224
 -33498361.022 9   8012532.605 8  18168948.167    18168952.089         -42.751
       -51.966
 88  3 24  6 44 32.0800000  0  4G 6G 9G11G13
  18289915.455 7   2789914.532 8  21079304.250    21079306.765       -3972.689
     -3097.373
 -14602140.717 8 -11473672.757 8  18186909.795    18186912.254       -2175.707
     -1703.782
   1399825.329 8    928769.103 9  19744694.023    19744697.114       -2098.364
     -1638.214
 -33496989.401 8   8013601.415 8  18169209.895    18169212.218         -56.458
       -50.791
 88  3 24  6 45  2.0800000  0  4G 6G 9G11G13
  18409139.984 8   2882816.700 8  21101992.995    21101995.009       -3976.078
     -3099.827
 -14536006.247 8 -11422139.416 7  18199495.023    18199496.761       -2221.488
     -1724.922
   1462957.638 8    977963.096 9  19756707.640    19756710.006       -2112.622
     -1632.181
 -33495300.431 9   8014917.513 8  18169530.622    18169533.600         -80.948
       -53.426
 88  3 24  6 45 32.0800000  0  4G 6G 9G11G13
  18528561.715 8   2975872.569 9  21124716.231    21124720.374       -3987.832
     -3106.588
 -14469292.943 8 -11370155.040 7  18212190.748    18212191.920       -2207.134
     -1738.250
   1526163.616 9   1027214.493 8  19768736.221    19768738.171       -2120.828
     -1645.037
 -33493294.958 9   8016480.232 8  18169912.489    18169914.973         -69.401
       -48.797
 88  3 24  6 46  2.0800000  0  4G 6G 9G11G13
  18648176.939 7   3069079.217 9  21147479.581    21147481.520       -3972.426
     -3095.117
 -14402003.307 8 -11317721.572 7  18224995.815    18224998.019       -2251.033
     -1742.998
   1589440.759 8   1076521.349 8  19780778.706    19780781.047       -2099.839
     -1659.789
 -33490975.238 9   8018287.810 7  18170353.988    18170356.277         -71.570
       -58.963
 88  3 24  6 46 32.0800000  0  4G 6G 9G11G13
  18767982.586 8   3162434.231 8  21170276.744    21170280.659       -3985.719
     -3106.265
 -14334139.779 8 -11264840.921 7  18237908.340    18237910.789       -2280.945
     -1775.228
   1652787.558 9   1125882.482 9  19792831.827    19792834.779       -2114.560
     -1641.098
 -33488342.382 9   8020339.396 7  18170855.435    18170857.620         -98.204
       -66.668
 88  3 24  6 47  2.0800000  0  4G 6G 9G11G13
  18887976.196 9   3255935.745 8  21193111.931    21193113.828       -3999.243
     -3115.337
 -14265704.137 9 -11211514.459 8  18250931.117    18250933.678       -2273.330
     -1789.669
   1716203.212 8   1175297.270 9  19804898.423    19804902.155       -2101.945
     -1651.077
 -33485397.664 9   8022633.977 7  18171415.771    18171418.129         -95.772
       -83.762
 88  3 24  6 47 32.0800000  0  4G 6G 9G11G13
  19008155.479 9   3349581.925 7  21215980.935    21215983.453       -4003.095
     -3123.694
 -14196697.535 8 -11157743.107 8  18264063.439    18264065.550       -2304.741
     -1800.736
   1779686.889 8   1224765.054 8  19816979.288    19816982.896       -2115.796
     -1643.577
 -33482141.714 9   8025171.093 8  18172034.601    18172037.543        -122.606
      -114.775
 88  3 24  6 48  2.0800000  0  4G 6G 9G11G13
  19128516.125 9   3443369.426 8  21238884.346    21238886.264       -4021.532
     -3124.011
 -14127123.755 8 -11103529.785 8  18277303.190    18277305.638       -2337.890
     -1809.199
   1843235.671 9   1274283.574 9  19829073.666    19829075.940       -2117.455
     -1656.794
 -33478577.695 9   8027948.263 7  18172712.797    18172716.449        -128.770
       -91.411
 88  3 24  6 48 32.0800000  0  4G 6G 9G11G13
  19249054.582 8   3537295.494 7  21261822.783    21261825.424       -4021.165
     -3132.673
 -14056985.211 7 -11048876.396 8  18290650.471    18290651.942       -2322.093
     -1839.529
   1906848.024 8   1323851.638 9  19841177.800    19841180.545       -2115.182
     -1658.397
 -33474708.131 8   8030963.517 7  18173449.586    18173453.450        -131.832
      -121.013
 88  3 24  6 49  2.0800000  0  4G 6G 9G11G13
  19369769.055 8   3631358.703 7  21284794.343    21284796.206       -4017.377
     -3139.173
 -13986283.028 7 -10993783.811 8  18304104.302    18304107.717       -2357.451
     -1849.210
   1970523.477 8   1373468.864 9  19853294.622    19853297.229       -2137.606
     -1662.492
 -33470533.051 8   8034216.815 7  18174244.218    18174246.892        -144.918
      -114.303
 88  3 24  6 49 32.0800000  0  4G 6G 9G11G13
  19490656.163 8   3725556.443 8  21307797.848    21307800.787       -4031.460
     -3139.440
 -13915019.881 8 -10938254.080 8  18317666.237    18317668.503       -2390.018
     -1854.516
   2034260.474 8   1423134.062 9  19865424.203    19865426.389       -2127.447
     -1668.413
 -33466053.956 8   8037707.020 8  18175097.094    18175099.066        -166.879
      -113.010
 88  3 24  6 50  2.0800000  0  4G 6G 9G11G13
  19611712.915 7   3819886.371 7  21330833.360    21330836.390       -4041.603
     -3151.532
 -13843198.003 8 -10882289.011 8  18331332.405    18331335.025       -2402.961
     -1861.389
   2098057.406 8   1472845.936 8  19877563.735    19877566.625       -2122.192
     -1658.969
 -33461272.702 8   8041432.687 7  18176005.624    18176008.448        -141.983
      -135.585
 88  3 24  6 50 32.0800000  0  4G 6G 9G11G13
  19732936.410 7   3914346.201 8  21353901.709    21353903.745       -4017.871
     -3142.186
 -13770819.569 8 -10825890.247 7  18345105.907    18345107.602       -2424.906
     -1872.350
   2161913.199 8   1522603.693 8  19889714.027    19889717.194       -2132.965
     -1650.002
 -33456190.884 8   8045392.563 8  18176973.166    18176976.907        -167.294
      -150.858
 88  3 24  6 51  2.0800000  0  4G 6G 9G11G13
  19854324.142 8   4008933.987 7  21377001.727    21377003.788       -4050.407
     -3147.226
 -13697886.318 8 -10769059.160 7  18358984.733    18358987.149       -2445.161
     -1906.203
   2225826.696 8   1572406.392 8  19901877.355    19901880.066       -2133.914
     -1645.777
 -33450809.783 9   8049585.633 7  18177996.247    18178000.409        -182.884
      -143.594
 88  3 24  6 51 32.0800000  0  4G 6G 9G11G13
  19975871.328 6   4103646.055 9  21400129.367    21400133.689       -4080.805
     -3146.107
 -13624402.434 9 -10711799.006 7  18372967.888    18372970.642       -2466.660
     -1908.017
   2289794.952 8   1622251.774 9  19914050.209    19914052.906       -2126.290
     -1663.821
 -33445132.510 8   8054009.494 8  18179077.163    18179079.698        -172.445
      -145.359
 88  3 24  6 52  2.0800000  0  4G 6G 9G11G13
  20097575.518 8   4198480.447 8  21423291.005    21423293.129       -4055.255
     -3160.008
 -13550369.782 8 -10654111.241 7  18387055.354    18387058.852       -2474.714
     -1918.574
   2353817.256 9   1672139.266 9  19926232.417    19926236.378       -2124.026
     -1666.661
 -33439159.897 9   8058663.479 8  18180214.545    18180215.863        -202.293
      -147.242
 88  3 24  6 52 32.0800000  0  4G 6G 9G11G13
  20219433.890 8   4293435.013 8  21446480.961    21446482.054       -4068.094
     -3169.210
 -13475790.329 9 -10595997.409 7  18401247.536    18401250.246       -2487.569
     -1954.527
   2417892.305 8   1722067.876 8  19938426.536    19938429.484       -2134.600
     -1653.799
 -33432893.962 9   8063546.022 7  18181406.891    18181408.654        -219.933
      -163.472
 88  3 24  6 53  2.0800000  0  4G 6G 9G11G13
  20341443.891 8   4388507.736 9  21469697.200    21469699.797       -4072.105
     -3168.545
 -13400665.996 7 -10537458.989 7  18415543.376    18415545.885       -2507.656
     -1952.414
   2482019.568 8   1772037.164 9  19950629.298    19950632.127       -2131.952
     -1657.539
 -33426335.153 8   8068656.806 8  18182654.879    18182656.487        -222.955
      -179.094
 88  3 24  6 53 32.0800000  0  4G 6G 9G11G13
  20463603.358 9   4483696.897 9  21492944.646    21492946.269       -4082.368
     -3175.101
 -13324998.329 8 -10478497.192 7  18429943.007    18429942.987       -2546.340
     -1959.275
   2546198.280 8   1822046.534 8  19962841.117    19962845.057       -2147.239
     -1671.682
 -33419484.398 8   8073995.062 7  18183957.941    18183960.934        -222.963
      -185.183
 88  3 24  6 54  2.0800000  0  4G 6G 9G11G13
  20585907.584 9   4578998.869 8  21516218.454    21516221.221       -4065.375
     -3161.362
 -13248791.816 8 -10419115.504 7  18444443.798    18444446.068       -2550.151
     -1975.965
   2610425.407 8   1872093.635 8  19975064.488    19975067.276       -2128.077
     -1670.340
 -33412344.611 8   8079558.548 7  18185316.572    18185319.587        -249.900
      -184.537
 88  3 24  6 54 32.0800000  0  3G 9G11G13
 -13172049.325 7 -10359316.179 7  18459047.403    18459050.459       -2552.073
     -1990.896
   2674699.062 8   1922176.968 8  19987295.779    19987297.350       -2130.182
     -1661.466
 -33404918.995 9   8085344.735 7  18186730.390    18186732.025        -257.332
      -187.271
 88  3 24  6 55  2.0800000  0  4G 3G 9G11G13
 -73760809.018 7  93473866.387 9  20603104.783    20603106.334        2114.584
      1642.067
 -13094772.467 7 -10299100.469 8  18473752.926    18473756.482       -2572.687
     -2021.114
   2739019.068 8   1972296.453 9  19999535.600    19999538.199       -2128.746
     -1683.880
 -33397207.842 9   8091353.446 8  18188197.581    18188200.214        -268.026
      -199.581
 88  3 24  6 55 32.0800000  0  4G 3G 9G11G13
 -73824122.923 8  93424530.887 8  20591055.951    20591059.457        2104.449
      1639.140
 -13016962.049 8 -10238468.992 8  18488559.544    18488561.730       -2589.497
     -2020.207
   2803385.656 8   2022452.218 9  20011783.654    20011787.027       -2147.422
     -1667.562
 -33389211.316 9   8097584.499 7  18189719.541    18189721.874        -276.455
      -212.238
 88  3 24  6 56  2.0800000  0  4G 3G 9G11G13
 -73887211.123 8  93375371.284 9  20579049.739    20579053.235        2096.044
      1645.534
 -12938622.159 7 -10177424.937 8  18503467.491    18503470.227       -2624.688
     -2029.024
   2867795.984 9   2072642.083 8  20024039.977    20024042.867       -2132.128
     -1654.308
 -33380932.137 8   8104035.820 8  18191294.481    18191296.382        -272.045
      -215.848
 88  3 24  6 56 32.0800000  0  4G 3G 9G11G13
 -73950074.324 8  93326386.991 9  20567087.968    20567091.225        2086.466
      1631.833
 -12859755.838 9 -10115970.675 7  18518475.737    18518476.858       -2636.075
     -2031.901
   2932248.154 9   2122864.525 9  20036304.971    20036307.560       -2152.757
     -1668.967
 -33372372.794 8   8110705.440 8  18192923.359    18192925.209        -293.552
      -236.242
 88  3 24  6 57  2.0800000  0  4G 3G 9G11G13
 -74012712.750 8  93277577.862 8  20555168.490    20555171.782        2072.049
      1630.603
 -12780365.601 8 -10054108.167 8  18533583.904    18533584.561       -2659.711
     -2067.469
   2996740.801 8   2173118.523 9  20048577.085    20048580.015       -2147.733
     -1676.510
 -33363534.510 8   8117592.436 7  18194604.705    18194607.417        -277.141
      -230.003
 88  3 24  6 57 32.0800000  0  4G 3G 9G11G13
 -74075126.305 8  93228943.937 9  20543290.954    20543294.136        2078.755
      1611.595
 -12700453.364 8  -9991838.906 7  18548789.580    18548791.083       -2677.414
     -2077.181
   3061273.558 9   2223403.774 9  20060857.504    20060860.286       -2132.016
     -1667.046
 -33354418.654 8   8124695.706 8  18196340.239    18196342.438        -313.839
      -232.886
 88  3 24  6 58  2.0800000  0  4G 3G 9G11G13
 -74137314.613 8  93180485.533 8  20531457.132    20531459.088        2072.679
      1619.113
 -12620021.078 9  -9929164.409 7  18564096.561    18564097.717       -2678.826
     -2084.513
   3125845.833 9   2273719.824 9  20073145.484    20073148.461       -2156.457
     -1670.203
 -33345025.559 9   8132015.004 7  18198127.473    18198129.450        -329.469
      -247.762
 88  3 24  6 58 32.0800000  0  4G 3G 9G11G13
 -74199279.314 8  93132201.363 7  20519665.725    20519668.658        2073.213
      1615.702
 -12539072.813 8  -9866087.866 8  18579500.286    18579501.613       -2701.162
     -2107.759
   3190455.139 9   2324064.730 8  20085440.086    20085442.977       -2136.003
     -1666.823
 -33335358.560 9   8139547.749 8  18199967.750    18199968.790        -329.126
      -265.689
 88  3 24  6 59  2.0800000  0  4G 3G 9G11G13
 -74261020.385 9  93084091.466 7  20507917.131    20507919.896        2071.706
      1612.477
 -12457610.909 9  -9802611.066 7  18595001.631    18595003.790       -2724.096
     -2118.490
   3255100.374 9   2374437.635 9  20097742.121    20097745.274       -2160.301
     -1681.102
 -33325419.151 9   8147292.743 8  18201858.613    18201860.325        -344.157
      -257.145
 88  3 24  6 59 32.0800000  0  4G 3G 9G11G13
 -74322537.245 8  93036156.261 8  20496210.857    20496213.497        2044.537
      1599.838
 -12375637.459 8  -9738735.678 8  18610600.123    18610602.238       -2735.372
     -2131.421
   3319781.140 9   2424838.208 9  20110050.260    20110053.419       -2155.748
     -1682.643
 -33315208.521 9   8155249.084 8  18203801.870    18203803.686        -346.255
      -274.774
 88  3 24  7  0  2.0800000  0  4G 3G 9G11G13
 -74383832.251 8  92988393.960 8  20484548.197    20484549.253        2022.464
      1592.730
 -12293156.864 8  -9674465.112 8  18626296.463    18626298.524       -2766.288
     -2149.012
   3384494.376 9   2475264.099 8  20122365.329    20122366.998       -2165.038
     -1671.918
 -33304729.693 8   8163414.415 7  18205795.822    18205797.409        -348.424
      -272.984
 88  3 24  7  0 32.0800000  0  4G 3G 9G11G13
 -74444903.769 9  92940805.777 8  20472926.606    20472929.425        2028.246
      1580.178
 -12210170.226 8  -9609800.198 8  18642086.910    18642089.580       -2755.292
     -2156.034
   3449240.560 9   2525715.672 9  20134685.925    20134688.674       -2148.076
     -1684.321
 -33293983.314 9   8171788.213 8  18207840.663    18207842.037        -371.828
      -287.040
 88  3 24  7  1  2.0800000  0  4G 3G 9G11G13
 -74505753.521 9  92893390.399 8  20461345.874    20461349.056        2024.450
      1571.770
 -12126681.085 8  -9544743.747 7  18657975.384    18657977.325       -2778.489
     -2171.059
   3514017.482 8   2576191.175 9  20147012.138    20147014.466       -2159.831
     -1675.827
 -33282971.382 8   8180368.956 8  18209935.565    18209937.485        -362.179
      -294.801
 88  3 24  7  1 32.0800000  0  4G 3G 9G11G13
 -74566380.586 9  92846148.567 9  20449809.370    20449811.834        2013.820
      1580.408
 -12042691.294 8  -9479297.171 8  18673957.328    18673959.944       -2798.529
     -2178.478
   3578825.251 8   2626690.722 9  20159344.627    20159347.698       -2164.607
     -1670.029
 -33271694.726 8   8189155.976 8  18212081.620    18212084.297        -390.409
      -300.697
 88  3 24  7  2  2.0800000  0  4G 3G 9G11G13
 -74626785.057 9  92799080.159 8  20438314.770    20438318.201        2005.232
      1552.526
 -11958203.165 7  -9413462.284 8  18690035.604    18690037.679       -2835.075
     -2202.830
   3643662.812 8   2677213.485 9  20171683.241    20171685.725       -2167.071
     -1675.100
 -33260154.388 8   8198148.457 8  18214277.861    18214279.697        -380.050
      -302.238
 88  3 24  7  2 32.0800000  0  4G 3G 9G11G13
 -74686967.319 8  92752184.916 8  20426861.830    20426864.760        2013.980
      1571.236
 -11873220.286 8  -9347241.881 7  18706206.714    18706209.176       -2842.061
     -2205.639
   3708528.086 8   2727757.831 8  20184025.844    20184029.060       -2168.076
     -1683.656
 -33248352.636 9   8207344.635 7  18216524.029    18216526.415        -403.008
      -323.788
 88  3 24  7  3  2.0800000  0  4G 3G 9G11G13
 -74746928.373 8  92705462.043 8  20415452.546    20415454.065        1971.835
      1564.842
 -11787745.322 7  -9280638.033 7  18722472.020    18722474.936       -2846.295
     -2219.613
   3773420.230 9   2778323.122 9  20196374.049    20196377.775       -2163.395
     -1674.689
 -33236291.345 8   8216743.033 8  18218818.675    18218820.802        -401.740
      -325.683
 88  3 24  7  3 32.0800000  0  4G 3G 9G11G13
 -74806668.930 8  92658910.990 7  20404083.240    20404086.148        1983.454
      1541.354
 -11701781.761 8  -9213653.458 8  18738830.661    18738832.247       -2873.456
     -2237.714
   3838337.412 9   2828907.935 9  20208727.746    20208731.701       -2167.765
     -1685.781
 -33223972.504 9   8226342.129 8  18221162.639    18221165.401        -420.304
      -322.986
 88  3 24  7  4  2.0800000  0  4G 3G 9G11G13
 -74866188.849 7  92612531.861 8  20392756.694    20392761.334        1968.972
      1546.300
 -11615331.662 8  -9146289.783 7  18755281.873    18755285.452       -2901.557
     -2247.855
   3903279.091 8   2879511.831 8  20221085.334    20221088.539       -2142.167
     -1660.758
 -33211397.471 9   8236140.850 8  18223556.171    18223558.073        -422.330
      -332.798
 88  3 24  7  4 32.0800000  0  4G 3G 9G11G13
 -74925488.985 9  92566323.991 8  20381474.064    20381475.137        1967.003
      1534.332
 -11528398.297 8  -9078549.507 7  18771825.518    18771827.407       -2917.458
     -2261.985
   3968243.991 8   2930133.795 8  20233448.186    20233451.588       -2169.041
     -1690.535
 -33198568.189 8   8246137.709 7  18225996.211    18225999.536        -426.612
      -337.943
 88  3 24  7  5  2.0800000  0  4G 3G 9G11G13
 -74984568.934 8  92520287.683 8  20370230.977    20370233.297        1957.473
      1554.217
 -11440983.966 8  -9010434.471 8  18788459.482    18788460.827       -2930.951
     -2273.388
   4033231.618 8   2980773.487 9  20245815.094    20245818.610       -2182.765
     -1686.620
 -33185485.946 8   8256331.672 7  18228486.918    18228488.498        -449.993
      -330.629
 88  3 24  7  5 32.0800000  0  4G 3G 9G11G13
 -75043427.811 8  92474423.663 8  20359029.789    20359032.064        1951.349
      1521.395
 -11353090.188 8  -8941945.822 8  18805184.005    18805187.650       -2928.184
     -2286.747
   4098242.115 9   3031430.998 9  20258187.123    20258189.887       -2161.019
     -1691.019
 -33172150.382 9   8266723.029 8  18231023.999    18231027.028        -451.500
      -347.425
 88  3 24  7  6  2.0800000  0  4G 3G 9G11G13
 -75102067.865 7  92428730.143 9  20347870.112    20347873.860        1937.689
      1526.963
 -11264722.366 8  -8873087.818 8  18822001.624    18822003.216       -2965.958
     -2295.565
   4163271.731 7   3082103.412 9  20270561.096    20270564.375       -2164.145
     -1684.917
 -33158566.165 8   8277308.147 8  18233609.663    18233611.763        -450.639
      -360.269
 88  3 24  7  6 32.0800000  0  4G 3G 9G11G13
 -75160490.145 9  92383206.308 8  20336753.093    20336756.690        1946.325
      1511.329
 -11175883.706 8  -8803862.905 7  18838905.915    18838907.732       -2973.334
     -2310.260
   4228319.309 8   3132789.825 8  20282938.950    20282942.024       -2169.416
     -1695.313
 -33144735.270 8   8288085.464 8  18236240.664    18236243.715        -458.199
      -366.706
 88  3 24  7  7  2.0800000  0  4G 3G 9G11G13
 -75218694.009 8  92337852.673 8  20325677.032    20325680.545        1925.672
      1507.476
 -11086575.594 8  -8734272.178 8  18855900.764    18855903.534       -2966.564
     -2326.198
   4293385.358 7   3183490.626 8  20295320.108    20295323.937       -2164.161
     -1699.619
 -33130657.471 9   8299055.181 8  18238919.369    18238922.464        -464.817
      -368.527
 88  3 24  7  7 32.0800000  0  4G 3G 9G11G13
 -75276680.657 8  92292668.287 9  20314642.962    20314646.057        1924.962
      1509.664
 -10996801.484 9  -8664318.333 7  18872984.439    18872985.769       -3002.146
     -2334.916
   4358467.875 9   3234204.281 9  20307705.814    20307708.802       -2163.786
     -1689.143
 -33116334.986 8   8310215.552 7  18241646.609    18241647.032        -484.992
      -369.565
 88  3 24  7  8  2.0800000  0  4G 3G 9G11G13
 -75334450.120 8  92247653.146 8  20303649.389    20303653.487        1944.977
      1496.329
 -10906564.129 8  -8594003.531 8  18890155.721    18890158.206       -3007.074
     -2348.003
   4423566.384 8   3284930.364 9  20320092.813    20320096.841       -2156.226
     -1695.294
 -33101769.441 8   8321565.347 8  18244417.720    18244419.546        -481.133
      -387.156
 88  3 24  7  8 32.0800000  0  4G 3G 9G11G13
 -75392000.669 8  92202808.598 9  20292698.021    20292700.512        1919.954
      1496.000
 -10815864.502 9  -8523328.506 8  18907415.709    18907416.865       -3033.334
     -2361.580
   4488681.602 8   3335669.482 9  20332483.981    20332487.465       -2167.143
     -1694.990
 -33086960.258 9   8333104.968 8  18247234.836    18247237.787        -492.121
      -392.898
 88  3 24  7  9  2.0800000  0  4G 3G 9G11G13
 -75449333.846 9  92158133.403 8  20281787.868    20281791.016        1910.600
      1490.022
 -10724707.045 7  -8452296.750 7  18924762.280    18924764.527       -3048.413
     -2364.475
   4553811.697 9   3386420.185 9  20344878.112    20344882.006       -2173.315
     -1694.089
 -33071910.323 9   8344832.208 8  18250099.636    18250100.619        -500.941
      -400.634
 88  3 24  7  9 32.0800000  0  4G 3G 9G11G13
 -75506451.799 8  92113625.937 8  20270918.446    20270922.102        1909.101
      1479.272
 -10633096.695 8  -8380912.071 8  18942195.196    18942197.668       -3061.108
     -2390.275
   4618953.492 8   3437180.009 9  20357273.602    20357277.724       -2173.204
     -1695.381
 -33056623.286 8   8356744.183 8  18253007.832    18253009.753        -507.105
      -405.207
 88  3 24  7 10  2.0800000  0  4G 3G 9G11G13
 -75563354.995 8  92069285.817 8  20260090.248    20260094.049        1880.728
      1472.064
 -10541035.443 8  -8309176.055 7  18959715.461    18959715.288       -3094.744
     -2409.643
   4684106.168 8   3487948.313 9  20369672.607    20369676.448       -2173.690
     -1691.137
 -33041100.390 8   8368839.942 8  18255961.856    18255964.285        -505.901
      -402.343
 88  3 24  7 10 32.0800000  0  4G 3G 9G11G13
 -75620043.554 8  92025112.935 9  20249302.806    20249306.552        1892.131
      1463.290
 -10448527.087 8  -8237091.642 8  18977317.536    18977320.111       -3088.660
     -2407.226
   4749269.006 8   3538724.543 9  20382072.505    20382076.567       -2166.617
     -1691.025
 -33025343.567 9   8381117.993 8  18258961.728    18258962.133        -532.639
      -421.152
 88  3 24  7 11  2.0800000  0  4G 3G 9G11G13
 -75676517.359 8  91981107.400 9  20238556.405    20238559.313        1868.025
      1465.695
 -10355573.038 8  -8164659.934 7  18995004.981    18995008.557       -3095.270
     -2412.377
   4814441.724 8   3589508.456 8  20394474.063    20394477.889       -2157.063
     -1676.088
 -33009353.357 8   8393577.894 8  18262003.664    18262005.392        -546.610
      -409.923
 88  3 24  7 11 32.0800000  0  4G 3G 9G11G13
 -75732775.653 8  91937269.785 8  20227850.130    20227854.885        1862.682
      1462.290
 -10262175.564 8  -8091882.697 8  19012779.640    19012782.111       -3114.321
     -2431.883
   4879624.657 8   3640300.331 9  20406879.266    20406881.342       -2175.707
     -1687.359
 -32993130.346 9   8406219.204 7  18265090.748    18265093.239        -540.598
      -411.011
 88  3 24  7 12  2.0800000  0  4G 3G 9G11G13
 -75788818.549 8  91893600.033 9  20217186.430    20217189.514        1869.652
      1447.296
 -10168337.633 8  -8018762.245 8  19030636.718    19030638.911       -3117.479
     -2455.470
   4944816.898 8   3691099.477 9  20419283.519    20419286.769       -2179.304
     -1697.923
 -32976675.499 8   8419041.164 8  18268222.219    18268223.456        -557.782
      -408.643
 88  3 24  7 12 32.0800000  0  4G 3G 9G11G13
 -75844647.554 8  91850096.931 8  20206563.189    20206565.588        1853.113
      1447.377
 -10074062.969 8  -7945301.487 8  19048575.735    19048578.453       -3158.037
     -2449.573
   5010016.711 8   3741904.513 9  20431691.531    20431693.855       -2163.331
     -1690.634
 -32959991.984 8   8432041.317 8  18271397.450    18271399.251        -573.237
      -430.242
 88  3 24  7 13  2.0800000  0  4G 3G 9G11G13
 -75900265.193 8  91806758.528 8  20195979.581    20195982.098        1839.556
      1450.204
  -9979356.718 9  -7871504.415 7  19066598.392    19066599.949       -3166.130
     -2468.432
   5075221.445 8   3792713.378 9  20444099.639    20444102.875       -2169.113
     -1689.957
 -32943082.498 9   8445217.540 8  18274614.536    18274616.335        -558.460
      -444.397
 88  3 24  7 13 32.0800000  0  4G 3G 9G11G13
 -75955671.432 9  91763584.864 8  20185435.184    20185438.369        1866.031
      1445.202
  -9884221.267 8  -7797372.925 7  19084700.707    19084703.811       -3176.417
     -2470.215
   5140430.564 8   3843525.654 9  20456507.986    20456511.030       -2170.094
     -1695.537
 -32925948.715 8   8458568.535 7  18277875.362    18277876.418        -573.667
      -454.190
 88  3 24  7 14  2.0800000  0  4G 3G 9G11G13
 -76010865.747 8  91720576.321 9  20174931.701    20174934.597        1845.027
      1432.439
  -9788659.171 8  -7722908.965 8  19102885.890    19102887.914       -3179.105
     -2495.878
   5205643.894 8   3894341.221 9  20468917.625    20468920.894       -2156.099
     -1686.850
 -32908591.095 9   8472093.950 7  18281177.933    18281180.106        -570.262
      -446.790
 88  3 24  7 14 32.0800000  0  4G 3G 9G11G13
 -76065848.349 8  91677732.759 9  20164468.327    20164473.266        1826.973
      1420.887
  -9692672.811 8  -7648114.422 8  19121151.110    19121154.298       -3196.034
     -2493.846
   5270861.139 8   3945159.830 9  20481328.492    20481331.955       -2162.175
     -1676.982
 -32891010.784 8   8485792.919 7  18284523.285    18284523.525        -592.463
      -470.390
 88  3 24  7 15  2.0800000  0  4G 3G 9G11G13
 -76120618.740 8  91635054.570 8  20154046.176    20154050.015        1829.461
      1420.390
  -9596264.564 8  -7572991.134 9  19139497.892    19139500.607       -3216.114
     -2513.376
   5336082.122 8   3995981.362 9  20493740.031    20493742.708       -2161.928
     -1685.247
 -32873208.500 9   8499664.828 8  18287910.572    18287913.031        -585.844
      -458.944
 88  3 24  7 15 32.0800000  0  4G 3G 9G11G13
 -76175179.135 9  91592540.001 8  20143663.765    20143667.754        1821.016
      1406.273
  -9499439.085 8  -7497542.712 8  19157922.902    19157925.814       -3230.523
     -2534.708
   5401304.418 8   4046803.911 9  20506150.643    20506153.373       -2161.106
     -1694.064
 -32855187.740 8   8513706.980 8  18291340.953    18291342.582        -616.832
      -464.841
 88  3 24  7 16  2.0800000  0  4G 3G 9G11G13
 -76229530.684 8  91550188.178 8  20133320.567    20133324.405        1808.257
      1405.185
  -9402200.059 9  -7421772.063 8  19176428.160    19176429.700       -3240.029
     -2533.012
   5466526.788 9   4097626.512 9  20518562.867    20518565.133       -2181.999
     -1697.544
 -32836950.186 9   8527918.053 7  18294810.562    18294813.162        -614.416
      -467.898
 88  3 24  7 16 32.0800000  0  4G 3G 9G11G13
 -76283671.534 8  91508000.525 9  20123018.291    20123021.038        1798.528
      1401.016
  -9304548.696 7  -7345680.098 7  19195009.536    19195011.740       -3255.340
     -2527.264
   5531750.206 8   4148449.926 8  20530974.329    20530977.751       -2168.339
     -1680.574
 -32818495.841 8   8542298.065 8  18298322.757    18298323.952        -621.099
      -484.159
 88  3 24  7 17  2.0800000  0  4G 3G 9G11G13
 -76337603.664 8  91465975.518 8  20112755.745    20112758.095        1796.591
      1410.038
  -9206489.593 8  -7269270.430 8  19213670.406    19213672.354       -3285.084
     -2543.513
   5596972.452 9   4199272.460 9  20543384.794    20543388.366       -2172.063
     -1686.738
 -32799827.782 8   8556844.620 8  18301874.855    18301877.137        -615.836
      -478.865
 88  3 24  7 17 32.0800000  0  4G 3G 9G11G13
 -76391327.687 7  91424112.673 9  20102531.758    20102535.412        1803.504
      1399.357
  -9108025.876 8  -7192545.473 8  19232405.983    19232408.927       -3284.287
     -2560.744
   5662192.498 8   4250093.237 9  20555797.432    20555799.537       -2168.515
     -1696.991
 -32780947.403 8   8571556.603 8  18305468.233    18305470.059        -640.229
      -492.927
 88  3 24  7 18  2.0800000  0  4G 3G 9G11G13
 -76444844.062 8  91382411.622 8  20092347.744    20092350.943        1791.009
      1371.345
  -9009160.651 8  -7115507.644 8  19251220.346    19251222.078       -3301.136
     -2568.201
   5727410.049 9   4300912.107 7  20568206.613    20568209.445       -2174.344
     -1677.703
 -32761855.793 8   8586433.170 8  18309100.390    18309103.276        -650.931
      -497.867
 88  3 24  7 18 32.0800000  0  4G 3G 9G11G13
 -76498152.486 7  91340872.623 9  20082202.868    20082206.677        1782.500
      1387.302
  -8909895.948 7  -7038158.544 8  19270109.641    19270110.953       -3315.889
     -2589.495
   5792625.317 9   4351729.191 8  20580617.132    20580620.509       -2182.597
     -1683.215
 -32742553.899 8   8601473.612 8  18312773.504    18312775.475        -632.757
      -503.279
 88  3 24  7 19  2.0800000  0  4G 3G 9G11G13
 -76551252.691 7  91299495.865 9  20072098.632    20072101.239        1737.931
      1381.436
  -8810234.155 8  -6960500.011 7  19289073.898    19289076.813       -3315.809
     -2589.414
   5857838.102 9   4402544.338 9  20593027.151    20593030.037       -2169.472
     -1685.992
 -32723042.068 9   8616677.641 8  18316486.413    18316488.353        -647.279
      -500.303
 88  3 24  7 19 32.0800000  0  4G 3G 9G11G13
 -76604147.528 8  91258279.135 8  20062032.599    20062036.469        1767.293
      1370.929
  -8710181.188 9  -6882536.693 8  19308113.486    19308116.213       -3332.627
     -2610.926
   5923044.610 9   4453354.597 8  20605435.805    20605438.485       -2173.945
     -1682.513
 -32703325.153 9   8632041.475 7  18320238.235    18320241.614        -667.757
      -511.885
 88  3 24  7 20  2.0800000  0  4G 3G 9G11G13
 -76656837.717 7  91217221.867 8  20052006.507    20052009.783        1763.090
      1357.488
  -8609740.184 8  -6804270.982 9  19327227.686    19327229.944       -3350.514
     -2612.536
   5988244.408 9   4504159.613 9  20617842.267    20617844.954       -2164.735
     -1681.363
 -32683404.367 9   8647564.158 7  18324028.610    18324032.182        -667.151
      -534.336
 88  3 24  7 20 32.0800000  0  4G 3G 9G11G13
 -76709322.964 8  91176324.289 8  20042019.432    20042022.466        1735.228
      1366.430
  -8508913.792 8  -6725704.975 8  19346413.758    19346416.304       -3367.395
     -2616.718
   6053437.656 9   4554959.532 8  20630248.697    20630251.502       -2171.019
     -1682.687
 -32663280.582 8   8663245.037 7  18327859.056    18327861.115        -683.929
      -507.890
 88  3 24  7 21  2.0800000  0  4G 3G 9G11G13
 -76761603.290 8  91135586.396 8  20032070.950    20032074.071        1730.962
      1347.639
  -8407704.782 8  -6646840.846 7  19365673.859    19365676.517       -3374.205
     -2635.272
   6118624.359 7   4605754.351 8  20642651.640    20642656.300       -2165.700
     -1691.883
 -32642954.336 7   8679083.672 8  18331726.327    18331728.279        -683.522
      -510.897
 88  3 24  7 21 32.0800000  0  4G 3G 9G11G13
 -76813679.119 8  91095007.846 8  20022161.130    20022164.031        1730.659
      1337.511
  -8306115.942 8  -6567680.725 8  19385004.724    19385008.400       -3399.675
     -2642.710
   6183803.718 9   4656543.449 9  20655055.950    20655059.635       -2168.539
     -1693.517
 -32622427.506 8   8695078.597 8  18335633.506    18335634.294        -688.960
      -534.180
 88  3 24  7 22  2.0800000  0  4G 3G 9G11G13
 -76865551.173 7  91054588.065 8  20012289.667    20012293.497        1725.013
      1348.739
  -8204150.362 7  -6488227.052 8  19404408.759    19404411.104       -3412.012
     -2657.381
   6248975.050 9   4707326.274 9  20667456.957    20667460.544       -2169.344
     -1684.513
 -32601701.347 8   8711228.856 7  18339577.037    18339578.518        -684.104
      -532.745
 88  3 24  7 22 32.0800000  0  4G 3G 9G11G13
 -76917220.978 7  91014325.908 8  20002457.890    20002459.825        1711.775
      1331.440
  -8101812.497 7  -6408483.269 9  19423882.624    19423884.305       -3439.523
     -2647.861
   6314136.539 9   4758101.454 9  20679857.209    20679860.252       -2191.473
     -1684.097
 -32580778.317 8   8727532.526 8  18343557.776    18343560.211        -699.351
      -533.143
 88  3 24  7 23  2.0800000  0  4G 3G 9G11G13
 -76968689.031 8  90974220.941 8  19992662.860    19992666.461        1712.676
      1324.493
  -7999105.671 8  -6328451.991 7  19443427.762    19443430.127       -3437.546
     -2662.756
   6379287.550 8   4808868.470 8  20692254.827    20692258.241       -2185.604
     -1688.043
 -32559659.688 8   8743988.595 8  18347577.495    18347579.121        -701.225
      -539.412
 88  3 24  7 23 32.0800000  0  4G 3G 9G11G13
 -77019954.644 7  90934273.727 8  19982908.514    19982911.229        1705.675
      1317.975
  -7896031.706 8  -6248134.637 7  19463041.392    19463043.838       -3431.126
     -2668.360
   6444428.808 8   4859627.877 9  20704650.804    20704654.329       -2171.338
     -1680.282
 -32538346.038 8   8760596.618 7  18351631.880    18351635.009        -686.241
      -548.696
 88  3 24  7 24  2.0800000  0  4G 3G 9G11G13
 -77071018.685 8  90894483.586 7  19973190.620    19973193.121        1697.717
      1325.089
  -7792594.533 8  -6167534.261 7  19482724.833    19482727.624       -3459.970
     -2684.964
   6509558.963 8   4910378.625 8  20717045.408    20717049.040       -2168.594
     -1690.876
 -32516839.308 9   8777355.130 8  18355725.823    18355727.933        -720.970
      -560.490
 88  3 24  7 24 32.0800000  0  3G 3G 9G13
 -77121881.020 8  90854850.614 8  19963511.435    19963514.034        1686.257
      1320.790
  -7688796.112 7  -6086652.394 9  19502476.768    19502479.984       -3455.057
     -2695.484
 -32495139.715 8   8794263.890 8  18359854.561    18359856.121        -727.684
      -565.094
 88  3 24  7 25  2.0800000  0  3G 3G 9G13
 -77172543.721 7  90815373.192 7  19953871.022    19953874.671        1673.921
      1305.410
  -7584641.400 8  -6005492.904 9  19522298.335    19522299.963       -3464.914
     -2705.506
 -32473250.366 8   8811320.536 7  18364020.601    18364022.149        -741.328
      -569.481
 88  3 24  7 25 32.0800000  0  3G 3G 9G13
 -77223008.898 9  90776049.698 8  19944267.348    19944270.056        1677.964
      1318.646
  -7480135.346 9  -5924059.623 8  19542183.751    19542186.537       -3483.247
     -2719.786
 -32451174.889 8   8828522.195 8  18368221.088    18368223.663        -735.515
      -574.427
 88  3 24  7 26  2.0800000  0  3G 3G 9G13
 -77273276.370 8  90736880.259 8  19934702.532    19934704.792        1678.538
      1309.412
  -7375280.512 9  -5842354.581 9  19562136.973    19562138.588       -3504.443
     -2731.157
 -32428914.068 8   8845868.301 7  18372456.645    18372460.402        -777.133
      -578.951
 88  3 24  7 26 32.0800000  0  3G 3G 9G13
 -77323344.881 8  90697865.852 8  19925175.012    19925176.577        1655.891
      1298.383
  -7270078.420 8  -5760378.933 9  19582157.214    19582158.244       -3511.436
     -2726.689
 -32406466.162 8   8863360.165 8  18376729.378    18376730.961        -749.542
      -577.211
 88  3 24  7 27  2.0800000  0  3G 3G 9G13
 -77373214.565 9  90659006.366 8  19915685.094    19915688.002        1658.419
      1289.640
  -7164531.392 8  -5678134.500 8  19602242.527    19602243.257       -3530.120
     -2741.497
 -32383832.685 8   8880996.643 8  18381035.513    18381036.799        -744.637
      -589.278
 88  3 24  7 27 32.0800000  0  3G 3G 9G13
 -77422887.367 9  90620300.304 8  19906233.399    19906234.884        1661.170
      1280.568
  -7058644.616 8  -5595625.343 8  19622391.304    19622393.876       -3538.302
     -2765.755
 -32361017.018 9   8898775.095 8  18385377.119    18385379.360        -753.999
      -603.377
 88  3 24  7 28  2.0800000  0  3G 3G 9G13
 -77472365.519 9  90581745.904 8  19896817.064    19896819.880        1654.368
      1280.251
  -6952422.669 8  -5512854.991 8  19642604.515    19642606.586       -3536.539
     -2756.876
 -32338022.017 8   8916693.276 8  18389754.202    18389754.861        -759.892
      -590.664
 88  3 24  7 28 32.0800000  0  3G 3G 9G13
 -77521647.512 8  90543344.380 8  19887439.971    19887442.808        1654.049
      1266.580
  -6845866.812 9  -5429824.475 8  19662880.701    19662883.794       -3563.174
     -2762.431
 -32314846.829 9   8934751.863 9  18394163.311    18394165.609        -769.541
      -613.748
 88  3 24  7 29  2.0800000  0  3G 3G 9G13
 -77570733.532 8  90505095.551 8  19878098.740    19878100.996        1633.802
      1278.971
  -6738980.397 9  -5346536.384 8  19683221.352    19683224.841       -3561.619
     -2778.450
 -32291493.136 8   8952949.531 8  18398608.235    18398610.922        -769.789
      -607.832
 88  3 24  7 29 32.0800000  0  3G 3G 9G13
 -77619625.969 8  90466997.567 8  19868793.692    19868797.417        1645.604
      1259.845
  -6631768.268 9  -5262994.478 8  19703622.905    19703625.452       -3577.559
     -2779.712
 -32267964.086 8   8971283.866 8  18403084.859    18403087.163        -788.161
      -609.883
 88  3 24  7 30  2.0800000  0  3G 3G 9G13
 -77668325.396 8  90429049.981 8  19859526.307    19859528.679        1628.324
      1257.036
  -6524233.751 8  -5179201.365 9  19724086.182    19724089.415       -3584.370
     -2789.741
 -32244260.552 7   8989754.138 8  18407595.508    18407599.038        -781.822
      -616.818
 88  3 24  7 30 32.0800000  0  3G 3G 9G13
 -77716832.347 8  90391252.375 7  19850296.653    19850298.630        1608.547
      1264.946
  -6416379.955 9  -5095159.468 8  19744610.072    19744613.051       -3601.403
     -2791.772
 -32220383.857 8   9008359.348 9  18412139.429    18412141.708        -792.563
      -623.572
 88  3 24  7 31  2.0800000  0  3G 3G 9G13
 -77765146.496 8  90353605.000 9  19841102.898    19841105.042        1601.299
      1262.827
  -6308209.300 9  -5010870.656 8  19765193.385    19765196.119       -3612.607
     -2807.437
 -32196334.854 8   9027098.834 7  18416715.864    18416718.474        -800.801
      -623.603
 88  3 24  7 31 32.0800000  0  3G 3G 9G13
 -77813267.569 8  90316108.079 8  19831944.696    19831947.909        1604.592
      1241.713
  -6199724.153 8  -4926336.783 8  19785838.957    19785840.921       -3640.421
     -2816.155
 -32172113.002 9   9045973.008 8  18421325.465    18421327.450        -821.048
      -628.779
 88  3 24  7 32  2.0800000  0  3G 3G 9G13
 -77861196.716 9  90278760.712 9  19822825.120    19822828.207        1596.522
      1246.398
  -6090928.710 7  -4841561.136 8  19806542.387    19806543.957       -3622.798
     -2828.968
 -32147721.371 9   9064979.477 8  18425964.984    18425969.310        -809.190
      -636.894
 88  3 24  7 32 32.0800000  0  3G 3G 9G13
 -77908936.448 9  90241560.932 8  19813739.609    19813743.177        1591.402
      1234.089
  -5981827.874 8  -4756547.517 8  19827302.857    19827305.087       -3643.563
     -2840.576
 -32123162.685 9   9084116.109 8  18430639.348    18430641.834        -815.888
      -625.219
 88  3 24  7 33  2.0800000  0  3G 3G 9G13
 -77956486.640 8  90204508.858 8  19804690.910    19804694.167        1579.401
      1237.059
  -5872424.129 8  -4671297.866 8  19848121.679    19848125.000       -3661.274
     -2837.661
 -32098437.096 8   9103382.801 7  18435344.778    18435347.758        -807.316
      -641.113
 88  3 24  7 33 32.0800000  0  3G 3G 9G13
 -78003847.089 9  90167604.642 8  19795680.269    19795681.371        1575.940
      1229.174
  -5762720.575 8  -4585814.603 8  19868995.747    19869000.978       -3658.148
     -2854.438
 -32073546.252 9   9122778.269 7  18440082.024    18440084.045        -841.590
      -639.927
 88  3 24  7 34  2.0800000  0  3G 3G 9G13
 -78051018.843 8  90130847.433 8  19786702.500    19786705.402        1563.995
      1221.456
  -5652720.753 8  -4500100.465 7  19889930.405    19889931.847       -3659.408
     -2853.705
 -32048491.251 9   9142301.647 8  18444848.519    18444851.725        -829.971
      -642.878
 88  3 24  7 34 32.0800000  0  3G 3G 9G13
 -78098002.638 8  90094236.716 8  19777761.433    19777764.712        1568.468
      1221.363
  -5542427.865 7  -4414157.981 8  19910917.533    19910920.398       -3704.519
     -2858.074
 -32023273.951 9   9161951.477 8  18449647.541    18449651.095        -826.702
      -647.824
 88  3 24  7 35  2.0800000  0  3G 3G 9G13
 -78144800.440 9  90057770.916 9  19768856.792    19768859.782        1565.015
      1206.251
  -5431846.698 8  -4327990.833 7  19931961.367    19931963.325       -3678.969
     -2878.268
 -31997896.353 9   9181726.233 8  18454477.674    18454479.495        -845.991
      -646.252
 88  3 24  7 35 32.0800000  0  3G 3G 9G13
 -78191412.359 9  90021449.972 9  19759987.284    19759990.148        1559.457
      1210.650
  -5320979.874 8  -4241601.120 8  19953059.128    19953060.646       -3711.018
     -2885.383
 -31972359.261 8   9201625.278 7  18459337.170    18459339.553        -855.760
      -661.538
 88  3 24  7 36  2.0800000  0  3G 3G 9G13
 -78237838.040 8  89985274.131 9  19751152.184    19751155.866        1528.955
      1203.187
  -5209830.314 7  -4154991.068 8  19974208.260    19974211.513       -3712.789
     -2891.038
 -31946663.875 9   9221647.652 7  18464226.693    18464228.142        -870.242
      -662.408
 88  3 24  7 36 32.0800000  0  3G 3G 9G13
 -78284077.985 9  89949243.032 8  19742352.907    19742355.663        1537.807
      1205.282
  -5098401.053 8  -4068163.109 7  19995413.269    19995415.923       -3721.098
     -2912.382
 -31920810.863 8   9241792.863 8  18469146.751    18469147.973        -864.014
      -671.629
 88  3 24  7 37  2.0800000  0  3G 3G 9G13
 -78330133.846 8  89913355.379 9  19733588.508    19733592.703        1520.957
      1197.701
  -4986696.478 8  -3981120.594 7  20016669.353    20016673.570       -3736.975
     -2912.189
 -31894802.767 9   9262058.915 7  18474094.779    18474097.812        -874.970
      -679.160
 88  3 24  7 37 32.0800000  0  3G 3G 9G13
 -78376005.507 7  89877611.254 8  19724859.727    19724862.337        1509.330
      1184.447
  -4874719.552 8  -3893865.857 8  20037978.515    20037981.453       -3734.710
     -2907.411
 -31868640.072 8   9282445.427 8  18479074.368    18479076.391        -872.761
      -686.269
 88  3 24  7 38  2.0800000  0  3G 3G 9G13
 -78421693.665 8  89842010.113 9  19716164.472    19716167.990        1520.662
      1188.498
  -4762473.159 8  -3806401.156 8  20059338.102    20059340.401       -3737.780
     -2906.864
 -31842323.772 9   9302951.622 6  18484081.777    18484084.365        -899.444
      -685.467
 88  3 24  7 38 32.0800000  0  3G 3G 9G13
 -78467198.209 9  89806552.045 8  19707506.920    19707510.384        1516.906
      1196.595
  -4649959.949 8  -3718728.544 7  20080747.967    20080751.063       -3760.300
     -2928.501
 -31815854.377 8   9323577.116 7  18489118.998    18489121.232        -879.524
      -675.786
 88  3 24  7 39  2.0800000  0  3G 3G 9G13
 -78512521.001 8  89771235.603 8  19698882.191    19698883.971        1511.499
      1174.312
  -4537184.699 7  -3630851.747 8  20102208.887    20102211.590       -3742.716
     -2936.653
 -31789234.880 8   9344319.595 8  18494184.458    18494186.019        -894.970
      -689.519
 88  3 24  7 39 32.0800000  0  3G 3G 9G13
 -78557664.059 8  89736059.210 8  19690290.023    19690294.034        1497.385
      1193.202
  -4424152.136 8  -3542774.451 9  20123719.157    20123722.195       -3784.837
     -2929.495
 -31762467.630 8   9365177.188 7  18499278.814    18499279.795        -892.618
      -689.606
 88  3 24  7 40  2.0800000  0  3G 3G 9G13
 -78602627.096 8  89701023.110 8  19681735.173    19681738.372        1492.265
      1167.116
  -4310864.633 7  -3454498.482 8  20145276.022    20145279.724       -3780.906
     -2949.677
 -31735552.704 9   9386149.859 8  18504400.177    18504402.076        -892.849
      -704.674
 88  3 24  7 40 32.0800000  0  3G 3G 9G13
 -78647409.974 8  89666127.379 9  19673213.024    19673216.078        1491.436
      1171.441
  -4197324.956 9  -3366026.025 8  20166882.672    20166886.034       -3780.738
     -2950.982
 -31708491.387 9   9407236.596 7  18509548.874    18509550.538        -910.241
      -703.581
 88  3 24  7 41  2.0800000  0  3G 3G 9G13
 -78692013.743 8  89631371.217 8  19664725.316    19664728.102        1485.367
      1133.761
  -4083536.522 8  -3277359.722 8  20188535.978    20188538.226       -3794.709
     -2957.028
 -31681284.540 8   9428436.735 7  18514726.940    18514728.529        -904.794
      -709.074
 88  3 24  7 41 32.0800000  0  3G 3G 9G13
 -78736439.611 8  89596753.687 8  19656269.601    19656276.097        1496.691
      1167.029
  -3969503.751 8  -3188503.023 8  20210235.709    20210238.555       -3803.943
     -2969.319
 -31653934.136 9   9449748.725 7  18519931.526    18519932.782        -917.801
      -717.040
 88  3 24  7 42  2.0800000  0  3G 3G 9G13
 -78780687.037 9  89562275.192 8  19647849.839    19647854.408        1488.015
      1153.546
  -3855228.132 8  -3099457.110 9  20231980.732    20231983.636       -3801.424
     -2971.612
 -31626439.808 9   9471172.877 8  18525162.161    18525164.126        -920.871
      -717.872
 88  3 24  7 42 32.0800000  0  3G 3G 9G13
 -78824756.115 8  89527935.660 8  19639464.340    19639467.624        1459.531
      1145.561
  -3740713.257 8  -3010224.766 8  20253772.818    20253774.223       -3820.737
     -2975.663
 -31598802.803 9   9492708.214 7  18530422.287    18530424.171        -917.458
      -715.262
 88  3 24  7 43  2.0800000  0  3G 3G 9G13
 -78868649.434 8  89493733.089 7  19631111.444    19631113.952        1452.872
      1144.324
  -3625963.960 8  -2920809.753 8  20275608.695    20275611.914       -3817.667
     -2978.956
 -31571026.268 8   9514352.262 8  18535708.255    18535709.369        -939.834
      -718.556
 88  3 24  7 43 32.0800000  0  3G 3G 9G13
 -78912369.140 8  89459665.798 8  19622793.176    19622795.801        1463.797
      1134.507
  -3510985.140 9  -2831215.877 8  20297490.061    20297489.891       -3837.962
     -2989.097
 -31543112.343 8   9536103.360 8  18541020.721    18541022.229        -938.414
      -725.975
 88  3 24  7 44  2.0800000  0  3G 3G 9G13
 -78955913.927 8  89425734.813 8  19614506.302    19614508.183        1439.770
      1130.666
  -3395778.792 8  -2741444.718 9  20319410.153    20319414.697       -3857.108
     -2984.953
 -31515061.379 8   9557961.251 7  18546358.378    18546359.390        -925.934
      -730.325
 88  3 24  7 44 32.0800000  0  3G 3G 9G13
 -78999283.142 8  89391940.628 8  19606252.743    19606256.056        1467.034
      1121.190
  -3280346.844 8  -2651497.751 8  20341378.041    20341380.903       -3844.254
     -3001.196
 -31486872.701 8   9579926.451 7  18551722.933    18551723.990        -925.352
      -738.446
 88  3 24  7 45  2.0800000  0  3G 3G 9G13
 -79042477.523 8  89358282.698 8  19598034.175    19598036.501        1429.356
      1106.905
  -3164692.609 8  -2561377.584 8  20363385.980    20363388.814       -3853.217
     -3002.873
 -31458547.139 9   9601998.324 7  18557111.960    18557113.502        -936.859
      -739.080
 88  3 24  7 45 32.0800000  0  3G 3G 9G13
 -79085500.250 8  89324758.525 8  19589847.144    19589849.704        1442.099
      1127.460
  -3048821.624 8  -2471088.529 8  20385436.205    20385437.953       -3868.193
     -3008.236
 -31430088.694 8   9624173.725 7  18562527.811    18562529.760        -944.850
      -742.752
 88  3 24  7 46  2.0800000  0  3G 3G 9G13
 -79128351.955 7  89291367.617 8  19581693.209    19581694.098        1415.680
      1100.486
  -2932737.225 9  -2380633.163 8  20407525.879    20407529.506       -3877.507
     -3004.079
 -31401498.315 9   9646451.955 8  18567968.237    18567970.058        -954.538
      -736.172
 88  3 24  7 46 32.0800000  0  3G 3G 9G13
 -79171031.967 7  89258110.480 8  19573570.518    19573572.957        1417.849
      1114.163
  -2816442.021 8  -2290013.532 9  20429655.672    20429658.948       -3869.732
     -3021.061
 -31372776.091 8   9668832.911 8  18573433.943    18573434.544        -948.606
      -737.725
 88  3 24  7 47  2.0800000  0  3G 3G 9G13
 -79213541.000 7  89224986.578 8  19565482.075    19565484.419        1401.405
      1095.341
  -2699939.034 8  -2199232.025 8  20451826.406    20451827.995       -3886.661
     -3026.436
 -31343923.150 8   9691315.715 7  18578923.426    18578925.612        -964.658
      -759.287
 88  3 24  7 47 32.0800000  0  3G 3G 9G13
 -79255878.807 8  89191996.081 8  19557424.909    19557428.368        1402.091
      1097.740
  -2583231.026 8  -2108290.734 9  20474036.083    20474036.970       -3875.513
     -3020.520
 -31314939.679 8   9713900.236 7  18584439.418    18584440.971        -960.392
      -731.574
 88  3 24  7 48  2.0800000  0  3G 3G 9G13
 -79298047.892 9  89159137.084 8  19549400.881    19549403.121        1414.212
      1093.054
  -2466323.275 8  -2017193.817 7  20496282.155    20496283.361       -3911.661
     -3043.654
 -31285828.546 8   9736584.254 8  18589979.708    18589981.410        -966.644
      -752.638
 88  3 24  7 48 32.0800000  0  3G 3G 9G13
 -79340049.620 8  89126408.477 7  19541408.873    19541409.946        1405.464
      1094.999
  -2349219.419 8  -1925944.069 7  20518566.231    20518567.340       -3907.084
     -3028.518
 -31256591.146 9   9759366.642 7  18595543.750    18595543.942        -975.056
      -771.013
 88  3 24  7 49  2.0800000  0  3G 3G 9G13
 -79381884.743 8  89093809.691 8  19533446.785    19533449.589        1397.642
      1073.270
  -2231922.920 8  -1834544.190 7  20540886.393    20540888.171       -3927.036
     -3051.328
 -31227229.245 8   9782246.045 8  18601130.709    18601132.482        -996.005
      -755.832
 88  3 24  7 49 32.0800000  0  3G 3G 9G13
 -79423550.964 8  89061342.529 9  19525518.053    19525521.474        1392.626
      1066.789
  -2114434.671 7  -1742994.930 8  20563243.500    20563246.752       -3917.506
     -3043.847
 -31197740.902 8   9805223.980 7  18606741.527    18606743.443        -983.980
      -755.261
 88  3 24  7 50  2.0800000  0  3G 3G 9G13
 -79465049.218 9  89029006.252 7  19517621.561    19517624.734        1396.900
      1077.153
  -1996758.247 7  -1651299.057 7  20585638.349    20585638.525       -3932.905
     -3055.318
 -31168127.647 8   9828299.239 7  18612377.298    18612379.532        -997.185
      -784.888
 88  3 24  7 50 32.0800000  0  3G 3G 9G13
 -79506382.835 8  88996798.246 7  19509755.818    19509757.783        1385.257
      1059.338
  -1878899.722 8  -1559461.256 8  20608064.223    20608067.210       -3922.195
     -3074.046
 -31138393.059 8   9851469.053 8  18618035.721    18618037.000        -995.279
      -776.518
 88  3 24  7 51  2.0800000  0  3G 3G 9G13
 -79547552.196 8  88964718.238 8  19501920.806    19501923.797        1380.545
      1077.626
  -1760862.060 8  -1467483.876 7  20630527.184    20630528.533       -3935.951
     -3055.454
 -31108537.751 8   9874732.908 7  18623717.298    18623719.353        -991.691
      -764.575
 88  3 24  7 51 32.0800000  0  3G 3G 9G13
 -79588556.276 9  88932767.022 7  19494118.155    19494122.259        1385.034
      1067.572
  -1642647.006 8  -1375368.245 7  20653022.089    20653024.381       -3941.429
     -3070.063
 -31078560.779 8   9898091.592 7  18629422.069    18629423.018       -1005.327
      -769.285
 88  3 24  7 52  2.0800000  0  3G 3G 9G13
 -79629396.967 8  88900943.125 7  19486345.365    19486349.660        1355.019
      1054.026
  -1524258.924 8  -1283117.794 8  20675550.317    20675552.635       -3934.053
     -3069.367
 -31048464.653 7   9921543.122 7  18635148.217    18635151.828       -1018.899
      -780.874
 88  3 24  7 52 32.0800000  0  3G 3G 9G13
 -79670075.181 7  88869245.823 8  19478605.903    19478607.634        1358.041
      1059.699
  -1405701.591 9  -1190735.481 8  20698110.740    20698115.189       -3945.528
     -3083.671
 -31018250.956 8   9945086.255 7  18640898.007    18640900.174       -1003.062
      -784.447
 88  3 24  7 53  2.0800000  0  3G 3G 9G13
 -79710589.097 8  88837676.547 8  19470896.144    19470898.747        1345.003
      1064.403
  -1286976.177 8  -1098222.172 8  20720704.137    20720705.514       -3951.126
     -3075.711
 -30987918.567 8   9968721.884 7  18646669.538    18646672.593       -1035.470
      -764.072
 88  3 24  7 53 32.0800000  0  3G 3G 9G13
 -79750940.519 8  88806233.896 8  19463218.038    19463219.764        1349.197
      1040.467
  -1168086.815 8  -1005581.120 8  20743327.781    20743331.115       -3960.815
     -3092.377
 -30957469.045 7   9992448.778 6  18652465.361    18652465.095       -1012.807
      -784.298
 88  3 24  7 54  2.0800000  0  3G 3G 9G13
 -79791132.746 8  88774915.300 8  19455569.143    19455571.810        1346.143
      1043.238
  -1049039.895 8   -912817.314 8  20765982.330    20765984.222       -3971.891
     -3086.318
 -30926906.318 7  10016263.885 8  18658281.447    18658281.917       -1023.277
      -806.183
 88  3 24  7 54 32.0800000  0  3G 3G 9G13
 -79831165.875 7  88743720.664 8  19447951.716    19447954.185        1337.180
      1017.482
   -929838.195 8   -819932.889 9  20788665.643    20788668.713       -3955.034
     -3103.599
 -30896231.213 7  10040166.585 7  18664117.529    18664119.150       -1030.686
      -790.400
 88  3 24  7 55  2.0800000  0  3G 3G 9G13
 -79871039.929 8  88712649.989 8  19440363.165    19440366.425        1331.694
      1042.704
   -810484.007 8   -726929.647 8  20811377.253    20811380.400       -3963.765
     -3095.962
 -30865443.284 6  10064157.172 7  18669976.070    18669978.019       -1047.256
      -791.481
 88  3 24  7 55 32.0800000  0  3G 3G 9G13
 -79910754.826 9  88681703.345 8  19432806.539    19432809.427        1326.175
      1035.670
   -690980.453 8   -633810.018 8  20834118.628    20834120.552       -3961.254
     -3112.547
 -30834543.444 7  10088234.979 8  18675856.715    18675858.995       -1045.518
      -801.410
 88  3 24  7 56  2.0800000  0  3G 3G 9G13
 -79950311.629 8  88650879.881 8  19425279.735    19425280.908        1318.512
      1027.530
   -571331.192 7   -540576.855 8  20856886.691    20856889.443       -3988.534
     -3098.156
 -30803532.964 7  10112398.964 7  18681757.497    18681759.579       -1060.350
      -808.606
 88  3 24  7 56 32.0800000  0  3G 3G 9G13
 -79989711.372 8  88620178.802 7  19417781.722    19417784.487        1314.206
      1020.595
   -451539.980 8   -447233.075 8  20879682.079    20879684.742       -3985.496
     -3105.469
 -30772413.241 7  10136648.084 7  18687678.101    18687681.713       -1032.815
      -814.515
 88  3 24  7 57  2.0800000  0  3G 3G 9G13
 -80028954.107 7  88589600.076 8  19410313.370    19410316.255        1309.987
      1026.517
   -331609.273 9   -353780.596 7  20902504.269    20902507.229       -3990.695
     -3118.605
 -30741184.551 7  10160982.131 7  18693621.673    18693623.781       -1050.127
      -814.192
 88  3 24  7 57 32.0800000  0  3G 3G 9G13
 -80068039.530 8  88559143.902 8  19402875.963    19402878.375        1304.294
      1007.497
   -211541.714 8   -260221.474 8  20925351.919    20925355.705       -4017.457
     -3102.679
 -30709846.299 7  10185401.542 6  18699584.584    18699587.994       -1015.072
      -829.354
 88  3 24  7 58  2.0800000  0  3G 3G 9G13
 -80106969.102 8  88528809.196 8  19395468.113    19395469.825        1301.606
      1021.733
    -91341.852 8   -166559.255 8  20948225.130    20948227.492       -3998.733
     -3118.910
 -30678401.030 6  10209904.344 7  18705568.784    18705571.434       -1074.911
      -814.000
 88  3 24  7 58 32.0800000  0  3G 3G 9G13
 -80145744.154 8  88498594.880 9  19388089.021    19388091.638        1292.532
      1010.368
     28986.845 9    -72796.646 7  20971122.958    20971125.779       -4014.267
     -3125.962
 -30646849.964 7  10234489.584 5  18711573.161    18711575.392       -1054.784
      -817.995
 88  3 24  7 59  2.0800000  0  3G 3G 9G13
 -80184366.221 8  88468499.784 8  19380738.807    19380742.238        1297.284
      1000.916
    149440.459 8     21063.302 8  20994044.963    20994046.677       -4000.527
     -3132.816
 -30615194.802 7  10259155.947 6  18717597.202    18717598.569       -1043.907
      -842.341
 88  3 24  7 59 32.0800000  0  3G 3G 9G13
 -80222835.786 8  88438523.526 8  19373417.660    19373421.874        1303.448
      1007.372
    270015.446 8    115017.825 8  21016990.182    21016992.075       -4023.661
     -3123.657
 -30583436.439 5  10283902.710 5  18723641.601    18723643.200       -1053.588
      -820.555
 88  3 24  8  0  2.0800000  0  3G 3G 9G13
 -80261152.540 7  88408666.318 9  19366127.850    19366129.890        1290.339
       983.114
    390709.798 8    209065.359 7  21039956.879    21039959.212       -4020.902
     -3134.835
 -30551574.738 6  10308729.999 6  18729700.230    18729707.156       -1079.178
      -831.808
 88  3 24  8  0 32.0800000  0  3G 3G 9G13
 -80299316.575 8  88378928.141 8  19358866.257    19358867.988        1275.506
       995.628
    511519.981 8    303203.141 8  21062946.731    21062948.850       -4032.887
     -3139.452
 -30519609.839 5  10333637.718 6  18735785.472    18735787.898       -1069.569
      -815.938
 88  3 24  8  1  2.0800000  0  3G 3G 9G13
 -80337329.991 8  88349307.306 8  19351631.095    19351633.517        1286.479
       982.250
    632441.572 8    397427.729 7  21085955.413    21085960.204       -4021.524
     -3142.137
 -30487544.604 5  10358623.615 6  18741886.866    18741889.272       -1075.836
      -854.054
 88  3 24  8  1 32.0800000  0  3G 3G 9G13
 -80375193.630 8  88319803.189 8  19344426.366    19344429.166        1256.998
       986.227
    753471.077 7    491736.410 8  21108989.193    21108991.700       -4029.036
     -3137.601
 -30455379.870 6  10383687.042 5  18748008.383    18748011.578       -1072.886
      -830.534
 88  3 24  8  2  2.0800000  0  3G 3G 9G13
 -80412907.222 8  88290415.996 9  19337248.833    19337252.401        1263.385
       964.982
    874605.924 7    586127.168 8  21132039.040    21132042.713       -4036.978
     -3161.785
 -30423115.881 4  10408827.791 6  18754147.175    18754150.756       -1094.002
      -829.099
 88  3 24  8  2 32.0800000  0  3G 3G 9G13
 -80450471.335 8  88261145.280 8  19330101.612    19330103.487        1228.689
       970.550
    995842.946 8    680597.542 8  21155108.808    21155113.244       -4047.640
     -3156.832
 -30390753.014 6  10434045.606 6  18760306.004    18760308.646       -1094.130
      -854.793
 88  3 24  8  3  2.0800000  0  3G 3G 9G13
 -80487886.810 8  88231990.376 7  19322981.801    19322983.712        1254.438
       968.282
   1117178.240 7    775144.507 9  21178198.891    21178202.153       -4024.211
     -3143.765
 -30358292.810 5  10459339.269 6  18766483.641    18766486.562       -1097.375
      -859.149
 88  3 24  8  3 32.0800000  0  3G 3G 9G13
 -80525153.500 8  88202951.414 8  19315889.839    19315892.442        1255.172
       962.608
   1238609.729 7    869766.405 9  21201306.465    21201309.514       -4052.121
     -3156.261
 -30325734.657 5  10484709.254 4  18772679.470    18772682.222       -1099.121
      -852.295
 88  3 24  8  4  2.0800000  0  3G 3G 9G13
 -80562271.860 8  88174028.031 7  19308828.039    19308829.011        1241.201
       967.269
   1360134.413 8    964460.932 9  21224433.063    21224435.444       -4069.282
     -3156.981
 -30293079.419 5  10510154.876 5  18778893.081    18778895.427       -1122.606
      -854.880
 88  3 24  8  4 32.0800000  0  3G 3G 9G13
 -80599244.780 8  88145217.993 8  19301792.221    19301793.521        1229.502
       958.470
   1481746.747 9   1059223.769 8  21247574.926    21247576.886       -4050.168
     -3161.810
 -30260330.437 5  10535673.557 5  18785124.131    18785127.496       -1080.924
      -857.900
 88  3 24  8  5  2.0800000  0  3G 3G 9G13
 -80636072.208 8  88116521.298 9  19294783.381    19294784.702        1227.852
       950.889
   1603443.849 9   1154052.660 8  21270733.092    21270736.413       -4053.573
     -3155.757
 -30227487.492 4  10561265.467 6  18791374.723    18791378.622       -1081.825
      -862.579
 88  3 24  8  5 32.0800000  0  3G 3G 9G13
 -80672754.650 9  88087937.594 8  19287802.789    19287804.596        1215.236
       960.471
   1725222.512 9   1248945.110 7  21293906.322    21293910.182       -4055.885
     -3176.368
 -30194551.330 4  10586929.986 6  18797642.560    18797645.571       -1077.686
      -852.314
 88  3 24  8  6  2.0800000  0  3G 3G 9G13
 -80709293.545 9  88059465.745 8  19280848.786    19280851.344        1203.338
       959.936
   1847078.810 9   1343898.058 8  21317094.819    21317097.558       -4074.170
     -3158.740
 -30161523.785 5  10612665.739 6  18803927.060    18803930.465       -1083.468
      -860.833
 88  3 24  8  6 32.0800000  0  3G 3G 9G13
 -80745688.572 8  88031105.983 8  19273924.095    19273926.276        1214.327
       939.102
   1969010.085 8   1438909.438 9  21340297.086    21340301.038       -4062.839
     -3159.473
 -30128404.767 4  10638472.732 4  18810229.662    18810233.071       -1073.659
      -859.466
 88  3 24  8  7  2.0800000  0  3G 3G 9G13
 -80781939.554 8  88002858.480 9  19267025.627    19267027.277        1206.440
       951.846
   2091014.212 8   1533977.583 8  21363514.196    21363517.677       -4074.370
     -3169.869
 -30095194.168 7  10664351.144 7  18816549.642    18816552.106       -1104.265
      -859.988
 88  3 24  8  7 32.0800000  0  3G 3G 9G13
 -80818047.221 8  87974722.648 8  19260154.255    19260156.520        1178.602
       928.874
   2213087.361 7   1629099.507 8  21386744.879    21386747.570       -4060.813
     -3169.757
 -30061892.881 8  10690300.186 8  18822887.164    18822890.017       -1116.745
      -865.064
 88  3 24  8  8  2.0800000  0  3G 3G 9G13
 -80854013.039 8  87946697.356 8  19253311.460    19253311.905        1194.319
       930.011
   2335225.813 7   1724272.320 9  21409986.802    21409989.422       -4073.612
     -3171.528
 -30028502.384 8  10716318.752 8  18829241.065    18829243.036       -1117.144
      -868.836
 88  3 24  8  8 32.0800000  0  3G 3G 9G13
 -80889838.665 8  87918781.298 8  19246492.563    19246495.213        1190.037
       939.313
   2457425.584 7   1819492.894 8  21433240.146    21433242.483       -4094.569
     -3182.750
 -29995024.220 9  10742405.625 8  18835612.530    18835614.560       -1123.037
      -864.754
 88  3 24  8  9  2.0800000  0  3G 3G 9G13
 -80925524.062 8  87890974.519 8  19239702.283    19239705.075        1186.297
       921.753
   2579683.573 7   1914758.843 8  21456504.852    21456508.232       -4075.829
     -3173.436
 -29961458.654 8  10768560.590 8  18841999.229    18842001.382       -1118.627
      -858.888
 88  3 24  8  9 32.0800000  0  3G 3G 9G13
 -80961068.969 8  87863277.194 8  19232937.222    19232940.831        1185.229
       934.640
   2701997.147 8   2010068.082 8  21479780.369    21479783.795       -4087.504
     -3171.981
 -29927805.628 9  10794783.736 7  18848403.061    18848404.712       -1122.829
      -864.120
 88  3 24  8 10  2.0800000  0  3G 3G 9G13
 -80996474.445 9  87835688.522 8  19226199.669    19226201.954        1204.487
       911.581
   2824363.201 8   2105418.229 7  21503065.506    21503068.397       -4086.331
     -3183.154
 -29894065.887 9  10821074.442 8  18854823.027    18854824.986       -1126.944
      -870.048
 88  3 24  8 10 32.0800000  0  3G 3G 9G13
 -81031741.663 9  87808207.586 8  19219489.103    19219490.935        1187.876
       905.758
   2946777.009 8   2200805.589 9  21526359.999    21526364.559       -4059.569
     -3179.034
 -29860241.837 8  10847430.845 8  18861259.986    18861261.897       -1133.722
      -892.815
 88  3 24  8 11  2.0800000  0  3G 3G 9G13
 -81066869.548 9  87780835.233 8  19212805.376    19212806.611        1169.272
       904.429
   3069237.510 7   2296229.343 8  21549664.392    21549667.957       -4089.106
     -3179.134
 -29826331.795 8  10873854.255 9  18867713.426    18867714.810       -1143.068
      -889.907
 88  3 24  8 11 32.0800000  0  3G 3G 9G13
 -81101858.530 8  87753571.099 8  19206145.909    19206148.488        1154.296
       914.023
   3191741.852 8   2391687.260 9  21572976.722    21572979.773       -4096.140
     -3182.862
 -29792335.976 9  10900344.503 8  18874181.271    18874183.584       -1123.076
      -877.834
 88  3 24  8 12  2.0800000  0  3G 3G 9G13
 -81136711.866 8  87726412.667 8  19199514.608    19199515.887        1163.754
       902.254
   3314283.885 8   2487174.530 8  21596295.542    21596298.675       -4081.650
     -3182.371
 -29758258.143 8  10926898.657 9  18880666.932    18880667.935       -1134.815
      -882.426
 88  3 24  8 12 32.0800000  0  3G 3G 9G13
 -81171431.506 8  87699358.412 8  19192906.690    19192908.528        1165.069
       916.732
   3436858.884 8   2582687.515 8  21619620.476    21619623.564       -4077.791
     -3189.952
 -29724099.982 9  10953515.398 7  18887166.408    18887169.084       -1134.001
      -890.367
 88  3 24  8 13  2.0800000  0  3G 3G 9G13
 -81206015.182 9  87672410.111 8  19186325.898    19186328.387        1161.760
       904.795
   3559466.370 9   2678225.801 9  21642950.763    21642954.487       -4099.066
     -3185.857
 -29689860.188 9  10980195.768 8  18893683.209    18893684.232       -1141.362
      -898.091
 88  3 24  8 13 32.0800000  0  3G 3G 9G13
 -81240461.790 8  87645568.614 8  19179770.699    19179773.420        1152.813
       896.077
   3682104.760 9   2773788.158 9  21666289.419    21666292.280       -4078.126
     -3183.458
 -29655537.593 9  11006940.638 9  18900213.263    18900215.469       -1153.020
      -891.902
 88  3 24  8 14  2.0800000  0  3G 3G 9G13
 -81274773.696 9  87618832.078 8  19173242.087    19173243.383        1143.953
       884.569
   3804769.977 9   2869371.418 9  21689631.588    21689634.479       -4084.306
     -3182.427
 -29621133.492 9  11033749.014 9  18906761.257    18906762.905       -1141.441
      -894.785
 88  3 24  8 14 32.0800000  0  3G 3G 9G13
 -81308951.780 8  87592199.823 8  19166737.613    19166739.722        1141.736
       884.563
   3927458.006 9   2964972.468 9  21712978.127    21712981.416       -4091.427
     -3201.975
 -29586649.387 9  11060619.740 7  18913321.941    18913324.650       -1150.381
      -888.434
 88  3 24  8 15  2.0800000  0  3G 3G 9G13
 -81342997.550 8  87565670.657 8  19160258.110    19160261.439        1135.365
       888.546
   4050164.598 9   3060587.984 8  21736326.638    21736331.515       -4074.489
     -3187.410
 -29552086.886 9  11087551.550 8  18919899.704    18919902.526       -1151.888
      -897.836
 88  3 24  8 15 32.0800000  0  3G 3G 9G13
 -81376910.313 9  87539245.153 9  19153805.830    19153808.047        1127.191
       877.691
   4172888.119 7   3156216.667 7  21759681.736    21759685.643       -4075.367
     -3176.872
 -29517445.242 8  11114545.031 8  18926492.433    18926494.838       -1147.805
      -895.767
 88  3 24  8 16  2.0800000  0  3G 3G 9G13
 -81410689.884 9  87512923.402 9  19147377.770    19147380.179        1114.927
       864.139
   4295625.758 6   3251856.364 8  21783037.125    21783043.281       -4093.197
     -3184.875
 -29482724.325 9  11141600.273 9  18933099.535    18933100.260       -1147.111
      -897.538
 88  3 24  8 16 32.0800000  0  3G 3G 9G13
 -81444338.102 8  87486704.033 8  19140974.648    19140977.160        1114.815
       875.833
   4418373.135 7   3347503.630 6  21806394.910    21806398.261       -4100.781
     -3191.996
 -29447926.215 8  11168715.682 9  18939720.978    18939722.647       -1164.416
      -908.617
 88  3 24  8 17  2.0800000  0  3G 3G 9G13
 -81477856.157 9  87460586.089 8  19134596.076    19134598.868        1132.303
       881.450
   4541126.443 5   3443155.508 6  21829754.703    21829759.851       -4132.192
     -3190.710
 -29413051.801 8  11195890.555 8  18946357.910    18946359.501       -1164.559
      -928.662
 88  3 24  8 17 32.0800000  0  3G 3G 9G13
 -81511244.564 8  87434569.155 8  19128241.764    19128245.636        1104.034
       865.195
   4663882.422 7   3538809.519 6  21853114.991    21853119.066       -4096.068
     -3204.399
 -29378101.896 9  11223124.243 8  18953007.920    18953010.102       -1158.865
      -913.047
 88  3 24  8 18  2.0800000  0  3G 3G 9G13
 -81544503.198 8  87408653.349 8  19121913.706    19121916.233        1103.204
       865.593
   4786638.396 7   3634463.488 7  21876475.079    21876477.621       -4076.435
     -3194.295
 -29343076.095 8  11250417.058 8  18959674.364    18959674.586       -1154.751
      -908.772
 88  3 24  8 18 32.0800000  0  3G 3G 9G13
 -81577633.691 7  87382837.387 8  19115609.557    19115612.112        1093.811
       874.559
   4909390.749 8   3730114.693 7  21899832.808    21899836.374       -4104.034
     -3189.312
 -29307976.056 8  11277767.737 9  18966351.996    18966354.648       -1162.972
      -900.421
 88  3 24  8 19  2.0800000  0  3G 3G 9G13
 -81610635.839 9  87357121.420 8  19109329.283    19109330.830        1080.517
       857.471
   5032136.525 8   3825760.745 7  21923190.529    21923195.154       -4094.489
     -3186.329
 -29272801.873 9  11305176.188 9  18973045.719    18973048.453       -1171.130
      -919.870
 88  3 24  8 19 32.0800000  0  3G 3G 9G13
 -81643509.436 8  87331505.644 8  19103073.911    19103076.158        1089.784
       847.896
   5154873.633 9   3921400.048 7  21946548.250    21946549.724       -4079.585
     -3183.260
 -29237553.475 8  11332642.461 8  18979753.347    18979755.384       -1163.411
      -922.281
 88  3 24  8 20  2.0800000  0  3G 3G 9G13
 -81676254.298 9  87305990.169 8  19096841.553    19096844.598        1090.246
       851.071
   5277599.453 9   4017030.549 7  21969902.094    21969905.843       -4083.851
     -3186.223
 -29202230.261 9  11360167.043 8  18986474.510    18986477.973       -1185.683
      -908.443
 88  3 24  8 20 32.0800000  0  3G 3G 9G13
 -81708871.146 9  87280574.447 9  19090635.554    19090637.314        1081.418
       842.092
   5400310.826 9   4112649.786 8  21993252.667    21993255.514       -4081.634
     -3187.019
 -29166833.277 9  11387749.118 7  18993210.340    18993213.500       -1186.018
      -914.644
 88  3 24  8 21  2.0800000  0  3G 3G 9G13
 -81741362.273 9  87255256.697 9  19084451.812    19084454.913        1061.554
       847.094
   5523003.014 9   4208254.074 8  22016602.092    22016604.182       -4098.301
     -3194.047
 -29131364.059 8  11415387.452 8  18999959.643    18999961.587       -1188.155
      -919.628
 88  3 24  8 21 32.0800000  0  3G 3G 9G13
 -81773728.475 9  87230036.277 7  19078293.231    19078296.278        1081.036
       841.788
   5645672.306 8   4303840.514 9  22039944.796    22039946.501       -4088.716
     -3183.241
 -29095823.825 8  11443081.123 8  19006724.189    19006726.217       -1196.975
      -910.493
 88  3 24  8 22  2.0800000  0  3G 3G 9G13
 -81805969.195 8  87204913.655 9  19072158.045    19072161.227        1076.570
       832.715
   5768316.765 8   4399407.616 8  22063279.131    22063285.326       -4065.781
     -3177.133
 -29060212.184 8  11470830.445 9  19013500.565    19013502.644       -1199.814
      -930.247
 88  3 24  8 22 32.0800000  0  3G 3G 9G13
 -81838085.525 9  87179887.964 8  19066047.498    19066049.349        1074.537
       830.385
   5890932.742 7   4494952.499 8  22086616.003    22086617.396       -4090.008
     -3172.839
 -29024530.077 9  11498634.675 9  19020290.085    19020292.841       -1200.539
      -937.915
 88  3 24  8 23  2.0800000  0  3G 3G 9G13
 -81870077.139 8  87154959.453 8  19059958.521    19059961.454        1066.251
       830.249
   6013517.591 6   4590473.143 8  22109943.906    22109947.313       -4076.930
     -3172.870
 -28988777.461 9  11526493.853 8  19027093.952    19027095.612       -1182.358
      -926.276
 88  3 24  8 23 32.0800000  0  3G 3G 9G13
 -81901944.580 8  87130127.695 8  19053895.492    19053896.998        1059.433
       822.432
   6136068.768 3   4685967.439 8  22133258.639    22133265.383       -4102.719
     -3182.756
 -28952954.142 8  11554408.129 8  19033911.424    19033912.598       -1197.573
      -938.362
